[[{"header":{"parameterUnit":"m.s-1","parameterCategory":1,"la1":31.0,"la2":29.5877,"lo1":-88.7671,"lo2":-86.6584,"dy":0.0162,"dx":0.0185,"nx":115,"ny":88,"refTime":"2025-03-31T12:00:00:Z","depth":0,"parameterNumber":2,"parameterNumberName":"U-component_of_WINDS"},"data":[0.0,0.0,0.0,0.0,0.0,0.0,0.0,0.0,0.0,0.0,0.0,0.0,0.0,0.0,0.0,0.0,0.0,0.0,0.0,0.0,0.0,0.0,0.0,0.0,0.0,0.0,0.0,0.0,0.0,0.0,0.0,0.0,0.0,0.0,0.0,0.0,0.0,0.0,0.0,0.0,0.0,0.0,0.0,0.0,0.0,0.0,0.0,0.0,0.0,0.0,0.0,0.0,0.0,0.0,0.0,0.0,0.0,0.0,0.0,0.0,0.0,0.0,0.0,0.0,0.0,0.0,0.0,0.0,0.0,0.0,0.0,0.0,0.0,0.0,0.0,0.0,0.0,0.0,0.0,0.0,0.0,0.0,0.0,0.0,0.0,0.0,0.0,0.0,0.0,0.0,0.0,0.0,0.0,0.0,0.0,0.0,0.0,0.0,0.0,0.0,0.0,0.0,0.0,0.0,0.0,0.0,0.0,0.0,0.0,0.0,0.0,0.0,0.0,0.0,0.0,0.0,0.0,0.0,0.0,0.0,0.0,0.0,0.0,0.0,0.0,0.0,0.0,0.0,0.0,0.0,0.0,0.0,0.0,0.0,0.0,0.0,0.0,0.0,0.0,0.0,0.0,0.0,0.0,0.0,0.0,0.0,0.0,0.0,0.0,0.0,0.0,0.0,0.0,0.0,0.0,0.0,0.0,0.0,0.0,0.0,0.0,0.0,0.0,0.0,0.0,0.0,0.0,0.0,0.0,0.0,0.0,0.0,0.0,0.0,0.0,0.0,0.0,0.0,0.0,0.0,0.0,0.0,0.0,0.0,0.0,0.0,0.0,0.0,0.0,0.0,0.0,0.0,0.0,0.0,0.0,0.0,0.0,0.0,0.0,0.0,0.0,0.0,0.0,0.0,0.0,0.0,0.0,0.0,0.0,0.0,0.0,0.0,0.0,0.0,0.0,0.0,0.0,0.0,0.0,0.0,0.0,0.0,0.0,0.0,0.0,0.0,0.0,0.0,0.0,0.0,0.0,0.0,0.0,0.0,0.0,0.0,0.0,0.0,0.0,0.0,0.0,0.0,0.0,0.0,0.0,0.0,0.0,0.0,0.0,0.0,0.0,0.0,0.0,0.0,0.0,0.0,0.0,0.0,0.0,0.0,0.0,0.0,0.0,0.0,0.0,0.0,0.0,0.0,0.0,0.0,0.0,0.0,0.0,0.0,0.0,0.0,0.0,0.0,0.0,0.0,0.0,0.0,0.0,0.0,0.0,0.0,0.0,0.0,0.0,0.0,0.0,0.0,0.0,0.0,0.0,0.0,0.0,0.0,0.0,0.0,0.0,0.0,0.0,0.0,0.0,0.0,0.0,0.0,0.0,0.0,0.0,0.0,0.0,0.0,0.0,0.0,0.0,0.0,0.0,0.0,0.0,0.0,0.0,0.0,0.0,0.0,0.0,0.0,0.0,0.0,0.0,0.0,0.0,0.0,0.0,0.0,0.0,0.0,0.0,0.0,0.0,0.0,0.0,0.0,0.0,0.0,0.0,0.0,0.0,0.0,0.0,0.0,0.0,0.0,0.0,0.0,0.0,0.0,0.0,0.0,0.0,0.0,0.0,0.0,0.0,0.0,0.0,0.0,0.0,0.0,0.0,0.0,0.0,0.0,0.0,0.0,0.0,0.0,0.0,0.0,0.0,0.0,0.0,0.0,0.0,0.0,0.0,0.0,0.0,0.0,0.0,0.0,0.0,0.0,0.0,0.0,0.0,0.0,0.0,0.0,0.0,0.0,0.0,0.0,0.0,0.0,0.0,0.0,0.0,0.0,0.0,0.0,0.0,0.0,0.0,0.0,0.0,0.0,0.0,0.0,0.0,0.0,0.0,0.0,0.0,0.0,0.0,0.0,0.0,0.0,0.0,0.0,0.0,0.0,0.0,0.0,0.0,0.0,0.0,0.0,0.0,0.0,0.0,0.0,0.0,0.0,0.0,0.0,0.0,0.0,0.0,0.0,0.0,0.0,0.0,0.0,0.0,0.0,0.0,0.0,0.0,0.0,0.0,0.0,0.0,0.0,0.0,0.0,0.0,0.0,0.0,0.0,0.0,0.0,0.0,0.0,0.0,0.0,0.0,0.0,0.0,0.0,0.0,0.0,0.0,0.0,0.0,0.0,0.0,0.0,0.0,0.0,0.0,0.0,0.0,0.0,0.0,0.0,0.0,0.0,0.0,0.0,0.0,0.0,0.0,0.0,0.0,0.0,0.0,0.0,0.0,0.0,0.0,0.0,0.0,0.0,0.0,0.0,0.0,0.0,0.0,0.0,0.0,0.0,0.0,0.0,0.0,0.0,0.0,0.0,0.0,0.0,0.0,0.0,0.0,0.0,0.0,0.0,0.0,0.0,0.0,0.0,0.0,0.0,0.0,0.0,0.0,0.0,0.0,0.0,0.0,0.0,0.0,0.0,0.0,0.0,0.0,0.0,0.0,0.0,0.0,0.0,0.0,0.0,0.0,0.0,0.0,0.0,0.0,0.0,0.0,0.0,0.0,0.0,0.0,0.0,0.0,0.0,0.0,0.0,0.0,0.0,0.0,0.0,0.0,0.0,0.0,0.0,0.0,0.0,0.0,0.0,0.0,0.0,0.0,0.0,0.0,0.0,0.0,0.0,0.0,0.0,0.0,0.0,0.0,0.0,0.0,0.0,0.0,0.0,0.0,0.0,0.0,0.0,0.0,0.0,0.0,0.0,0.0,0.0,0.0,0.0,0.0,0.0,0.0,0.0,0.0,0.0,0.0,0.0,0.0,0.0,0.0,0.0,0.0,0.0,0.0,0.0,0.0,0.0,0.0,0.0,0.0,0.0,0.0,0.0,0.0,0.0,0.0,0.0,0.0,0.0,0.0,0.0,0.0,0.0,0.0,0.0,0.0,0.0,0.0,0.0,0.0,0.0,0.0,0.0,0.0,0.0,0.0,0.0,0.0,0.0,0.0,0.0,0.0,0.0,0.0,0.0,0.0,0.0,0.0,0.0,0.0,0.0,0.0,0.0,0.0,0.0,0.0,0.0,0.0,0.0,0.0,0.0,0.0,0.0,0.0,0.0,0.0,0.0,0.0,0.0,0.0,0.0,0.0,0.0,0.0,0.0,0.0,0.0,0.0,0.0,0.0,0.0,0.0,0.0,0.0,0.0,0.0,0.0,0.0,0.0,0.0,0.0,0.0,0.0,0.0,0.0,0.0,0.0,0.0,0.0,0.0,0.0,0.0,0.0,0.0,0.0,0.0,0.0,0.0,0.0,0.0,0.0,0.0,0.0,0.0,0.0,0.0,0.0,0.0,0.0,0.0,0.0,0.0,0.0,0.0,0.0,0.0,0.0,0.0,0.0,0.0,0.0,0.0,0.0,0.0,0.0,0.0,0.0,0.0,0.0,0.0,0.0,0.0,0.0,0.0,0.0,0.0,0.0,0.0,0.0,0.0,0.0,0.0,0.0,0.0,0.0,0.0,0.0,0.0,0.0,0.0,0.0,0.0,0.0,0.0,0.0,0.0,0.0,0.0,0.0,0.0,0.0,0.0,0.0,0.0,0.0,0.0,0.0,0.0,0.0,0.0,0.0,0.0,0.0,0.0,0.0,0.0,0.0,0.0,0.0,0.0,0.0,0.0,0.0,0.0,0.0,0.0,0.0,0.0,0.0,0.0,0.0,0.0,0.0,0.0,0.0,0.0,0.0,0.0,0.0,0.0,0.0,0.0,0.0,0.0,0.0,0.0,0.0,0.0,0.0,0.0,0.0,0.0,0.0,0.0,0.0,0.0,0.0,0.0,0.0,0.0,0.0,0.0,0.0,0.0,0.0,0.0,0.0,0.0,0.0,0.0,0.0,0.0,0.0,0.0,0.0,0.0,0.0,0.0,0.0,0.0,0.0,0.0,0.0,0.0,0.0,0.0,0.0,0.0,0.0,0.0,0.0,0.0,0.0,0.0,0.0,0.0,0.0,0.0,0.0,0.0,0.0,0.0,0.0,0.0,0.0,0.0,0.0,0.0,0.0,0.0,0.0,0.0,0.0,0.0,0.0,0.0,0.0,0.0,0.0,0.0,0.0,0.0,0.0,0.0,0.0,0.0,0.0,0.0,0.0,0.0,0.0,0.0,0.0,0.0,0.0,0.0,0.0,0.0,0.0,0.0,0.0,0.0,0.0,0.0,0.0,0.0,0.0,0.0,0.0,0.0,0.0,0.0,0.0,0.0,0.0,0.0,0.0,0.0,0.0,0.0,0.0,0.0,0.0,1.6841,0.0,0.0,0.0,0.0,0.0,0.0,0.0,0.0,0.0,0.0,0.0,0.0,0.0,0.0,0.0,0.0,0.0,0.0,0.0,0.0,0.0,0.0,0.0,0.0,0.0,0.0,0.0,0.0,0.0,0.0,0.0,0.0,0.0,0.0,0.0,0.0,0.0,0.0,0.0,0.0,0.0,0.0,0.0,0.0,0.0,0.0,0.0,0.0,0.0,0.0,0.0,0.0,0.0,0.0,0.0,0.0,0.0,0.0,0.0,0.0,0.0,0.0,0.0,0.0,0.0,0.0,0.0,0.0,0.0,0.0,0.0,0.0,0.0,0.0,0.0,0.0,0.0,0.0,0.0,0.0,0.0,0.0,0.0,0.0,0.0,0.0,0.0,0.0,0.0,0.0,0.0,0.0,0.0,0.0,0.0,0.0,0.0,0.0,0.0,0.0,0.0,0.0,0.0,0.0,0.0,0.0,0.0,0.0,0.0,0.0,1.7789,1.7789,1.7789,1.7496,1.6815,0.0,0.0,0.0,0.0,0.0,0.0,0.0,0.0,0.0,0.0,0.0,0.0,0.0,0.0,0.0,0.0,0.0,0.0,0.0,0.0,0.0,0.0,0.0,0.0,0.0,0.0,0.0,0.0,0.0,0.0,0.0,0.0,0.0,0.0,0.0,0.0,0.0,0.0,0.0,0.0,0.0,0.0,0.0,0.0,0.0,0.0,0.0,0.0,0.0,0.0,0.0,0.0,0.0,0.0,0.0,0.0,0.0,0.0,0.0,0.0,0.0,0.0,0.0,0.0,0.0,0.0,0.0,0.0,0.0,0.0,0.0,0.0,0.0,0.0,0.0,0.0,0.0,0.0,0.0,0.0,0.0,0.0,0.0,0.0,0.0,0.0,0.0,0.0,0.0,0.0,0.0,0.0,0.0,0.0,0.0,0.0,0.0,0.0,0.0,0.0,0.0,0.0,0.0,0.0,0.0,0.0,0.0,0.0,0.0,0.0,0.0,0.0,1.8002,1.7705,1.6918,0.0,0.0,0.0,0.0,0.0,0.0,0.0,0.0,0.0,0.0,0.0,0.0,0.0,0.0,0.0,0.0,0.0,0.0,0.0,0.0,0.0,0.0,0.0,0.0,0.0,0.0,0.0,0.0,0.0,0.0,0.0,0.0,0.0,0.0,0.0,0.0,0.0,0.0,0.0,0.0,0.0,0.0,0.0,0.0,0.0,0.0,0.0,0.0,0.0,0.0,0.0,0.0,0.0,0.0,0.0,0.0,0.0,0.0,0.0,0.0,0.0,0.0,0.0,0.0,0.0,0.0,0.0,0.0,0.0,0.0,0.0,0.0,0.0,0.0,0.0,0.0,0.0,0.0,0.0,0.0,0.0,0.0,0.0,0.0,0.0,0.0,0.0,0.0,0.0,0.0,0.0,0.0,0.0,0.0,0.0,0.0,0.0,0.0,0.0,0.0,0.0,0.0,0.0,0.0,0.0,0.0,0.0,0.0,0.0,0.0,1.7977,1.8344,1.8607,0.0,1.7289,0.0,0.0,0.0,0.0,0.0,0.0,0.0,0.0,0.0,0.0,0.0,0.0,0.0,0.0,0.0,0.0,0.0,0.0,0.0,0.0,0.0,0.0,0.0,0.0,0.0,0.0,0.0,0.0,0.0,0.0,0.0,0.0,0.0,0.0,0.0,0.0,0.0,0.0,0.0,0.0,0.0,0.0,0.0,0.0,0.0,0.0,0.0,0.0,0.0,0.0,0.0,0.0,0.0,0.0,0.0,0.0,0.0,0.0,0.0,0.0,0.0,0.0,0.0,0.0,0.0,0.0,0.0,0.0,0.0,0.0,0.0,0.0,0.0,0.0,0.0,0.0,0.0,0.0,0.0,0.0,0.0,0.0,0.0,0.0,0.0,0.0,0.0,0.0,0.0,0.0,0.0,0.0,0.0,0.0,0.0,0.0,0.0,0.0,0.0,0.0,0.0,0.0,0.0,0.0,0.0,0.0,0.0,0.0,0.0,0.0,1.8423,1.8348,1.8097,1.7479,0.0,0.0,0.0,0.0,0.0,0.0,0.0,0.0,0.0,0.0,0.0,0.0,0.0,0.0,0.0,0.0,0.0,0.0,0.0,0.0,0.0,0.0,0.0,0.0,0.0,0.0,0.0,0.0,0.0,0.0,0.0,0.0,0.0,0.0,0.0,0.0,0.0,0.0,0.0,0.0,0.0,0.0,0.0,0.0,0.0,0.0,0.0,0.0,0.0,0.0,0.0,0.0,0.0,0.0,0.0,0.0,0.0,0.0,0.0,0.0,0.0,0.0,0.0,0.0,0.0,0.0,0.0,0.0,0.0,0.0,0.0,0.0,0.0,0.0,0.0,0.0,0.0,0.0,0.0,0.0,0.0,0.0,0.0,0.0,0.0,0.0,0.0,0.0,0.0,0.0,0.0,0.0,0.0,0.0,0.0,0.0,0.0,0.0,0.0,0.0,0.0,0.0,0.0,0.0,0.0,0.0,0.0,0.0,0.0,0.0,1.8724,0.0,1.8601,1.7833,1.6862,1.5694,0.0,0.0,0.0,0.0,0.0,0.0,0.0,0.0,0.0,0.0,0.0,0.0,0.0,0.0,0.0,0.0,0.0,0.0,0.0,0.0,0.0,0.0,0.0,0.0,0.0,0.0,0.0,0.0,0.0,0.0,0.0,0.0,0.0,0.0,0.0,0.0,0.0,0.0,0.0,0.0,0.0,0.0,0.0,0.0,0.0,0.0,0.0,0.0,0.0,0.0,0.0,0.0,0.0,0.0,0.0,0.0,0.0,0.0,0.0,0.0,0.0,0.0,0.0,0.0,0.0,0.0,0.0,0.0,0.0,0.0,0.0,0.0,0.0,0.0,0.0,0.0,0.0,0.0,0.0,0.0,0.0,0.0,0.0,0.0,0.0,0.0,0.0,0.0,0.0,0.0,0.0,0.0,0.0,0.0,0.0,0.0,0.0,0.0,0.0,0.0,0.0,0.0,0.0,0.0,0.0,0.0,0.0,0.0,0.0,1.9191,1.9068,1.9398,1.8299,1.6949,0.0,0.0,0.0,0.0,0.0,0.0,0.0,0.0,0.0,0.0,0.0,0.0,0.0,0.0,0.0,0.0,0.0,0.0,0.0,0.0,0.0,0.0,0.0,0.0,0.0,0.0,0.0,0.0,0.0,0.0,0.0,0.0,0.0,0.0,0.0,0.0,0.0,0.0,0.0,0.0,0.0,0.0,0.0,0.0,0.0,0.0,0.0,0.0,0.0,0.0,0.0,0.0,0.0,0.0,0.0,0.0,0.0,0.0,0.0,0.0,0.0,0.0,0.0,0.0,0.0,0.0,0.0,0.0,0.0,0.0,0.0,0.0,0.0,0.0,0.0,0.0,0.0,0.0,0.0,0.0,0.0,0.0,0.0,0.0,0.0,0.0,0.0,0.0,0.0,0.0,0.0,0.0,0.0,0.0,0.0,0.0,0.0,0.0,0.0,0.0,0.0,0.0,0.0,0.0,0.0,0.0,0.0,0.0,0.0,1.8532,1.7897,1.8274,1.9586,1.725,1.5668,0.0,0.0,0.0,0.0,0.0,0.0,0.0,0.0,0.0,0.0,0.0,0.0,0.0,0.0,0.0,0.0,0.0,0.0,0.0,0.0,0.0,0.0,0.0,0.0,0.0,0.0,0.0,0.0,0.0,0.0,0.0,0.0,0.0,0.0,0.0,0.0,0.0,0.0,0.0,0.0,0.0,0.0,0.0,0.0,0.0,0.0,0.0,0.0,0.0,0.0,0.0,0.0,0.0,0.0,0.0,0.0,0.0,0.0,0.0,0.0,0.0,0.0,0.0,0.0,0.0,0.0,0.0,0.0,0.0,0.0,0.0,0.0,0.0,0.0,0.0,0.0,0.0,0.0,0.0,0.0,0.0,0.0,0.0,0.0,0.0,0.0,0.0,0.0,0.0,0.0,0.0,0.0,0.0,0.0,0.0,0.0,0.0,0.0,0.0,0.0,0.0,0.0,0.0,0.0,0.0,0.0,0.0,0.0,0.0,1.8126,0.0,1.8303,0.0,1.6763,1.5034,0.0,0.0,0.0,0.0,0.0,0.0,0.0,0.0,0.0,0.0,0.0,0.0,0.0,0.0,0.0,0.0,0.0,0.0,0.0,0.0,0.0,0.0,0.0,0.0,0.0,0.0,0.0,0.0,0.0,0.0,0.0,0.0,0.0,0.0,0.0,0.0,0.0,0.0,0.0,0.0,0.0,0.0,0.0,0.0,0.0,0.0,0.0,0.0,0.0,0.0,0.0,0.0,0.0,0.0,0.0,0.0,0.0,0.0,0.0,0.0,0.0,0.0,0.0,0.0,0.0,0.0,0.0,0.0,0.0,0.0,0.0,0.0,0.0,0.0,0.0,0.0,0.0,0.0,0.0,0.0,0.0,0.0,0.0,0.0,0.0,0.0,0.0,0.0,0.0,0.0,0.0,0.0,0.0,0.0,0.0,0.0,0.0,0.0,0.0,0.0,0.0,0.0,0.0,0.0,0.0,0.0,0.0,0.0,1.7456,1.8836,1.9507,1.9225,1.8071,1.7085,1.5184,0.0,0.0,0.0,0.0,0.0,0.0,0.0,0.0,0.0,0.0,0.0,0.0,0.0,0.0,0.0,0.0,0.0,0.0,0.0,0.0,0.0,0.0,0.0,0.0,0.0,0.0,0.0,0.0,0.0,0.0,0.0,0.0,0.0,0.0,0.0,0.0,0.0,0.0,0.0,0.0,0.0,0.0,0.0,0.0,0.0,0.0,0.0,0.0,0.0,0.0,0.0,0.0,0.0,0.0,0.0,0.0,0.0,0.0,0.0,0.0,0.0,0.0,0.0,0.0,0.0,0.0,0.0,0.0,0.0,0.0,0.0,0.0,0.0,0.0,0.0,0.0,0.0,0.0,0.0,0.0,0.0,0.0,0.0,0.0,0.0,0.0,0.0,0.0,0.0,0.0,0.0,0.0,0.0,0.0,0.0,0.0,0.0,0.0,0.0,0.0,0.0,0.0,0.0,0.0,0.0,0.0,0.0,0.0,0.0,1.8485,1.8243,1.8341,1.8733,1.6603,1.5183,0.0,0.0,0.0,0.0,0.0,0.0,0.0,0.0,0.0,0.0,0.0,0.0,0.0,0.0,0.0,0.0,0.0,0.0,0.0,0.0,0.0,0.0,0.0,0.0,0.0,0.0,0.0,0.0,0.0,0.0,0.0,0.0,0.0,0.0,0.0,0.0,0.0,0.0,0.0,0.0,0.0,0.0,0.0,0.0,0.0,0.0,0.0,0.0,0.0,0.0,0.0,0.0,0.0,0.0,0.0,0.0,0.0,0.0,0.0,0.0,0.0,0.0,0.0,0.0,0.0,0.0,0.0,0.0,0.0,0.0,0.0,0.0,0.0,0.0,0.0,0.0,0.0,0.0,0.0,0.0,0.0,0.0,0.0,0.0,0.0,0.0,0.0,0.0,0.0,0.0,0.0,0.0,0.0,0.0,0.0,0.0,0.0,0.0,0.0,0.0,0.0,0.0,0.0,0.0,0.0,0.0,0.0,0.0,0.0,1.9252,1.8728,1.8563,1.8887,1.6697,1.5404,1.5198,0.0,0.0,0.0,0.0,0.0,0.0,0.0,0.0,0.0,0.0,0.0,0.0,0.0,0.0,0.0,0.0,0.0,0.0,0.0,0.0,0.0,0.0,0.0,0.0,0.0,0.0,0.0,0.0,0.0,0.0,0.0,0.0,0.0,0.0,0.0,0.0,0.0,0.0,0.0,0.0,0.0,0.0,0.0,0.0,0.0,0.0,0.0,0.0,0.0,0.0,0.0,0.0,0.0,0.0,0.0,0.0,0.0,0.0,0.0,0.0,0.0,0.0,0.0,0.0,0.0,0.0,0.0,0.0,0.0,0.0,0.0,0.0,0.0,0.0,0.0,0.0,0.0,0.0,0.0,0.0,0.0,0.0,0.0,0.0,0.0,0.0,0.0,0.0,0.0,0.0,0.0,0.0,0.0,0.0,0.0,0.0,0.0,0.0,0.0,0.0,0.0,0.0,0.0,0.0,0.0,0.0,0.0,0.0,2.0957,2.0577,1.9785,1.861,1.7423,1.587,0.0,0.0,0.0,0.0,0.0,0.0,0.0,0.0,0.0,0.0,0.0,0.0,0.0,0.0,0.0,0.0,0.0,0.0,0.0,0.0,0.0,0.0,0.0,0.0,0.0,0.0,0.0,0.0,0.0,0.0,0.0,0.0,0.0,0.0,0.0,0.0,0.0,0.0,0.0,0.0,0.0,0.0,0.0,0.0,0.0,0.0,0.0,0.0,0.0,0.0,0.0,0.0,0.0,0.0,0.0,0.0,0.0,0.0,0.0,0.0,0.0,0.0,0.0,0.0,0.0,0.0,0.0,0.0,0.0,0.0,0.0,0.0,0.0,0.0,0.0,0.0,0.0,0.0,0.0,0.0,0.0,0.0,0.0,0.0,0.0,0.0,0.0,0.0,0.0,0.0,0.0,0.0,0.0,0.0,0.0,0.0,0.0,0.0,0.0,0.0,0.0,0.0,0.0,0.0,0.0,0.0,0.0,0.0,0.0,2.1627,2.147,2.0941,2.0125,1.8956,1.7518,0.0,0.0,0.0,0.0,0.0,0.0,0.0,0.0,0.0,0.0,0.0,0.0,0.0,0.0,0.0,0.0,0.0,0.0,0.0,0.0,0.0,0.0,0.0,0.0,0.0,0.0,0.0,0.0,0.0,0.0,0.0,0.0,0.0,0.0,0.0,0.0,0.0,0.0,0.0,0.0,0.0,0.0,0.0,0.0,0.0,0.0,0.0,0.0,0.0,0.0,0.0,0.0,0.0,0.0,0.0,0.0,0.0,0.0,0.0,0.0,0.0,0.0,0.0,0.0,0.0,0.0,0.0,0.0,0.0,0.0,0.0,0.0,0.0,0.0,0.0,0.0,0.0,0.0,0.0,0.0,0.0,0.0,0.0,0.0,0.0,0.0,0.0,0.0,0.0,0.0,0.0,0.0,0.0,0.0,0.0,0.0,0.0,0.0,0.0,0.0,0.0,0.0,0.0,0.0,0.0,0.0,0.0,0.0,2.133,2.2535,2.2762,2.2607,2.1949,2.0152,1.8631,0.0,0.0,0.0,0.0,0.0,0.0,0.0,0.0,0.0,0.0,0.0,0.0,0.0,0.0,0.0,0.0,0.0,0.0,0.0,0.0,0.0,0.0,0.0,0.0,0.0,0.0,0.0,0.0,0.0,0.0,0.0,0.0,0.0,0.0,0.0,0.0,0.0,0.0,0.0,0.0,0.0,0.0,0.0,0.0,0.0,0.0,0.0,0.0,0.0,0.0,0.0,0.0,0.0,0.0,0.0,0.0,0.0,0.0,0.0,0.0,0.0,0.0,0.0,0.0,0.0,0.0,0.0,0.0,0.0,0.0,0.0,0.0,0.0,0.0,0.0,0.0,0.0,0.0,0.0,0.0,0.0,0.0,0.0,0.0,0.0,0.0,0.0,0.0,0.0,0.0,0.0,0.0,0.0,0.0,0.0,0.0,0.0,0.0,0.0,0.0,0.0,0.0,0.0,0.0,0.0,0.0,0.0,0.0,2.2586,2.3388,2.4172,2.4283,2.3583,2.109,1.9296,0.0,0.0,0.0,0.0,0.0,0.0,0.0,0.0,0.0,0.0,0.0,0.0,0.0,0.0,0.0,0.0,0.0,0.0,0.0,0.0,0.0,0.0,0.0,0.0,0.0,0.0,0.0,0.0,0.0,0.0,0.0,0.0,0.0,0.0,0.0,0.0,0.0,0.0,0.0,0.0,0.0,0.0,0.0,0.0,0.0,0.0,0.0,0.0,0.0,0.0,0.0,0.0,0.0,0.0,0.0,0.0,0.0,0.0,0.0,0.0,0.0,0.0,0.0,0.0,0.0,0.0,0.0,0.0,0.0,0.0,0.0,0.0,0.0,0.0,0.0,0.0,0.0,0.0,0.0,0.0,0.0,0.0,0.0,0.0,0.0,0.0,0.0,0.0,0.0,0.0,0.0,0.0,0.0,0.0,0.0,0.0,0.0,0.0,0.0,0.0,0.0,0.0,0.0,0.0,0.0,0.0,0.0,0.0,2.2816,2.4066,2.4413,2.4311,2.3661,2.1325,1.9502,0.0,0.0,0.0,0.0,0.0,0.0,0.0,0.0,0.0,0.0,0.0,0.0,0.0,0.0,0.0,0.0,0.0,0.0,0.0,0.0,0.0,0.0,0.0,0.0,0.0,0.0,0.0,0.0,0.0,0.0,0.0,0.0,0.0,0.0,0.0,0.0,0.0,0.0,0.0,0.0,0.0,0.0,0.0,0.0,0.0,0.0,0.0,0.0,1.4513,0.0,0.0,0.0,0.0,0.0,0.0,0.0,0.0,0.0,0.0,0.0,0.0,0.0,0.0,0.0,0.0,0.0,0.0,0.0,0.0,0.0,0.0,0.0,0.0,0.0,0.0,0.0,0.0,0.0,0.0,0.0,0.0,0.0,0.0,0.0,0.0,0.0,0.0,0.0,0.0,0.0,0.0,0.0,0.0,0.0,0.0,0.0,0.0,0.0,0.0,0.0,0.0,0.0,0.0,0.0,0.0,0.0,0.0,0.0,2.3834,2.4863,2.5333,2.5094,2.4144,2.2066,2.0219,0.0,0.0,0.0,0.0,0.0,0.0,0.0,0.0,0.0,0.0,0.0,0.0,0.0,0.0,0.0,0.0,0.0,0.0,0.0,0.0,0.0,0.0,0.0,0.0,0.0,0.0,0.0,0.0,0.0,0.0,0.0,0.0,0.0,0.0,0.0,0.0,0.0,0.0,0.0,0.0,0.0,0.0,0.0,0.0,0.0,0.0,0.0,0.0,0.0,0.0,0.0,0.0,0.0,0.0,0.0,0.0,0.0,0.0,0.0,0.0,0.0,0.0,0.0,0.0,0.0,0.0,0.0,0.0,0.0,0.0,0.0,0.0,0.0,0.0,0.0,0.0,0.0,0.0,0.0,0.0,0.0,0.0,0.0,0.0,0.0,0.0,0.0,0.0,0.0,0.0,0.0,0.0,0.0,0.0,0.0,0.0,0.0,0.0,0.0,0.0,0.0,0.0,0.0,0.0,0.0,0.0,0.0,2.3056,2.4896,2.5734,2.6191,2.5855,2.4581,2.2824,2.0941,1.9035,0.0,0.0,0.0,0.0,0.0,0.0,0.0,0.0,0.0,0.0,0.0,0.0,0.0,0.0,0.0,0.0,0.0,0.0,0.0,0.0,0.0,0.0,0.0,0.0,0.0,0.0,0.0,0.0,0.0,0.0,0.0,0.0,0.0,0.0,0.0,0.0,0.0,0.0,1.5052,1.7076,0.0,0.0,0.0,0.0,0.0,0.0,0.0,0.0,1.5729,0.0,0.0,0.0,0.0,0.0,0.0,0.0,0.0,0.0,0.0,0.0,0.0,0.0,0.0,0.0,0.0,0.0,0.0,0.0,0.0,0.0,0.0,0.0,0.0,0.0,0.0,0.0,0.0,0.0,0.0,0.0,0.0,0.0,0.0,0.0,0.0,0.0,0.0,0.0,0.0,0.0,0.0,0.0,0.0,0.0,0.0,0.0,0.0,0.0,0.0,0.0,0.0,0.0,0.0,0.0,0.0,2.2892,2.349,2.4627,2.6393,2.5941,2.5113,2.3867,2.2417,2.0607,1.8418,0.0,0.0,0.0,0.0,0.0,0.0,0.0,0.0,0.0,0.0,0.0,0.0,0.0,0.0,0.0,0.0,0.0,0.0,0.0,0.0,0.0,0.0,0.0,0.0,0.0,0.0,0.0,0.0,0.0,0.0,0.0,0.0,0.0,0.0,0.0,0.0,0.0,0.0,0.0,1.8542,1.9301,0.0,0.0,0.0,0.0,0.0,0.0,0.0,0.0,1.5286,0.0,0.0,0.0,0.0,0.0,0.0,0.0,0.0,0.0,0.0,0.0,0.0,0.0,0.0,0.0,0.0,0.0,0.0,0.0,0.0,0.0,0.0,0.0,0.0,0.0,0.0,0.0,0.0,0.0,0.0,0.0,0.0,0.0,0.0,0.0,0.0,0.0,0.0,0.0,0.0,0.0,0.0,0.0,0.0,0.0,0.0,0.0,0.0,0.0,0.0,0.0,0.0,0.0,0.0,0.0,2.2996,2.4118,2.545,2.7021,2.6396,2.5303,2.3729,2.2423,2.0599,0.0,0.0,0.0,0.0,0.0,0.0,0.0,0.0,0.0,0.0,0.0,0.0,0.0,0.0,0.0,0.0,0.0,0.0,0.0,0.0,0.0,0.0,0.0,0.0,0.0,0.0,0.0,0.0,0.0,0.0,0.0,0.0,0.0,0.0,0.0,0.0,0.0,0.0,0.0,0.0,1.9232,1.9891,2.1051,0.0,0.0,0.0,0.0,0.0,0.0,1.7207,1.6176,0.0,0.0,0.0,0.0,0.0,0.0,0.0,0.0,0.0,0.0,0.0,0.0,0.0,0.0,0.0,0.0,0.0,0.0,0.0,0.0,0.0,0.0,0.0,0.0,0.0,0.0,0.0,0.0,0.0,0.0,0.0,0.0,0.0,0.0,0.0,0.0,0.0,0.0,0.0,0.0,0.0,0.0,0.0,0.0,0.0,0.0,0.0,0.0,0.0,0.0,0.0,0.0,0.0,0.0,0.0,2.2832,2.4537,2.6027,2.7268,2.6654,2.5406,2.3537,2.2268,2.0511,0.0,0.0,0.0,0.0,0.0,0.0,0.0,0.0,0.0,0.0,0.0,0.0,0.0,0.0,0.0,0.0,0.0,0.0,0.0,0.0,0.0,0.0,0.0,0.0,0.0,0.0,0.0,0.0,0.0,0.0,0.0,0.0,0.0,0.0,0.0,0.0,0.0,0.0,0.0,0.0,0.0,2.0822,2.1126,2.004,0.0,0.0,0.0,0.0,1.9339,1.8211,0.0,0.0,0.0,0.0,0.0,0.0,0.0,0.0,0.0,0.0,0.0,0.0,0.0,0.0,0.0,0.0,0.0,0.0,0.0,0.0,0.0,0.0,0.0,0.0,0.0,0.0,0.0,0.0,0.0,0.0,0.0,0.0,0.0,0.0,0.0,0.0,0.0,0.0,0.0,0.0,0.0,0.0,0.0,0.0,0.0,0.0,0.0,0.0,0.0,0.0,0.0,0.0,0.0,0.0,0.0,0.0,2.3385,2.4313,2.5313,2.65,2.5906,2.4641,2.2764,2.1521,1.9989,0.0,0.0,0.0,0.0,0.0,0.0,0.0,0.0,0.0,0.0,0.0,0.0,0.0,0.0,0.0,0.0,0.0,0.0,0.0,0.0,0.0,0.0,0.0,0.0,0.0,0.0,0.0,0.0,0.0,0.0,0.0,0.0,0.0,0.0,0.0,0.0,0.0,0.0,0.0,0.0,0.0,2.2564,2.1346,2.1573,2.1485,0.0,0.0,2.007,1.9883,1.8931,0.0,0.0,0.0,0.0,0.0,0.0,0.0,0.0,0.0,0.0,0.0,0.0,0.0,0.0,0.0,0.0,0.0,0.0,0.0,0.0,0.0,0.0,0.0,0.0,0.0,0.0,0.0,0.0,0.0,0.0,0.0,0.0,0.0,0.0,0.0,0.0,0.0,0.0,0.0,0.0,0.0,0.0,0.0,0.0,0.0,0.0,0.0,0.0,0.0,0.0,0.0,0.0,0.0,0.0,0.0,2.0833,2.3492,2.4602,2.5552,2.64,2.5342,2.4104,2.2658,2.104,1.9409,0.0,0.0,0.0,0.0,0.0,0.0,0.0,0.0,0.0,0.0,0.0,0.0,0.0,0.0,0.0,0.0,0.0,0.0,0.0,0.0,0.0,0.0,0.0,0.0,0.0,0.0,0.0,0.0,0.0,0.0,0.0,0.0,0.0,0.0,0.0,0.0,0.0,0.0,0.0,0.0,0.0,0.0,2.1837,2.1699,0.0,0.0,0.0,2.0448,2.0677,0.0,0.0,0.0,0.0,0.0,0.0,0.0,0.0,0.0,0.0,0.0,0.0,0.0,0.0,0.0,0.0,0.0,0.0,0.0,0.0,0.0,0.0,0.0,0.0,0.0,0.0,0.0,0.0,0.0,0.0,0.0,0.0,0.0,0.0,0.0,0.0,0.0,0.0,0.0,0.0,0.0,0.0,0.0,0.0,0.0,0.0,0.0,0.0,0.0,0.0,0.0,0.0,0.0,0.0,0.0,0.0,0.0,2.3319,2.4747,2.5626,2.5918,2.4851,2.3681,2.2335,2.0692,0.0,0.0,0.0,0.0,0.0,0.0,0.0,0.0,0.0,0.0,0.0,0.0,0.0,0.0,0.0,0.0,0.0,0.0,0.0,0.0,0.0,0.0,0.0,0.0,0.0,0.0,0.0,0.8604,0.0,0.0,0.0,0.0,0.0,0.0,0.0,0.0,0.0,0.0,0.0,0.0,0.0,0.0,2.2046,2.2089,2.2059,2.2151,0.0,0.0,2.0879,2.1126,2.0707,1.9863,0.0,0.0,0.0,0.0,0.0,0.0,0.0,0.0,0.0,0.0,0.0,0.0,0.0,0.0,0.0,0.0,0.0,0.0,0.0,0.0,0.0,0.0,0.0,0.0,0.0,0.0,0.0,0.0,0.0,0.0,0.0,0.0,0.0,0.0,0.0,0.0,0.0,0.0,0.0,0.0,0.0,0.0,0.0,0.0,0.0,0.0,0.0,0.0,0.0,0.0,0.0,0.0,0.0,0.0,0.0,2.2589,2.4503,2.5138,2.4483,2.4337,2.3441,2.1617,2.0441,1.9045,0.0,0.0,0.0,0.0,0.0,0.0,0.0,0.0,0.0,0.0,0.0,0.0,0.0,0.0,0.0,0.0,0.0,0.0,0.0,0.0,0.0,0.0,0.0,0.0,0.0,0.0,0.0,0.0,0.0,0.0,0.0,0.0,0.0,0.0,0.0,0.0,0.0,0.0,0.0,0.0,0.0,2.3597,2.1796,2.3293,2.4016,0.0,2.2245,2.1842,2.0896,2.0715,2.0025,1.8062,0.0,0.0,0.0,0.0,0.0,0.0,0.0,0.0,0.0,0.0,0.0,0.0,0.0,0.0,0.0,0.0,0.0,0.0,0.0,0.0,0.0,0.0,0.0,0.0,0.0,0.0,0.0,0.0,0.0,0.0,0.0,0.0,0.0,0.0,0.0,0.0,0.0,0.0,0.0,0.0,0.0,0.0,0.0,0.0,0.0,0.0,0.0,0.0,0.0,0.0,0.0,0.0,0.0,2.0998,2.2469,2.4422,2.5053,2.4323,2.3826,2.289,2.1518,2.0388,1.9032,0.0,0.0,0.0,0.0,0.0,0.0,0.0,0.0,0.0,0.0,0.0,0.0,0.0,0.0,0.0,0.0,0.0,0.0,0.0,0.0,0.0,0.0,0.0,0.0,0.0,0.0,0.0,0.0,1.2044,1.2074,1.147,0.0,0.0,0.0,0.0,0.0,0.0,0.0,0.0,0.0,0.0,2.3597,2.2963,2.3762,0.0,0.0,2.2674,2.2254,2.1449,2.1321,2.0498,1.8071,1.7264,0.0,0.0,0.0,0.0,0.0,0.0,0.0,0.0,0.0,0.0,0.0,0.0,0.0,0.0,0.0,0.0,0.0,0.0,0.0,0.0,0.0,0.0,0.0,0.0,0.0,0.0,0.0,0.0,0.0,0.0,0.0,0.0,0.0,0.0,0.0,0.0,0.0,0.0,0.0,0.0,0.0,0.0,0.0,0.0,0.0,0.0,0.0,0.0,0.0,0.0,0.0,0.0,2.067,2.1946,2.3996,2.4724,2.3943,2.3378,2.2611,2.1518,2.0564,1.9221,0.0,0.0,0.0,0.0,0.0,0.0,0.0,0.0,0.0,0.0,0.0,0.0,0.0,0.0,0.0,0.0,0.0,0.0,0.0,0.0,0.0,0.0,0.0,0.0,0.0,0.0,0.0,0.0,1.3331,1.2987,1.1655,0.0,0.0,0.0,0.0,0.0,0.0,0.0,0.0,0.0,0.0,2.3621,2.3608,2.3983,2.4067,2.3467,2.302,2.2458,2.1784,2.1545,2.0617,1.8354,0.0,0.0,0.0,0.0,0.0,0.0,0.0,0.0,0.0,0.0,0.0,0.0,0.0,0.0,0.0,0.0,0.0,0.0,0.0,0.0,0.0,0.0,0.0,0.0,0.0,0.0,0.0,1.6547,0.0,0.0,1.5731,0.0,0.0,0.0,0.0,0.0,0.0,0.0,0.0,0.0,0.0,0.0,0.0,0.0,0.0,0.0,0.0,0.0,0.0,0.0,0.0,0.0,0.0,1.9787,2.0673,2.3105,2.3943,2.3185,2.3125,2.2623,2.1543,2.0995,1.9661,1.7471,0.0,0.0,0.0,0.0,0.0,0.0,0.0,0.0,0.0,0.0,0.0,0.0,0.0,0.0,0.0,0.0,0.0,0.0,0.0,0.0,0.0,0.0,0.0,0.0,0.0,0.0,1.3795,1.3196,1.2314,0.0,0.0,0.0,0.0,0.0,0.0,0.0,0.0,0.0,0.0,2.2216,2.3887,2.3421,2.3955,2.4179,2.3679,2.3098,2.2458,2.1799,2.1186,2.0273,0.0,0.0,0.0,0.0,0.0,0.0,0.0,0.0,0.0,0.0,0.0,0.0,0.0,0.0,0.0,0.0,0.0,0.0,0.0,0.0,0.0,0.0,0.0,0.0,0.0,0.0,0.0,1.8191,1.8106,0.0,0.0,0.0,0.0,0.0,0.0,0.0,0.0,0.0,0.0,0.0,1.9615,1.9747,0.0,0.0,0.0,0.0,0.0,0.0,0.0,0.0,0.0,0.0,0.0,0.0,2.0241,2.1193,2.3201,2.3884,2.3125,2.3125,2.2786,2.2058,2.1142,1.9334,1.6358,0.0,0.0,0.0,0.0,0.0,0.0,0.0,0.0,0.0,0.0,0.0,0.0,0.0,0.0,0.0,0.0,0.0,0.0,0.0,0.0,0.0,0.0,0.0,0.0,0.0,1.4453,0.0,0.0,0.0,0.0,0.0,0.0,0.0,0.0,0.0,0.0,0.0,1.9528,2.0751,2.2762,2.4094,2.4027,2.4234,2.4225,0.0,0.0,0.0,0.0,0.0,0.0,0.0,0.0,0.0,0.0,0.0,0.0,0.0,0.0,1.9247,1.712,1.6374,1.5989,1.5814,0.0,0.0,0.0,0.0,0.0,0.0,0.0,0.0,0.0,0.0,0.0,0.0,0.0,0.0,1.971,0.0,1.9309,0.0,0.0,0.0,0.0,0.0,0.0,0.0,0.0,2.0288,2.113,2.1502,2.1565,2.1436,0.0,2.0345,1.9058,0.0,0.0,0.0,0.0,0.0,0.0,0.0,0.0,2.021,2.1202,2.2975,2.3649,2.3138,2.3125,2.2802,2.2322,2.1054,1.9258,1.6923,1.6296,1.5404,0.0,0.0,0.0,0.0,0.0,0.0,0.0,0.0,0.0,0.0,0.0,0.0,0.0,0.0,0.0,0.0,0.0,0.0,0.0,0.0,0.0,0.0,0.0,1.5052,0.0,0.0,0.0,0.0,0.0,0.0,0.0,0.0,0.0,1.6758,1.8563,2.0369,2.1719,2.3057,2.3989,2.4081,0.0,0.0,0.0,0.0,0.0,0.0,0.0,2.1395,2.0528,2.0378,2.0303,2.0079,2.0602,2.0903,2.0523,0.0,0.0,1.8266,1.7653,1.7452,1.7295,1.7635,1.785,1.7358,1.7731,1.7991,0.0,0.0,0.0,0.0,0.0,0.0,0.0,0.0,2.092,2.1184,0.0,2.0966,0.0,0.0,0.0,0.0,1.8417,1.9936,0.0,0.0,2.2636,2.3145,2.318,2.3208,2.2886,2.245,2.285,2.2272,2.0693,1.7526,0.0,0.0,0.0,0.0,0.0,0.0,1.961,2.0797,2.2355,2.3125,2.3125,2.3125,2.2862,2.2272,2.0727,1.9597,1.8933,1.7463,1.6333,1.5718,1.4137,0.0,0.0,0.0,0.0,0.0,0.0,0.0,0.0,0.0,0.0,0.0,0.0,0.0,0.0,0.0,0.0,0.0,0.0,0.0,0.0,1.5409,0.0,0.0,0.0,0.0,0.0,0.0,0.0,0.0,0.0,0.0,1.8837,1.9974,2.1246,2.2529,0.0,0.0,0.0,0.0,2.364,2.3684,2.3146,2.2798,2.2753,2.2158,2.1724,2.1724,0.0,0.0,2.0932,2.1335,2.156,2.0902,2.1345,2.1446,2.047,1.9801,1.9331,1.8929,1.8856,1.8807,1.8837,1.9281,1.9636,2.428,0.0,0.0,0.0,0.0,2.2535,2.3565,2.531,2.413,2.3715,2.3791,2.2435,0.0,0.0,0.0,0.0,0.0,0.0,2.2146,2.2711,2.3816,2.4507,2.4869,2.4887,2.4822,2.4652,2.4027,2.3502,2.2975,2.1267,1.9221,1.6948,0.0,0.0,0.0,0.0,2.0739,2.1856,2.2647,2.3125,2.3125,2.3125,2.2686,2.1757,2.1267,2.0376,1.9021,1.8507,1.7677,1.6333,1.5454,0.0,0.0,0.0,0.0,0.0,0.0,0.0,0.0,0.0,0.0,0.0,0.0,0.0,0.0,0.0,0.0,0.0,0.0,0.0,1.4707,1.5409,1.5544,0.0,0.0,0.0,0.0,0.0,0.0,0.0,0.0,0.0,2.1291,2.1874,2.2263,0.0,0.0,2.3774,2.4268,2.4343,2.4507,2.4956,2.4492,0.0,2.3415,2.2802,2.2398,2.2439,2.2757,2.2996,2.2802,2.2921,2.2847,2.2218,2.2278,2.2194,2.1461,2.1152,2.0978,2.088,2.0842,2.0827,2.0842,2.0662,2.0423,2.6954,2.5244,2.4017,2.4042,2.4946,2.4833,2.5724,2.7218,2.6226,2.5925,2.605,2.4833,2.3678,2.2573,2.1807,0.0,0.0,0.0,2.4042,2.4808,2.5485,2.6043,2.6599,2.6571,2.6502,2.6258,2.541,2.4858,2.4619,2.3728,2.2071,1.9736,0.0,0.0,1.9523,2.0752,2.1863,2.2955,2.3305,2.3477,2.3464,2.319,2.2611,2.1531,2.1481,2.0815,1.9397,1.9133,1.8507,1.7493,1.6547,1.5454,0.0,0.0,0.0,0.0,0.0,0.0,0.0,0.0,0.0,0.0,0.0,1.2249,0.9875,0.0,0.0,0.0,1.4008,1.5203,1.5904,1.6308,0.0,0.0,0.0,0.0,0.0,0.0,0.0,1.9854,2.0198,2.0976,2.2802,2.3281,2.3445,2.346,2.3774,2.4253,2.4926,0.0,2.5151,2.5555,2.5061,2.4433,2.4073,2.346,2.3041,2.3041,2.334,2.358,2.3595,2.3595,2.346,2.3146,2.3041,2.2921,2.2517,2.2458,2.2263,2.1799,2.1695,2.1695,2.1695,2.1365,2.1036,2.9038,2.8863,2.7344,2.676,2.6703,2.7205,2.7431,2.7469,2.7431,2.7695,2.8122,2.7544,2.6678,2.5611,2.4682,0.0,2.5034,2.5561,2.6339,2.7344,2.7381,2.7657,2.8097,2.8134,2.7889,2.7329,2.6854,2.6302,2.5724,2.5247,2.4443,2.3301,2.1807,2.131,2.1631,2.2171,2.2987,2.4029,2.4054,2.4042,2.3979,2.3427,2.2598,2.1531,2.1481,2.0953,1.9836,1.9346,1.8995,1.8858,1.7443,1.6371,1.568,0.0,0.0,0.0,0.0,0.0,0.0,0.0,0.0,0.0,0.0,0.0,0.0,0.0,0.0,0.0,1.5681,0.0,1.7623,1.7709,0.0,0.0,0.0,1.653,1.7748,1.845,1.9379,2.0706,0.0,0.0,2.367,2.4253,2.4627,2.4716,2.4732,2.4941,2.5585,2.5689,2.5704,2.5824,2.5181,2.4686,2.4687,2.4044,2.3535,2.3535,2.3595,2.3595,2.3595,2.3595,2.3595,2.3565,2.3595,2.3565,2.358,2.352,2.3221,2.2099,2.1904,2.1874,2.1934,2.1859,2.1605,2.9967,2.9566,2.9164,2.875,2.836,2.8486,2.8787,2.9139,2.8737,2.8612,2.8674,2.7708,2.6904,2.6319,2.6427,2.6578,2.6716,2.7256,2.7657,2.7934,2.8348,2.8386,2.8134,2.8536,2.845,2.7914,2.7765,2.7431,2.6892,2.6753,2.6126,2.5046,2.4607,2.3866,2.2811,2.3314,2.3941,2.4619,2.4632,2.4418,2.4004,2.3439,2.2611,2.1518,2.1481,2.0966,1.9849,1.9673,1.9246,1.8442,1.8028,1.7174,1.5756,1.4437,0.0,0.0,0.0,0.0,0.0,0.0,0.0,0.0,0.0,1.5442,1.185,0.0,1.6548,0.0,1.6652,1.7518,1.7682,1.7773,0.0,0.0,1.8158,1.8377,1.921,1.9855,2.0715,2.2062,2.252,2.3295,2.4926,2.4837,2.5016,2.5959,2.5689,2.5615,2.6258,2.6348,2.6542,2.6871,2.6078,2.539,2.5241,2.4358,2.3595,2.3595,2.3595,2.3595,2.3595,2.3595,2.3595,2.3595,2.3595,2.3595,2.3595,2.3595,2.352,2.3206,2.3146,2.3146,2.3146,2.2787,2.2424,3.045,2.9726,2.9995,2.9382,2.8171,2.8929,2.9235,2.8991,2.8697,2.8317,2.7813,2.7227,2.682,2.6494,2.6844,2.7203,2.7691,2.7973,2.836,2.8875,2.9176,2.9151,2.8863,2.9176,2.8984,2.846,2.8487,2.8185,2.767,2.7657,2.7205,2.6364,2.6352,2.5762,2.4669,2.4682,2.4983,2.5536,2.5059,2.4556,2.4004,2.3427,2.2611,2.1543,2.1481,2.0853,1.951,1.9447,1.907,1.8267,1.7978,1.7413,1.6484,1.5193,1.4072,0.0,0.0,0.0,0.0,0.0,0.0,0.0,0.0,0.0,0.0,0.0,1.755,1.7116,1.7752,1.8438,1.8994,1.8831,1.8831,1.9207,1.9458,1.986,2.0539,2.1115,2.1861,2.2879,2.2979,2.3656,2.533,2.5276,2.5505,2.6837,2.6722,2.6602,2.6931,2.7036,2.7156,2.7505,2.6452,2.536,2.4852,2.4103,2.3595,2.3595,2.3595,2.3595,2.3595,2.3595,2.3595,2.3595,2.3595,2.3595,2.3595,2.3595,2.3595,2.3595,2.3595,2.3595,2.3595,2.334,2.3026,3.0396,2.9437,2.9967,2.9082,2.733,2.8787,2.884,2.7936,2.7936,2.7371,2.6483,2.6483,2.6483,2.6483,2.6483,2.7046,2.7844,2.7936,2.8438,2.9378,2.9534,2.9599,2.9537,2.9599,2.9356,2.8991,2.8859,2.86,2.8222,2.821,2.7934,2.7406,2.7318,2.7042,2.6634,2.6,2.5963,2.6508,2.5435,2.4657,2.4117,2.354,2.2686,2.1556,2.1418,2.0639,1.9071,1.9032,1.8769,1.8229,1.7739,1.7496,1.735,1.5856,1.4765,0.0,1.3421,0.0,0.0,0.0,0.0,0.0,0.0,0.0,0.0,1.7253,1.8239,1.8903,1.9003,1.9518,2.0684,2.0321,2.0021,2.0003,2.0427,2.0948,2.1559,2.2047,2.2641,2.3344,2.3396,2.3951,2.526,2.542,2.585,2.696,2.7268,2.7193,2.7309,2.7405,2.7565,2.752,2.6333,2.497,2.3866,2.3509,2.3465,2.3465,2.3465,2.3465,2.345,2.3566,2.3595,2.3595,2.3595,2.3595,2.3595,2.3595,2.3595,2.3595,2.3595,2.3595,2.3595,2.358,2.3385,2.8726,2.8079,2.8162,2.8042,2.7565,2.7606,2.7341,2.6801,2.6801,2.6719,2.6483,2.6483,2.6483,2.6483,2.6483,2.6648,2.6801,2.6812,2.6883,2.7139,2.8028,2.844,2.8407,2.844,2.8834,2.9549,2.8724,2.8407,2.8775,2.8775,2.8499,2.7946,2.7507,2.7231,2.7105,0.0,0.0,0.0,2.5799,2.5197,2.4669,2.4117,2.3088,2.1556,2.1054,0.0,1.9108,1.9032,1.8781,1.8242,1.8103,0.0,0.0,0.0,0.0,0.0,0.0,0.0,0.0,0.0,0.0,0.0,1.7912,1.7989,1.6985,1.8381,1.9642,2.0182,2.0274,2.0543,2.1184,2.1233,2.1178,2.1191,2.1276,2.1368,2.1537,2.2046,2.263,2.3296,2.3392,2.3937,2.5146,2.4952,2.4922,2.5737,2.6336,2.6437,2.5981,2.6834,2.735,2.6811,2.555,2.4341,2.3036,2.2875,2.2875,2.2889,2.2875,2.2875,2.2875,2.3275,2.3595,2.3551,2.3595,2.3595,2.3595,2.3595,2.3595,2.3595,2.3595,2.3595,2.3595,2.3595,2.343,2.8429,2.7655,2.8033,2.7488,0.0,2.6558,2.6128,2.5459,2.5583,2.5389,2.4808,2.4808,2.4808,2.4808,2.4808,2.5147,2.563,2.563,2.5975,2.6565,2.7046,2.7322,2.7275,2.7277,2.7568,2.8163,2.8125,2.8191,2.8533,2.911,2.9063,2.8499,2.7971,2.7557,2.7281,2.6728,2.6521,2.6521,2.5887,2.5347,2.482,2.428,2.3326,2.1945,2.1368,0.0,0.0,0.0,0.0,0.0,0.0,0.0,0.0,0.0,0.0,1.6534,1.6414,1.6503,1.6873,1.7055,1.7593,1.8541,1.933,1.9634,1.9225,2.0048,2.0811,2.1431,2.1224,2.1255,2.1792,2.1668,2.1463,2.1501,2.1711,2.1895,2.1977,2.2407,2.2891,2.318,2.3228,2.3689,2.4714,2.4595,2.4517,2.486,2.5252,2.5321,2.4901,2.5771,2.6226,2.493,2.4168,2.3335,2.2441,2.2193,2.2207,2.2207,2.2207,2.2207,2.2193,2.2469,2.2756,2.3054,2.3157,2.3231,2.3551,2.3595,2.3595,2.3595,2.3595,2.3595,2.3595,2.3595,2.3415,2.8132,2.7274,2.7888,2.7001,2.5241,2.5706,2.5381,2.4447,2.4604,0.0,0.0,2.3144,2.3144,2.3144,2.3144,2.3627,2.4457,2.4457,2.5041,2.5891,2.6141,2.6192,2.62,2.6225,2.6264,2.6563,2.7378,2.7936,2.8176,2.9287,2.9553,2.9076,2.8524,2.7921,2.7293,2.6728,2.6521,2.6508,2.5988,2.5448,2.4833,2.4381,2.3552,2.2347,2.1782,2.1004,1.9999,1.9547,1.9108,1.8656,1.8543,1.8543,1.8631,1.8455,1.8392,1.848,1.8493,1.8731,1.9271,1.9321,1.9585,2.02,2.0677,2.113,2.1389,2.1448,2.169,2.2318,2.1917,2.1888,2.2447,2.2094,2.1782,2.1782,2.2184,2.246,2.2485,2.279,2.3088,2.3125,2.3088,2.3365,2.4002,2.4047,2.4121,2.4216,2.4464,2.4228,2.3782,2.4408,2.4526,2.3053,2.2665,2.2311,2.1719,2.152,2.152,2.152,2.1534,2.1534,2.1568,2.1602,2.1899,2.2452,2.2543,2.2725,2.3128,2.3319,2.3421,2.3421,2.3566,2.3595,2.3595,2.3505,2.3206,2.611,2.6014,2.6041,2.5925,2.5605,2.5356,2.4943,2.4385,2.4077,2.3664,2.3144,2.3144,2.3144,2.3144,2.3144,2.3222,2.3299,2.3299,2.3387,2.3637,2.4638,2.5073,2.5005,2.5062,2.5573,2.6443,2.6652,2.7209,2.8176,2.9197,2.9754,2.9603,2.9101,2.8298,2.7318,2.6798,2.6521,2.6521,2.6377,2.5837,2.4858,2.4745,2.3941,2.2385,2.1794,2.1204,2.063,2.0476,2.0454,2.0313,1.9836,1.9811,2.0303,1.9434,1.9108,1.9522,1.9572,1.9836,2.0388,2.0492,2.0878,2.1845,2.2033,2.1901,2.1513,2.1462,2.1746,2.2223,2.2204,2.2412,2.293,2.2921,2.2824,2.2862,2.2902,2.3012,2.2987,2.3002,2.3125,2.3125,2.3125,2.3125,2.3305,2.3305,2.3327,2.3403,2.3673,2.3883,2.2951,2.2971,2.277,2.2123,2.1888,2.1561,2.1091,2.093,2.093,2.093,2.093,2.093,2.093,2.1245,2.1602,2.1805,2.1852,2.1946,2.2072,2.2438,2.283,2.2979,2.329,2.3595,2.358,2.3206,2.2664,2.5732,2.5732,2.5732,2.5732,2.5713,2.5518,2.5185,2.4756,2.457,2.4102,2.3516,2.3496,2.3359,2.3144,2.3144,2.3144,2.3144,2.3144,2.3144,2.3135,2.3637,2.3881,2.3837,2.3871,2.4125,2.4641,2.5296,2.5797,2.6356,2.7452,2.8291,2.8821,2.8884,2.8373,2.7344,2.703,2.6766,2.6533,2.6521,2.6063,2.5259,2.4971,2.4305,2.3238,2.2397,2.182,2.1568,2.128,2.1104,2.1117,2.0865,2.084,2.1066,2.0639,2.0476,2.0702,2.0715,2.0966,2.1531,2.1832,2.2221,2.2711,2.2761,2.2661,2.241,2.2385,2.2485,2.2723,2.2761,2.2862,2.3053,2.3125,2.3125,2.3125,2.3125,2.3125,2.3125,2.3125,2.3125,2.3125,2.3125,2.3125,2.3125,2.3125,2.2927,2.2736,2.2649,2.2047,2.1301,2.1133,2.1077,2.0759,2.0677,2.056,2.0295,2.0258,2.0245,2.0258,2.0258,2.0258,2.0258,2.0521,2.0805,2.1161,2.121,2.1534,2.2007,2.2452,2.2785,2.3187,2.3377,2.3595,2.3505,2.2847,2.1964,2.5732,2.5732,2.5732,2.5732,2.5732,2.5732,2.5527,2.5225,2.5215,2.4834,2.4127,2.3926,2.3603,2.3291,2.3184,2.3144,2.3144,2.3144,2.3144,2.3144,2.3144,2.3144,2.3144,2.3144,2.3144,2.3222,2.4286,2.4798,2.4957,2.5975,2.7046,2.8036,2.8387,2.8201,2.7482,2.7344,2.7017,2.6559,2.6521,2.6176,2.5611,2.5197,2.4732,2.4167,2.3213,2.2698,2.2661,2.2159,2.1857,2.1857,2.1744,2.1732,2.1845,2.1744,2.1719,2.1845,2.187,2.2108,2.2661,2.3201,2.3453,2.3514,2.3453,2.3453,2.3514,2.3453,2.3389,2.3188,2.3113,2.3125,2.3125,2.3125,2.3125,2.3125,2.3125,2.3125,2.3125,2.3125,2.3125,2.3125,2.3125,2.3125,2.3125,2.3125,2.2987,2.2523,2.1644,2.084,2.0313,2.01,1.9974,1.9823,1.9798,1.985,1.9798,1.985,1.985,1.9798,1.985,1.985,1.985,1.985,2.0003,2.0497,2.0547,2.0881,2.1771,2.23,2.2529,2.2935,2.326,2.355,2.331,2.2682,2.1695,2.5732,2.5732,2.5732,2.5732,2.5732,2.5732,2.5703,2.5664,2.5674,2.5392,2.489,2.4185,2.3789,2.3682,2.332,2.3154,2.3144,2.3144,2.3144,2.3144,2.3144,2.3144,2.3144,2.3144,2.3144,2.3222,2.4211,2.4713,2.4787,2.588,2.7035,2.7945,2.7651,2.7685,2.79,2.7544,2.703,2.6533,2.6521,2.6189,2.5636,2.5548,2.5272,2.4757,2.4155,2.3841,2.3729,2.3288,2.2927,2.2877,2.2464,2.2485,2.2815,2.2523,2.2472,2.2877,2.2927,2.3238,2.3803,2.4343,2.4619,2.4669,2.4607,2.4607,2.4607,2.4632,2.4205,2.3391,2.3163,2.3175,2.3138,2.3078,2.3125,2.3125,2.3125,2.3125,2.3125,2.3125,2.3125,2.3125,2.3125,2.3125,2.3125,2.3125,2.304,2.2912,2.2284,2.1656,2.1129,2.0665,2.0315,1.9924,1.9798,1.9798,1.9798,1.9798,1.9798,1.9798,1.9798,1.9798,1.9798,1.9798,1.985,2.0003,2.0003,2.0144,2.0484,2.0939,2.1805,2.2331,2.2892,2.3445,2.2993,2.2679,2.2084,2.5732,2.5732,2.5732,2.5732,2.5732,2.5732,2.5732,2.5732,2.5732,2.5606,2.5392,2.4873,2.4268,2.3779,2.3603,2.3389,2.3067,2.3144,2.3144,2.3144,2.3144,2.3144,2.3144,2.3144,2.3144,2.3135,2.3551,2.379,2.3963,2.4957,2.6036,2.7023,2.6909,2.7368,2.8363,2.7422,2.6894,2.6942,2.6033,2.5472,2.531,2.5493,2.5498,2.5181,2.4214,2.3583,2.3506,2.2823,2.2639,2.3168,2.3038,2.3278,2.4054,2.3916,2.3891,2.4104,2.413,2.423,2.4469,2.4707,2.4833,2.4833,2.4833,2.4833,2.4833,2.4833,2.4607,2.4205,2.3841,2.364,2.3615,2.3351,2.3125,2.3125,2.3125,2.3125,2.3125,2.3125,2.3125,2.3125,2.3125,2.3125,2.3125,2.3125,2.2927,2.2686,2.2184,2.1707,2.1104,2.0514,2.01,1.9874,1.9798,1.9798,1.9798,1.9798,1.9798,1.9798,1.9798,1.9798,1.9798,1.9798,1.9798,1.9798,1.9798,2.0003,2.0446,2.0733,2.1307,2.2007,2.2817,2.3415,2.2802,2.2682,2.2248,2.5732,2.5732,2.5732,2.5732,2.5732,2.5732,2.5732,2.5732,2.5732,2.5732,2.5703,2.5391,2.4766,2.4023,2.3848,2.3555,2.3174,2.3144,2.3144,2.3144,2.3144,2.3144,2.3144,2.3144,2.3144,2.3144,2.3135,2.3135,2.3222,2.3877,2.4882,2.5891,2.6058,2.6875,2.813,2.69,2.6375,2.6672,2.5338,2.4564,2.4648,2.4891,2.503,2.4925,2.3831,2.3152,2.3152,2.2332,2.2195,2.2875,2.3156,2.3634,2.4329,2.4613,2.4833,2.4845,2.4958,2.5034,2.5021,2.5172,2.5272,2.5259,2.5272,2.5272,2.5272,2.5272,2.5272,2.5234,2.4757,2.4368,2.3966,2.3615,2.3326,2.3175,2.3125,2.3125,2.3125,2.3125,2.3125,2.3125,2.3125,2.3125,2.3125,2.3125,2.3,2.2636,2.2246,2.1644,2.1054,2.0577,2.0238,1.9874,1.9798,1.9798,1.9798,1.9798,1.9798,1.9798,1.9798,1.9798,1.9798,1.9798,1.9798,1.9798,1.9798,2.0003,2.0497,2.0858,2.1237,2.236,2.3128,2.3432,2.3116,2.2966,2.2772,2.5732,2.5732,2.5732,2.5732,2.5732,2.5732,2.5732,2.5732,2.5732,2.5732,2.5732,2.5703,2.5205,2.4355,2.3984,2.3555,2.3174,2.3144,2.3144,2.3144,2.3144,2.3144,2.3144,2.3144,2.3144,2.3144,2.3144,2.3144,2.3144,2.3222,2.3714,2.4872,2.4872,2.5711,2.6956,2.5922,2.5383,2.5713,2.4441,2.3621,2.3599,2.3576,2.3531,2.3475,2.301,2.2753,2.2637,2.2176,2.1943,2.1943,2.2809,2.3337,2.3447,2.4312,2.4831,2.4921,2.531,2.5561,2.5636,2.6013,2.6289,2.6395,2.6251,2.6408,2.6226,2.6226,2.6226,2.6395,2.5774,2.5109,2.4268,2.3979,2.3665,2.3201,2.3125,2.3125,2.3125,2.3125,2.3125,2.3125,2.3125,2.3125,2.3125,2.3125,2.3113,2.2977,2.2952,2.2573,2.1619,2.1343,2.0828,2.01,1.9798,1.9798,1.9798,1.9798,1.9798,1.9798,1.9798,1.9798,1.9798,1.9798,1.9798,1.9798,1.9798,2.0055,2.056,2.1042,2.1465,2.2253,2.3098,2.3389,2.3355,2.349,2.334,2.5732,2.5732,2.5732,2.5732,2.5732,2.5732,2.5732,2.5732,2.5732,2.5732,2.5732,2.5732,2.5244,2.4404,2.4258,2.3799,2.3174,2.3144,2.3144,2.3144,2.3144,2.3144,2.3144,2.3144,2.3144,2.3144,2.3144,2.3144,2.3144,2.3144,2.3714,2.4457,2.4039,2.4703,2.6136,2.5157,2.4818,2.544,2.3952,2.3015,2.2885,2.2129,2.168,2.1669,2.203,2.2221,2.2221,2.149,2.1333,2.1985,2.2328,2.2761,2.3416,2.4364,2.524,2.5807,2.605,2.6151,2.6244,2.6339,2.6521,2.6521,2.6521,2.6521,2.6521,2.6521,2.6521,2.6471,2.637,2.5787,2.5109,2.4431,2.3778,2.3263,2.3138,2.315,2.3125,2.3125,2.3125,2.3125,2.3125,2.3125,2.3125,2.3125,2.3125,2.3027,2.2836,2.2309,2.1681,2.1217,2.069,2.0049,1.9798,1.9798,1.9798,1.9798,1.9798,1.9798,1.9798,1.9798,1.9798,1.9798,1.9798,1.9798,1.9798,1.985,2.0359,2.121,2.1629,2.1913,2.2801,2.3508,2.3595,2.3595,2.3595,2.5732,2.5732,2.5732,2.5732,2.5732,2.5732,2.5732,2.5732,2.5732,2.5732,2.5732,2.5732,2.5244,2.4521,2.4424,2.3945,2.3193,2.3144,2.3144,2.3144,2.3144,2.3144,2.3144,2.3144,2.3144,2.3144,2.3144,2.3144,2.3144,2.3144,2.3551,2.4125,2.3474,2.4059,2.5398,2.4284,2.4054,2.4611,2.3349,2.2367,2.2114,2.1322,2.0703,2.0741,2.1221,2.1517,2.1517,2.0934,2.0857,2.1451,2.1811,2.2627,2.3891,2.4636,2.5441,2.6383,2.6521,2.6521,2.6521,2.6521,2.6521,2.6521,2.6521,2.6521,2.6521,2.6521,2.6521,2.6521,2.6521,2.6282,2.5624,2.4933,2.4217,2.3602,2.3414,2.3253,2.3115,2.3125,2.3125,2.3125,2.3125,2.3125,2.3125,2.3125,2.3125,2.3125,2.2648,2.2108,2.1568,2.1016,2.0517,1.9936,1.9811,1.9798,1.9798,1.9798,1.9798,1.9798,1.9798,1.9798,1.9798,1.9798,1.9798,1.9798,1.9798,1.9798,2.0283,2.1183,2.1602,2.1744,2.2651,2.3551,2.3595,2.3595,2.3595,2.5732,2.5732,2.5732,2.5732,2.5732,2.5732,2.5732,2.5732,2.5732,2.5732,2.5732,2.5732,2.5273,2.458,2.4443,2.3965,2.331,2.3164,2.3144,2.3144,2.3144,2.3144,2.3144,2.3144,2.3144,2.3144,2.3144,2.3144,2.3144,2.3144,2.3135,2.3135,2.3222,2.3637,2.4787,2.3418,2.3112,2.367,2.2744,2.1863,2.1309,2.126,2.1045,2.0664,2.0683,2.0751,2.0644,2.0644,2.0644,2.0789,2.1441,2.2925,2.4409,2.485,2.5358,2.6302,2.6521,2.6521,2.6521,2.6521,2.6521,2.6521,2.6521,2.6521,2.6521,2.6521,2.6521,2.6521,2.6508,2.6307,2.5787,2.5573,2.5071,2.418,2.3891,2.369,2.3276,2.3125,2.3125,2.3125,2.3125,2.3125,2.3125,2.3125,2.3125,2.3037,2.2661,2.2108,2.1568,2.1016,2.0517,1.9987,1.9798,1.9798,1.9798,1.9798,1.9798,1.9798,1.9798,1.9798,1.9798,1.9798,1.9798,1.9798,1.9798,1.985,2.0258,2.1113,2.1724,2.21,2.2995,2.3508,2.3595,2.3595,2.3595,2.5732,2.5732,2.5732,2.5732,2.5732,2.5732,2.5732,2.5732,2.5732,2.5732,2.5732,2.5732,2.541,2.4893,2.4551,2.4111,2.3584,2.3301,2.3144,2.3144,2.3144,2.3144,2.3144,2.3144,2.3144,2.3144,2.3144,2.3144,2.3144,2.3144,2.3144,2.3144,2.3144,2.3309,2.3627,2.3172,2.3103,2.3302,2.2689,2.2246,2.209,2.1826,2.1465,2.1084,2.1025,2.0898,2.0586,2.0576,2.0576,2.0557,2.0857,2.1897,2.3526,2.3963,2.4767,2.6233,2.6521,2.6521,2.6521,2.6521,2.6521,2.6521,2.6521,2.6521,2.6521,2.6521,2.6521,2.6521,2.6521,2.6352,2.6226,2.6257,2.5548,2.4155,2.3991,2.3791,2.3263,2.3125,2.3125,2.3125,2.3125,2.3125,2.3125,2.3125,2.3125,2.3088,2.2661,2.2108,2.1556,2.1016,2.0451,1.9936,1.9874,1.9798,1.9798,1.9798,1.9798,1.9798,1.9798,1.9798,1.9798,1.9798,1.9798,1.9798,1.9798,1.9952,2.0396,2.0979,2.1643,2.2161,2.2725,2.3143,2.3465,2.3551,2.3421,2.5732,2.5732,2.5732,2.5732,2.5732,2.5732,2.5732,2.5732,2.5732,2.5732,2.5732,2.5732,2.5488,2.5049,2.4609,2.4189,2.3769,2.334,2.3144,2.3144,2.3144,2.3144,2.3144,2.3144,2.3144,2.3144,2.3144,2.3144,2.3144,2.3144,2.3144,2.3144,2.3144,2.3144,2.3144,2.3144,2.3144,2.3096,2.2881,2.2666,2.2461,2.2109,2.167,2.1279,2.1074,2.085,2.0586,2.0576,2.0576,2.0576,2.0576,2.1385,2.2765,2.3294,2.4253,2.5581,2.6314,2.6521,2.6521,2.6521,2.6521,2.6521,2.6521,2.6521,2.6521,2.6521,2.6521,2.6521,2.6521,2.6521,2.6521,2.6521,2.5862,2.4757,2.4431,2.3979,2.3351,2.3125,2.3125,2.3125,2.3125,2.3125,2.3125,2.3125,2.3125,2.305,2.2648,2.2108,2.1556,2.1016,2.0451,2.0012,1.9836,1.9798,1.9798,1.9798,1.9798,1.9798,1.9798,1.9798,1.9798,1.9798,1.9798,1.9798,1.9798,1.9798,2.0194,2.0917,2.1582,2.2067,2.236,2.2634,2.2905,2.3098,2.3098,2.5732,2.5732,2.5732,2.5732,2.5732,2.5732,2.5732,2.5732,2.5732,2.5732,2.5732,2.5732,2.5527,2.5088,2.4658,2.4219,2.3809,2.334,2.3144,2.3144,2.3144,2.3144,2.3144,2.3144,2.3144,2.3144,2.3144,2.3144,2.3144,2.3144,2.3144,2.3144,2.3144,2.3144,2.3144,2.3144,2.3144,2.3135,2.3115,2.291,2.2578,2.2168,2.1777,2.1377,2.0957,2.0693,2.0684,2.0615,2.0576,2.0576,2.0576,2.1088,2.2038,2.2925,2.3818,2.5004,2.5943,2.6302,2.6452,2.6521,2.6521,2.6521,2.6521,2.6521,2.6521,2.6521,2.6521,2.6521,2.6521,2.6521,2.6521,2.6521,2.6113,2.5586,2.487,2.418,2.3314,2.3125,2.3125,2.3125,2.3125,2.3125,2.3125,2.3125,2.3125,2.3037,2.2661,2.2108,2.1568,2.1016,2.0464,2.01,1.9823,1.9798,1.9798,1.9798,1.9798,1.9798,1.9798,1.9798,1.9798,1.9798,1.9798,1.9798,1.9798,1.985,2.0093,2.0769,2.1259,2.1547,2.1833,2.2067,2.2438,2.2815,2.3054,2.5732,2.5732,2.5732,2.5732,2.5732,2.5732,2.5732,2.5732,2.5732,2.5732,2.5732,2.5732,2.5654,2.5478,2.4746,2.4346,2.4062,2.3457,2.3144,2.3144,2.3144,2.3144,2.3144,2.3144,2.3144,2.3144,2.3144,2.3144,2.3144,2.3144,2.3144,2.3144,2.3144,2.3144,2.3144,2.3144,2.3144,2.3144,2.3144,2.3105,2.293,2.2539,2.2305,2.2139,2.1435,2.1064,2.1016,2.0742,2.0576,2.0576,2.0576,2.1011,2.1886,2.2328,2.3147,2.4564,2.5217,2.5721,2.6302,2.6521,2.6521,2.6521,2.6521,2.6521,2.6521,2.6521,2.6521,2.6521,2.6521,2.6521,2.6521,2.6521,2.6025,2.5159,2.4619,2.4017,2.3351,2.3125,2.3125,2.3125,2.3125,2.3125,2.3125,2.3125,2.3125,2.305,2.2661,2.2108,2.1568,2.1016,2.0517,2.0062,1.9798,1.9798,1.9798,1.9798,1.9798,1.9798,1.9798,1.9798,1.9798,1.9798,1.9798,1.9798,1.9798,1.9798,2.0055,2.0547,2.0832,2.1259,2.1629,2.21,2.2575,2.2965,2.3231,2.5732,2.5732,2.5732,2.5732,2.5732,2.5732,2.5732,2.5732,2.5732,2.5732,2.5732,2.5732,2.5625,2.5391,2.4736,2.4316,2.4072,2.3447,2.3154,2.3144,2.3144,2.3144,2.3144,2.3144,2.3144,2.3144,2.3144,2.3144,2.3144,2.3144,2.3144,2.3144,2.3144,2.3144,2.3144,2.3144,2.3144,2.3144,2.3144,2.3144,2.3115,2.2725,2.2402,2.2187,2.1572,2.1172,2.0957,2.0703,2.0576,2.0576,2.0644,2.0857,2.1375,2.1811,2.2553,2.3745,2.448,2.53,2.5804,2.6233,2.6521,2.6521,2.6521,2.6521,2.6521,2.6521,2.6521,2.6521,2.6521,2.6521,2.6521,2.6521,2.5925,2.5046,2.4531,2.4017,2.3238,2.3125,2.3125,2.3125,2.3125,2.3125,2.3125,2.3125,2.3125,2.3025,2.2648,2.2108,2.1568,2.1071,2.0529,2.0037,1.9798,1.9798,1.9798,1.9798,1.9798,1.9798,1.9798,1.9798,1.9798,1.9798,1.9798,1.9798,1.9798,1.985,2.0055,2.0396,2.0917,2.1342,2.1771,2.21,2.2483,2.3054,2.3319,2.5732,2.5732,2.5732,2.5732,2.5732,2.5732,2.5732,2.5732,2.5732,2.5693,2.5644,2.5644,2.5371,2.498,2.4492,2.4141,2.3789,2.335,2.3184,2.3144,2.3144,2.3144,2.3144,2.3144,2.3144,2.3144,2.3144,2.3144,2.3144,2.3144,2.3144,2.3144,2.3144,2.3144,2.3144,2.3144,2.3144,2.3144,2.3144,2.3144,2.3066,2.2734,2.2393,2.208,2.1533,2.1035,2.0742,2.0576,2.0576,2.0576,2.0576,2.0644,2.0789,2.1441,2.1952,2.2403,2.3745,2.4779,2.5158,2.5955,2.6521,2.6521,2.6521,2.6521,2.6521,2.6521,2.6521,2.6521,2.6521,2.6521,2.6508,2.6414,2.5837,2.5008,2.4757,2.4192,2.3452,2.3125,2.3125,2.3125,2.3125,2.3125,2.3125,2.3125,2.3125,2.3027,2.2661,2.2108,2.1568,2.1071,2.0451,1.9911,1.9798,1.9798,1.9798,1.9798,1.9798,1.9798,1.9798,1.9798,1.9798,1.9798,1.9798,1.9798,1.9798,1.9798,1.9901,2.0333,2.0966,2.1403,2.1738,2.1913,2.2193,2.286,2.3319,2.5732,2.5732,2.5732,2.5732,2.5732,2.5732,2.5732,2.5723,2.5723,2.5518,2.5273,2.5215,2.4961,2.4541,2.415,2.3867,2.3721,2.334,2.3144,2.3144,2.3144,2.3144,2.3144,2.3144,2.3144,2.3144,2.3144,2.3144,2.3144,2.3144,2.3144,2.3144,2.3144,2.3144,2.3144,2.3144,2.3144,2.3144,2.3144,2.3144,2.3076,2.2773,2.248,2.2246,2.1611,2.1025,2.0674,2.0576,2.0576,2.0576,2.0576,2.0576,2.0644,2.0867,2.1231,2.2038,2.3073,2.412,2.4933,2.5734,2.6452,2.6302,2.6233,2.6521,2.6521,2.6452,2.6452,2.6521,2.6521,2.6508,2.6433,2.6013,2.5498,2.4908,2.4431,2.3954,2.3314,2.3125,2.3125,2.3125,2.3125,2.3125,2.3125,2.3125,2.3113,2.3002,2.2636,2.2096,2.1531,2.0941,2.0413,1.9823,1.9798,1.9798,1.9798,1.9798,1.9798,1.9798,1.9798,1.9798,1.9798,1.9798,1.9798,1.9798,1.9798,1.985,1.9952,2.0434,2.1126,2.1417,2.1846,2.2253,2.2665,2.3098,2.3275,2.5732,2.5732,2.5732,2.5732,2.5732,2.5732,2.5625,2.5449,2.542,2.5176,2.4834,2.4756,2.4521,2.4121,2.3887,2.3701,2.3467,2.3271,2.3144,2.3144,2.3144,2.3144,2.3144,2.3144,2.3144,2.3144,2.3144,2.3144,2.3144,2.3144,2.3144,2.3144,2.3144,2.3144,2.3144,2.3144,2.3144,2.3144,2.3144,2.3144,2.3086,2.2939,2.2529,2.2207,2.1582,2.1025,2.0605,2.0576,2.0576,2.0576,2.0576,2.0576,2.0576,2.0576,2.0857,2.1375,2.2253,2.2925,2.3734,2.4469,2.5063,2.5122,2.5134,2.5429,2.5652,2.5804,2.6094,2.6383,2.6496,2.6433,2.6076,2.585,2.5285,2.4569,2.418,2.3753,2.3276,2.3125,2.3125,2.3125,2.3125,2.3125,2.3125,2.3125,2.2887,2.2702,2.2221,2.1681,2.1091,2.0552,2.0225,1.9849,1.9811,1.9798,1.9798,1.9798,1.9798,1.9798,1.9798,1.9798,1.9798,1.9798,1.9798,1.9798,1.985,2.0105,2.0295,2.0795,2.1369,2.1988,2.2512,2.2875,2.3143,2.3377,2.3465,2.5732,2.5732,2.5732,2.5732,2.5732,2.5723,2.5498,2.5107,2.5059,2.4824,2.4385,2.4316,2.4092,2.375,2.3682,2.3457,2.3242,2.3154,2.3144,2.3144,2.3144,2.3144,2.3144,2.3144,2.3144,2.3144,2.3144,2.3144,2.3144,2.3144,2.3144,2.3144,2.3144,2.3144,2.3144,2.3144,2.3144,2.3144,2.3144,2.3144,2.3144,2.3086,2.2705,2.1992,2.1484,2.1025,2.0664,2.0576,2.0576,2.0576,2.0576,2.0576,2.0576,2.0576,2.0576,2.0644,2.1593,2.2178,2.2553,2.3147,2.3661,2.3514,2.3588,2.3963,2.4552,2.485,2.5288,2.5943,2.6289,2.6357,2.5799,2.5498,2.5046,2.4381,2.4042,2.3627,2.3276,2.3125,2.3125,2.3125,2.3125,2.3125,2.3125,2.3113,2.2761,2.2385,2.1845,2.1292,2.074,2.0288,2.0012,1.9849,1.9811,1.9798,1.9798,1.9798,1.9798,1.9798,1.9798,1.9798,1.9798,1.9798,1.9798,1.985,1.9952,2.0295,2.0782,2.1355,2.1988,2.2649,2.3009,2.329,2.3465,2.3551,2.3595,2.5732,2.5732,2.5732,2.5732,2.5723,2.5723,2.543,2.5107,2.5,2.46,2.3945,2.3877,2.3652,2.3369,2.3252,2.3193,2.3154,2.3144,2.3144,2.3144,2.3144,2.3144,2.3144,2.3144,2.3144,2.3144,2.3144,2.3144,2.3144,2.3144,2.3144,2.3144,2.3144,2.3144,2.3144,2.3144,2.3144,2.3144,2.3144,2.3144,2.3144,2.3047,2.2715,2.1934,2.1455,2.1016,2.0674,2.0576,2.0576,2.0576,2.0576,2.0576,2.0576,2.0576,2.0576,2.0789,2.1375,2.1811,2.1952,2.2776,2.3368,2.3514,2.3294,2.3368,2.3661,2.3891,2.448,2.5358,2.6094,2.6458,2.637,2.5511,2.4971,2.4481,2.3791,2.324,2.3115,2.3125,2.3125,2.3125,2.3125,2.3125,2.3125,2.3075,2.2799,2.2385,2.1845,2.1292,2.074,2.0313,1.9974,1.9861,1.9798,1.9798,1.9798,1.9798,1.9798,1.9798,1.9798,1.9798,1.9798,1.9798,1.985,2.0055,2.0295,2.0646,2.1224,2.1894,2.236,2.2875,2.3231,2.3595,2.3595,2.3595,2.3595,2.5732,2.5713,2.5498,2.5391,2.5352,2.5146,2.4805,2.4443,2.4394,2.4053,2.3603,2.3437,2.335,2.3184,2.3144,2.3144,2.3144,2.3144,2.3144,2.3144,2.3144,2.3144,2.3144,2.3144,2.3144,2.3144,2.3144,2.3144,2.3144,2.3144,2.3144,2.3144,2.3144,2.3144,2.3144,2.3144,2.3144,2.3144,2.3144,2.3144,2.3105,2.2969,2.2461,2.1963,2.1455,2.1016,2.0664,2.0576,2.0576,2.0576,2.0576,2.0576,2.0576,2.0576,2.0576,2.0712,2.1078,2.1298,2.1298,2.1821,2.1897,2.1973,2.2038,2.2264,2.2702,2.3294,2.4036,2.5346,2.5975,2.6201,2.5611,2.5121,2.4607,2.3991,2.3378,2.314,2.3125,2.3125,2.3125,2.3125,2.3125,2.3125,2.3125,2.3012,2.2824,2.2385,2.1845,2.133,2.0844,2.0514,2.0225,2.0112,2.0062,1.9886,1.9861,1.9798,1.9798,1.9798,1.985,1.985,2.0003,2.0042,2.0258,2.0409,2.0746,2.1126,2.1738,2.2406,2.2785,2.3054,2.3377,2.3595,2.3595,2.3595,2.3595,2.5305,2.5566,2.5117,2.4932,2.4873,2.458,2.4199,2.3848,2.3818,2.3594,2.3174,2.3154,2.3164,2.3144,2.3144,2.3144,2.3144,2.3144,2.3144,2.3144,2.3144,2.3144,2.3144,2.3144,2.3144,2.3144,2.3144,2.3144,2.3144,2.3144,2.3144,2.3144,2.3144,2.3144,2.3144,2.3144,2.3144,2.3144,2.3144,2.3144,2.3037,2.2734,2.2314,2.1894,2.1465,2.1016,2.0625,2.0576,2.0576,2.0576,2.0576,2.0576,2.0576,2.0576,2.0576,2.0576,2.0576,2.0576,2.0644,2.0722,2.0944,2.0944,2.0722,2.1088,2.1669,2.2627,2.3734,2.5264,2.584,2.5636,2.4913,2.4666,2.4205,2.369,2.3326,2.3125,2.3125,2.3125,2.3125,2.3125,2.3125,2.3125,2.3125,2.3075,2.2899,2.2523,2.1995,2.1644,2.1167,2.1071,2.0765,2.0605,2.0416,2.0087,1.9936,1.9798,1.9798,1.9798,1.985,1.9901,2.0144,2.0446,2.0696,2.1028,2.1369,2.1799,2.2374,2.283,2.3113,2.3377,2.3508,2.3595,2.3595,2.3595,2.3595,2.4057,2.5117,2.4668,2.4492,2.4473,2.4394,2.416,2.3789,2.375,2.3545,2.3144,2.3144,2.3144,2.3144,2.3144,2.3144,2.3144,2.3144,2.3144,2.3144,2.3144,2.3144,2.3144,2.3144,2.3144,2.3144,2.3144,2.3144,2.3144,2.3144,2.3144,2.3144,2.3144,2.3144,2.3144,2.3144,2.3144,2.3144,2.3144,2.3144,2.3066,2.2715,2.2275,2.1894,2.1426,2.0996,2.0625,2.0576,2.0576,2.0576,2.0576,2.0576,2.0576,2.0576,2.0576,2.0576,2.0576,2.0576,2.0576,2.0576,2.0576,2.0576,2.0576,2.0634,2.1221,2.1886,2.2702,2.2392,2.3824,2.4498,2.4347,2.4221,2.4004,2.3728,2.3339,2.3188,2.3125,2.3125,2.3125,2.3125,2.3125,2.3125,2.3125,2.3062,2.2949,2.256,2.2184,2.1845,2.1543,2.1355,2.1234,2.0983,2.058,2.0213,1.9949,1.9823,1.9952,1.9901,1.9991,2.0144,2.0584,2.1015,2.15,2.1846,2.2128,2.2314,2.2725,2.3098,2.3421,2.3566,2.3595,2.3595,2.3595,2.3595,2.3595,2.2641,2.4668,2.4238,2.4062,2.4023,2.3809,2.3594,2.3447,2.3418,2.332,2.3164,2.3144,2.3144,2.3144,2.3144,2.3144,2.3144,2.3144,2.3144,2.3144,2.3144,2.3144,2.3144,2.3144,2.3144,2.3144,2.3144,2.3144,2.3144,2.3144,2.3144,2.3144,2.3144,2.3144,2.3144,2.3144,2.3144,2.3144,2.3144,2.3144,2.2978,2.2539,2.208,2.1865,2.123,2.082,2.0635,2.0576,2.0576,2.0576,2.0576,2.0576,2.0576,2.0576,2.0576,2.0576,2.0576,2.0576,2.0576,2.0576,2.0576,2.0644,2.0644,2.0867,2.1364,2.2178,2.2776,2.2925,2.4214,2.4466,2.3879,2.3907,2.3742,2.3552,2.3253,2.3238,2.3125,2.3125,2.3125,2.3125,2.3125,2.3125,2.3125,2.31,2.305,2.2862,2.2523,2.2209,2.1895,2.1619,2.143,2.1297,2.0819,2.0275,2.0012,1.9798,2.0194,2.0245,2.0497,2.0683,2.1245,2.169,2.2114,2.2498,2.277,2.3009,2.3187,2.3319,2.3508,2.3551,2.3595,2.3595,2.3595,2.3595,2.3595,2.174,2.3971,2.375,2.3623,2.3613,2.3271,2.3154,2.3144,2.3154,2.3144,2.3144,2.3144,2.3144,2.3144,2.3144,2.3144,2.3144,2.3144,2.3144,2.3144,2.3144,2.3144,2.3144,2.3144,2.3144,2.3144,2.3144,2.3144,2.3144,2.3144,2.3144,2.3144,2.3144,2.3144,2.3144,2.3144,2.3144,2.3144,2.3144,2.3144,2.2998,2.2324,2.2012,2.1631,2.1123,2.0576,2.0576,2.0576,2.0576,2.0576,2.0576,2.0576,2.0576,2.0576,2.0576,2.0576,2.0576,2.0576,2.0576,2.0576,2.0576,2.0644,2.0934,2.1308,2.1897,2.2925,2.3183,2.2791,2.3595,2.3529,2.2991,2.2939,2.307,2.296,2.2982,2.3017,2.3125,2.3125,2.3125,2.3125,2.3125,2.3125,2.3125,2.3125,2.31,2.3062,2.2849,2.256,2.2221,2.1882,2.1543,2.1305,2.0668,2.0215,2.0026,1.9952,2.0295,2.0683,2.093,2.1307,2.188,2.2207,2.2543,2.2965,2.3334,2.3377,2.3406,2.3508,2.3595,2.3595,2.3595,2.3595,2.3595,2.3595,2.3595,2.1998,2.3223,2.3203,2.3213,2.3203,2.3154,2.3144,2.3144,2.3144,2.3144,2.3144,2.3144,2.3144,2.3144,2.3144,2.3144,2.3144,2.3144,2.3144,2.3144,2.3144,2.3144,2.3144,2.3144,2.3144,2.3144,2.3144,2.3144,2.3144,2.3144,2.3144,2.3144,2.3144,2.3144,2.3144,2.3144,2.3144,2.3144,2.3144,2.3144,2.291,2.2393,2.1914,2.1699,2.1094,2.0576,2.0576,2.0576,2.0576,2.0576,2.0576,2.0576,2.0576,2.0576,2.0576,2.0576,2.0576,2.0576,2.0576,2.0576,2.0576,2.0867,2.1155,2.1593,2.1745,2.285,2.2812,2.1942,2.2517,2.2048,2.1397,2.1156,2.2219,2.2641,2.2884,2.3065,2.3125,2.3125,2.3125,2.3125,2.3125,2.3125,2.3125,2.3125,2.3125,2.31,2.3062,2.2786,2.2422,2.2058,2.1619,2.1167,2.0494,2.0078,2.0028,2.0245,2.0868,2.1259,2.15,2.1974,2.2483,2.283,2.3009,2.3246,2.3508,2.3551,2.3595,2.3595,2.3595,2.3595,2.3595,2.3595,2.3595,2.3595,2.3595,2.1311,2.3047,2.3144,2.3144,2.3144,2.3144,2.3144,2.3144,2.3144,2.3144,2.3144,2.3144,2.3144,2.3144,2.3144,2.3144,2.3144,2.3144,2.3144,2.3144,2.3144,2.3144,2.3144,2.3144,2.3144,2.3144,2.3144,2.3144,2.3144,2.3144,2.3144,2.3144,2.3144,2.3144,2.3144,2.3144,2.3144,2.3144,2.3144,2.3144,2.2959,2.2363,2.1894,2.1816,2.1025,2.0615,2.0576,2.0576,2.0576,2.0576,2.0576,2.0576,2.0576,2.0576,2.0576,2.0576,2.0576,2.0576,2.0576,2.0576,2.0576,2.0644,2.0934,2.1231,2.1375,2.2103,2.1796,2.1324,2.1485,2.1424,2.1141,2.1486,2.2149,2.2567,2.2823,2.3005,2.3125,2.3125,2.3125,2.3125,2.3125,2.3125,2.3125,2.3125,2.3125,2.3125,2.304,2.2927,2.256,2.2083,2.1581,2.1205,2.055,2.0373,2.0321,2.0832,2.1452,2.1785,2.2081,2.2543,2.3009,2.3231,2.3421,2.3551,2.3595,2.3595,2.3595,2.3595,2.3595,2.3595,2.3595,2.3595,2.3595,2.3595,2.3595,2.1221,2.3047,2.3144,2.3144,2.3144,2.3144,2.3144,2.3144,2.3144,2.3144,2.3144,2.3144,2.3144,2.3144,2.3144,2.3144,2.3144,2.3144,2.3144,2.3144,2.3144,2.3144,2.3144,2.3144,2.3144,2.3144,2.3144,2.3144,2.3144,2.3144,2.3144,2.3144,2.3144,2.3144,2.3144,2.3144,2.3144,2.3144,2.3144,2.3037,2.2871,2.2285,2.1758,2.1631,2.0928,2.0615,2.0576,2.0576,2.0576,2.0576,2.0576,2.0576,2.0576,2.0576,2.0576,2.0576,2.0576,2.0576,2.0576,2.0576,2.0576,2.0644,2.1011,2.1088,2.1231,2.179,2.2083,2.1084,2.1555,2.1721,2.1185,2.1527,2.1939,2.2384,2.2884,2.3125,2.3125,2.3125,2.3125,2.3125,2.3125,2.3125,2.3125,2.3125,2.3125,2.3125,2.3113,2.2899,2.2435,2.1933,2.138,2.1031,2.072,2.0729,2.0809,2.1513,2.2114,2.2314,2.2634,2.3009,2.3377,2.3551,2.3595,2.3595,2.3595,2.3595,2.3595,2.3595,2.3595,2.3595,2.3595,2.3595,2.3595,2.3595,2.3595,2.1943,2.3047,2.3144,2.3144,2.3144,2.3144,2.3144,2.3144,2.3144,2.3144,2.3144,2.3144,2.3144,2.3144,2.3144,2.3144,2.3144,2.3144,2.3144,2.3144,2.3144,2.3144,2.3144,2.3144,2.3144,2.3144,2.3144,2.3144,2.3144,2.3144,2.3144,2.3144,2.3144,2.3144,2.3144,2.3144,2.3144,2.3135,2.3135,2.2881,2.2578,2.209,2.165,2.1318,2.0859,2.0576,2.0576,2.0576,2.0576,2.0576,2.0576,2.0576,2.0576,2.0576,2.0576,2.0576,2.0576,2.0576,2.0576,2.0576,2.0576,2.0644,2.1088,2.1451,2.1973,2.2488,2.2469,2.0978,2.1585,2.143,2.1235,2.1325,2.1827,2.2384,2.2884,2.3125,2.3125,2.3125,2.3125,2.3125,2.3125,2.3125,2.3125,2.3125,2.3125,2.3125,2.3125,2.2811,2.2284,2.182,2.1255,2.0896,2.0693,2.1027,2.1259,2.2128,2.2694,2.2889,2.3068,2.3377,2.3508,2.3551,2.3595,2.3595,2.3595,2.3595,2.3595,2.3595,2.3595,2.3595,2.3595,2.3595,2.3595,2.3595,2.3595,2.1302,2.3047,2.3144,2.3144,2.3144,2.3144,2.3144,2.3144,2.3144,2.3144,2.3144,2.3144,2.3144,2.3144,2.3144,2.3144,2.3144,2.3144,2.3144,2.3144,2.3144,2.3144,2.3144,2.3144,2.3144,2.3144,2.3144,2.3144,2.3144,2.3144,2.3144,2.3144,2.3144,2.3144,2.3144,2.3144,2.3144,2.3076,2.29,2.2627,2.2432,2.1855,2.1387,2.1201,2.0781,2.0586,2.0576,2.0576,2.0576,2.0576,2.0576,2.0576,2.0576,2.0576,2.0576,2.0576,2.0576,2.0576,2.0576,2.0576,2.0576,2.0722,2.0867,2.1155,2.1231,2.1298,2.1015,2.0854,2.1215,2.097,2.0783,2.1411,2.2002,2.2628,2.3078,2.3065,2.3125,2.3125,2.3125,2.3125,2.3125,2.3125,2.3125,2.3125,2.3125,2.3062,2.305,2.2498,2.1933,2.1631,2.1234,2.0809,2.0712,2.114,2.1724,2.2483,2.3054,2.3246,2.3334,2.3465,2.3595,2.3595,2.3595,2.3595,2.3595,2.3595,2.3595,2.3595,2.3595,2.3595,2.3681,2.3638,2.3595,2.3595,2.3595,2.0953,2.3047,2.3144,2.3144,2.3144,2.3144,2.3144,2.3144,2.3144,2.3144,2.3144,2.3144,2.3144,2.3144,2.3144,2.3144,2.3144,2.3144,2.3144,2.3144,2.3144,2.3144,2.3144,2.3144,2.3144,2.3144,2.3144,2.3144,2.3144,2.3144,2.3144,2.3144,2.3144,2.3144,2.3144,2.3144,2.3135,2.3037,2.2803,2.2451,2.2139,2.167,2.1182,2.0967,2.0732,2.0576,2.0576,2.0576,2.0576,2.0576,2.0576,2.0576,2.0576,2.0576,2.0576,2.0576,2.0576,2.0576,2.0576,2.0576,2.0576,2.0644,2.0566,2.0488,2.0594,2.1044,2.0841,2.0688,2.0903,2.1241,2.1522,2.2135,2.2372,2.3065,2.3065,2.3125,2.3125,2.3125,2.3125,2.3125,2.3125,2.3125,2.3125,2.3125,2.3125,2.3037,2.2937,2.2284,2.1669,2.1405,2.1108,2.0629,2.072,2.1328,2.1993,2.2756,2.3216,2.3551,2.3595,2.3595,2.3595,2.3595,2.3595,2.3595,2.3595,2.3595,2.3595,2.3595,2.3724,2.3837,2.3948,2.3879,2.3638,2.3709,2.3879,2.0953,2.296,2.3144,2.3144,2.3144,2.3144,2.3144,2.3144,2.3144,2.3144,2.3144,2.3144,2.3144,2.3144,2.3144,2.3144,2.3144,2.3144,2.3144,2.3144,2.3144,2.3144,2.3144,2.3144,2.3144,2.3144,2.3144,2.3144,2.3144,2.3144,2.3144,2.3144,2.3144,2.3144,2.3144,2.3057,2.3037,2.2881,2.2588,2.2197,2.1807,2.1396,2.0986,2.0752,2.0605,2.0576,2.0576,2.0576,2.0576,2.0576,2.0576,2.0576,2.0576,2.0576,2.0576,2.0576,2.0576,2.0576,2.0576,2.0576,2.0488,2.0449,2.0546,2.0273,2.044,2.1022,2.101,2.1279,2.1789,2.235,2.2862,2.2874,2.2944,2.3065,2.3065,2.3125,2.3125,2.3125,2.3125,2.3125,2.3125,2.3125,2.3125,2.3125,2.3113,2.294,2.2786,2.2221,2.1656,2.133,2.0945,2.0333,2.0657,2.1459,2.2225,2.2876,2.3319,2.3595,2.3595,2.3595,2.3595,2.3595,2.3595,2.3595,2.3595,2.3638,2.3794,2.3921,2.3964,2.4116,2.4471,2.4389,2.4307,2.4307,2.4348,2.1676,2.3047,2.3144,2.3144,2.3144,2.3144,2.3144,2.3144,2.3144,2.3144,2.3144,2.3144,2.3144,2.3144,2.3144,2.3144,2.3144,2.3144,2.3144,2.3144,2.3144,2.3144,2.3144,2.3144,2.3144,2.3144,2.3144,2.3144,2.3144,2.3144,2.3144,2.3144,2.3144,2.3144,2.3018,2.2852,2.2754,2.2559,2.2227,2.1885,2.1465,2.1045,2.0752,2.0615,2.0576,2.0576,2.0576,2.0576,2.0576,2.0576,2.0576,2.0576,2.0576,2.0576,2.0576,2.0576,2.0576,2.0576,2.0576,2.0557,2.041,2.0146,2.0154,2.0512,2.0703,2.0959,2.1171,2.1677,2.2302,2.2841,2.2936,2.2946,2.3005,2.3125,2.3125,2.3125,2.3125,2.3125,2.3125,2.3125,2.3125,2.3125,2.3125,2.3125,2.31,2.2902,2.2636,2.2071,2.1606,2.1267,2.0806,2.0167,2.0706,2.1602,2.2118,2.2786,2.3216,2.3595,2.3595,2.3595,2.3595,2.3595,2.3595,2.3595,2.3595,2.3837,2.4199,2.4241,2.4199,2.4831,2.5182,2.5067,2.4989,2.4973,2.4894,2.2031,2.3047,2.3144,2.3144,2.3144,2.3144,2.3144,2.3144,2.3144,2.3144,2.3144,2.3144,2.3144,2.3144,2.3144,2.3144,2.3144,2.3144,2.3144,2.3144,2.3144,2.3144,2.3144,2.3144,2.3144,2.3144,2.3144,2.3144,2.3144,2.3144,2.3144,2.3144,2.3144,2.3027,2.2861,2.2627,2.2305,2.2041,2.1738,2.1494,2.1172,2.0801,2.0635,2.0576,2.0576,2.0576,2.0576,2.0576,2.0576,2.0576,2.0576,2.0576,2.0576,2.0576,2.0576,2.0537,2.0352,2.0303,2.0244,2.0078,1.9912,1.9781,1.9806,2.036,2.0881,2.1307,2.143,2.1743,2.2479,2.3067,2.2849,2.275,2.2944,2.3125,2.3125,2.3125,2.3125,2.3125,2.3125,2.3125,2.3125,2.3125,2.3125,2.3125,2.3062,2.2912,2.251,2.1882,2.1443,2.1091,2.0589,1.9976,2.0769,2.1697,2.2225,2.2651,2.3216,2.3551,2.3595,2.3595,2.3595,2.3595,2.3595,2.3595,2.3595,2.3948,2.4389,2.443,2.4511,2.5205,2.5762,2.5726,2.5635,2.5598,2.5486,2.212,2.3144,2.3144,2.3144,2.3144,2.3144,2.3144,2.3144,2.3144,2.3144,2.3144,2.3144,2.3144,2.3144,2.3144,2.3144,2.3144,2.3144,2.3144,2.3144,2.3144,2.3144,2.3144,2.3144,2.3144,2.3144,2.3144,2.3144,2.3144,2.3144,2.3144,2.3135,2.3047,2.2891,2.2627,2.2324,2.1953,2.1543,2.1309,2.1113,2.1045,2.0791,2.0576,2.0576,2.0576,2.0576,2.0576,2.0576,2.0576,2.0576,2.0576,2.0576,2.0576,2.0576,2.0576,2.0508,2.0303,2.0127,2.0,1.9805,1.9482,1.9479,1.9636,2.0265,2.0834,2.1487,2.1697,2.2119,2.2885,2.3084,2.2996,2.2957,2.3065,2.3125,2.3125,2.3125,2.3125,2.3125,2.3125,2.3125,2.3125,2.3125,2.3125,2.3125,2.3125,2.2912,2.2485,2.1845,2.1355,2.1004,2.0451,1.9899,2.0646,2.1472,2.1993,2.2515,2.3231,2.3508,2.3551,2.3595,2.3595,2.3595,2.3595,2.3752,2.3921,2.4225,2.4552,2.4736,2.5128,2.5709,2.6191,2.6297,2.6262,2.6139,2.6052,2.2862,2.3144,2.3144,2.3144,2.3144,2.3144,2.3144,2.3144,2.3144,2.3144,2.3144,2.3144,2.3144,2.3144,2.3144,2.3144,2.3144,2.3144,2.3144,2.3144,2.3144,2.3144,2.3144,2.3144,2.3144,2.3144,2.3144,2.3135,2.3135,2.3135,2.3115,2.3076,2.2871,2.2539,2.2363,2.1992,2.1475,2.1152,2.0937,2.081,2.0752,2.0703,2.0576,2.0576,2.0576,2.0576,2.0576,2.0576,2.0576,2.0576,2.0576,2.0576,2.0576,2.0576,2.0566,2.0537,2.0352,2.0078,1.9795,1.9541,1.9268,1.912,1.9441,2.0087,2.0764,2.1468,2.2111,2.2665,2.3019,2.308,2.3128,2.309,2.3125,2.3125,2.3125,2.3125,2.3125,2.3125,2.3125,2.3125,2.3125,2.3125,2.3125,2.3125,2.3125,2.2912,2.2535,2.202,2.1468,2.1016,2.0451,2.0078,2.0435,2.1113,2.1677,2.2331,2.3054,2.3465,2.3595,2.3595,2.3595,2.3724,2.3837,2.4116,2.4307,2.4657,2.5051,2.554,2.5961,2.6297,2.6453,2.6521,2.6556,2.647,2.647,2.3144,2.3144,2.3144,2.3144,2.3144,2.3144,2.3144,2.3144,2.3144,2.3144,2.3144,2.3144,2.3144,2.3144,2.3144,2.3144,2.3144,2.3144,2.3144,2.3144,2.3144,2.3144,2.3144,2.3144,2.3144,2.3144,2.3144,2.3135,2.3038,2.29,2.2822,2.2803,2.2471,2.2139,2.1963,2.1445,2.1113,2.0928,2.0674,2.0586,2.0576,2.0576,2.0576,2.0576,2.0576,2.0576,2.0576,2.0576,2.0576,2.0576,2.0576,2.0576,2.0576,2.0576,2.0449,2.0254,2.0029,1.9805,1.9482,1.9199,1.8965,1.8765,1.9155,1.9777,2.0151,2.0865,2.2219,2.2726,2.2982,2.3103,2.3103,2.3138,2.3125,2.3125,2.3125,2.3125,2.3125,2.3125,2.3125,2.3125,2.3125,2.3125,2.3125,2.3125,2.3113,2.3025,2.2636,2.2096,2.1556,2.1071,2.0451,2.0167,2.0524,2.1015,2.1615,2.2285,2.292,2.329,2.3595,2.3595,2.3638,2.3879,2.4074,2.4348,2.4712,2.5128,2.5577,2.5961,2.6262,2.6521,2.659,2.6657,2.6708,2.6708,2.6657,2.3086,2.3135,2.3144,2.3144,2.3144,2.3144,2.3144,2.3144,2.3144,2.3144,2.3144,2.3144,2.3144,2.3144,2.3144,2.3144,2.3144,2.3144,2.3144,2.3144,2.3144,2.3144,2.3144,2.3144,2.3144,2.3144,2.3144,2.3144,2.3135,2.2832,2.2559,2.2422,2.2051,2.1631,2.1328,2.1113,2.0957,2.0742,2.0576,2.0576,2.0576,2.0576,2.0576,2.0576,2.0576,2.0576,2.0576,2.0576,2.0576,2.0576,2.0576,2.0576,2.0576,2.0557,2.0293,2.0078,1.9805,1.9365,1.8867,1.8564,1.8311,1.8261,1.8921,1.9365,1.9748,2.0579,2.1865,2.2433,2.2689,2.3065,2.3065,2.3125,2.3125,2.3125,2.3125,2.3125,2.3125,2.3125,2.3125,2.3125,2.3125,2.3125,2.3125,2.3125,2.3088,2.3,2.2661,2.2108,2.1556,2.1016,2.0464,2.0334,2.0435,2.1015,2.1602,2.2239,2.2889,2.329,2.3595,2.3595,2.3681,2.3964,2.4282,2.4632,2.4989,2.5524,2.5872,2.6175,2.6436,2.6657,2.6657,2.6708,2.6708,2.6708,2.6708,2.2832,2.3144,2.3135,2.3125,2.3125,2.3125,2.3144,2.3135,2.3115,2.3144,2.3115,2.3135,2.3144,2.3144,2.3144,2.3144,2.3144,2.3144,2.3144,2.3144,2.3144,2.3144,2.3144,2.3144,2.3144,2.3144,2.3144,2.3144,2.3037,2.2705,2.249,2.2432,2.165,2.1309,2.1211,2.0977,2.0713,2.0576,2.0576,2.0576,2.0576,2.0576,2.0576,2.0576,2.0576,2.0576,2.0576,2.0576,2.0576,2.0576,2.0576,2.0576,2.0547,2.0488,2.0225,1.9883,1.9609,1.9232,1.8832,1.8567,1.8429,1.8482,1.9044,1.9299,1.9683,2.0074,2.0962,2.129,2.1803,2.2763,2.2957,2.3065,2.3125,2.3125,2.3125,2.3125,2.3125,2.3125,2.3125,2.3125,2.3125,2.3125,2.3125,2.3125,2.3125,2.2987,2.2749,2.2196,2.1581,2.1029,2.0555,2.054,2.0523,2.1002,2.1602,2.2253,2.2889,2.329,2.3638,2.3681,2.3837,2.4116,2.443,2.495,2.5449,2.598,2.628,2.6436,2.6521,2.6691,2.6708,2.6708,2.6708,2.6708,2.6708]},{"header":{"parameterUnit":"m.s-1","parameterCategory":1,"la1":31.0,"la2":29.5877,"lo1":-88.7671,"lo2":-86.6584,"dy":0.0162,"dx":0.0185,"nx":115,"ny":88,"refTime":"2025-03-31T12:00:00:Z","depth":0,"parameterNumber":3,"parameterNumberName":"V-component_of_WINDS"},"data":[0.0,0.0,0.0,0.0,0.0,0.0,0.0,0.0,0.0,0.0,0.0,0.0,0.0,0.0,0.0,0.0,0.0,0.0,0.0,0.0,0.0,0.0,0.0,0.0,0.0,0.0,0.0,0.0,0.0,0.0,0.0,0.0,0.0,0.0,0.0,0.0,0.0,0.0,0.0,0.0,0.0,0.0,0.0,0.0,0.0,0.0,0.0,0.0,0.0,0.0,0.0,0.0,0.0,0.0,0.0,0.0,0.0,0.0,0.0,0.0,0.0,0.0,0.0,0.0,0.0,0.0,0.0,0.0,0.0,0.0,0.0,0.0,0.0,0.0,0.0,0.0,0.0,0.0,0.0,0.0,0.0,0.0,0.0,0.0,0.0,0.0,0.0,0.0,0.0,0.0,0.0,0.0,0.0,0.0,0.0,0.0,0.0,0.0,0.0,0.0,0.0,0.0,0.0,0.0,0.0,0.0,0.0,0.0,0.0,0.0,0.0,0.0,0.0,0.0,0.0,0.0,0.0,0.0,0.0,0.0,0.0,0.0,0.0,0.0,0.0,0.0,0.0,0.0,0.0,0.0,0.0,0.0,0.0,0.0,0.0,0.0,0.0,0.0,0.0,0.0,0.0,0.0,0.0,0.0,0.0,0.0,0.0,0.0,0.0,0.0,0.0,0.0,0.0,0.0,0.0,0.0,0.0,0.0,0.0,0.0,0.0,0.0,0.0,0.0,0.0,0.0,0.0,0.0,0.0,0.0,0.0,0.0,0.0,0.0,0.0,0.0,0.0,0.0,0.0,0.0,0.0,0.0,0.0,0.0,0.0,0.0,0.0,0.0,0.0,0.0,0.0,0.0,0.0,0.0,0.0,0.0,0.0,0.0,0.0,0.0,0.0,0.0,0.0,0.0,0.0,0.0,0.0,0.0,0.0,0.0,0.0,0.0,0.0,0.0,0.0,0.0,0.0,0.0,0.0,0.0,0.0,0.0,0.0,0.0,0.0,0.0,0.0,0.0,0.0,0.0,0.0,0.0,0.0,0.0,0.0,0.0,0.0,0.0,0.0,0.0,0.0,0.0,0.0,0.0,0.0,0.0,0.0,0.0,0.0,0.0,0.0,0.0,0.0,0.0,0.0,0.0,0.0,0.0,0.0,0.0,0.0,0.0,0.0,0.0,0.0,0.0,0.0,0.0,0.0,0.0,0.0,0.0,0.0,0.0,0.0,0.0,0.0,0.0,0.0,0.0,0.0,0.0,0.0,0.0,0.0,0.0,0.0,0.0,0.0,0.0,0.0,0.0,0.0,0.0,0.0,0.0,0.0,0.0,0.0,0.0,0.0,0.0,0.0,0.0,0.0,0.0,0.0,0.0,0.0,0.0,0.0,0.0,0.0,0.0,0.0,0.0,0.0,0.0,0.0,0.0,0.0,0.0,0.0,0.0,0.0,0.0,0.0,0.0,0.0,0.0,0.0,0.0,0.0,0.0,0.0,0.0,0.0,0.0,0.0,0.0,0.0,0.0,0.0,0.0,0.0,0.0,0.0,0.0,0.0,0.0,0.0,0.0,0.0,0.0,0.0,0.0,0.0,0.0,0.0,0.0,0.0,0.0,0.0,0.0,0.0,0.0,0.0,0.0,0.0,0.0,0.0,0.0,0.0,0.0,0.0,0.0,0.0,0.0,0.0,0.0,0.0,0.0,0.0,0.0,0.0,0.0,0.0,0.0,0.0,0.0,0.0,0.0,0.0,0.0,0.0,0.0,0.0,0.0,0.0,0.0,0.0,0.0,0.0,0.0,0.0,0.0,0.0,0.0,0.0,0.0,0.0,0.0,0.0,0.0,0.0,0.0,0.0,0.0,0.0,0.0,0.0,0.0,0.0,0.0,0.0,0.0,0.0,0.0,0.0,0.0,0.0,0.0,0.0,0.0,0.0,0.0,0.0,0.0,0.0,0.0,0.0,0.0,0.0,0.0,0.0,0.0,0.0,0.0,0.0,0.0,0.0,0.0,0.0,0.0,0.0,0.0,0.0,0.0,0.0,0.0,0.0,0.0,0.0,0.0,0.0,0.0,0.0,0.0,0.0,0.0,0.0,0.0,0.0,0.0,0.0,0.0,0.0,0.0,0.0,0.0,0.0,0.0,0.0,0.0,0.0,0.0,0.0,0.0,0.0,0.0,0.0,0.0,0.0,0.0,0.0,0.0,0.0,0.0,0.0,0.0,0.0,0.0,0.0,0.0,0.0,0.0,0.0,0.0,0.0,0.0,0.0,0.0,0.0,0.0,0.0,0.0,0.0,0.0,0.0,0.0,0.0,0.0,0.0,0.0,0.0,0.0,0.0,0.0,0.0,0.0,0.0,0.0,0.0,0.0,0.0,0.0,0.0,0.0,0.0,0.0,0.0,0.0,0.0,0.0,0.0,0.0,0.0,0.0,0.0,0.0,0.0,0.0,0.0,0.0,0.0,0.0,0.0,0.0,0.0,0.0,0.0,0.0,0.0,0.0,0.0,0.0,0.0,0.0,0.0,0.0,0.0,0.0,0.0,0.0,0.0,0.0,0.0,0.0,0.0,0.0,0.0,0.0,0.0,0.0,0.0,0.0,0.0,0.0,0.0,0.0,0.0,0.0,0.0,0.0,0.0,0.0,0.0,0.0,0.0,0.0,0.0,0.0,0.0,0.0,0.0,0.0,0.0,0.0,0.0,0.0,0.0,0.0,0.0,0.0,0.0,0.0,0.0,0.0,0.0,0.0,0.0,0.0,0.0,0.0,0.0,0.0,0.0,0.0,0.0,0.0,0.0,0.0,0.0,0.0,0.0,0.0,0.0,0.0,0.0,0.0,0.0,0.0,0.0,0.0,0.0,0.0,0.0,0.0,0.0,0.0,0.0,0.0,0.0,0.0,0.0,0.0,0.0,0.0,0.0,0.0,0.0,0.0,0.0,0.0,0.0,0.0,0.0,0.0,0.0,0.0,0.0,0.0,0.0,0.0,0.0,0.0,0.0,0.0,0.0,0.0,0.0,0.0,0.0,0.0,0.0,0.0,0.0,0.0,0.0,0.0,0.0,0.0,0.0,0.0,0.0,0.0,0.0,0.0,0.0,0.0,0.0,0.0,0.0,0.0,0.0,0.0,0.0,0.0,0.0,0.0,0.0,0.0,0.0,0.0,0.0,0.0,0.0,0.0,0.0,0.0,0.0,0.0,0.0,0.0,0.0,0.0,0.0,0.0,0.0,0.0,0.0,0.0,0.0,0.0,0.0,0.0,0.0,0.0,0.0,0.0,0.0,0.0,0.0,0.0,0.0,0.0,0.0,0.0,0.0,0.0,0.0,0.0,0.0,0.0,0.0,0.0,0.0,0.0,0.0,0.0,0.0,0.0,0.0,0.0,0.0,0.0,0.0,0.0,0.0,0.0,0.0,0.0,0.0,0.0,0.0,0.0,0.0,0.0,0.0,0.0,0.0,0.0,0.0,0.0,0.0,0.0,0.0,0.0,0.0,0.0,0.0,0.0,0.0,0.0,0.0,0.0,0.0,0.0,0.0,0.0,0.0,0.0,0.0,0.0,0.0,0.0,0.0,0.0,0.0,0.0,0.0,0.0,0.0,0.0,0.0,0.0,0.0,0.0,0.0,0.0,0.0,0.0,0.0,0.0,0.0,0.0,0.0,0.0,0.0,0.0,0.0,0.0,0.0,0.0,0.0,0.0,0.0,0.0,0.0,0.0,0.0,0.0,0.0,0.0,0.0,0.0,0.0,0.0,0.0,0.0,0.0,0.0,0.0,0.0,0.0,0.0,0.0,0.0,0.0,0.0,0.0,0.0,0.0,0.0,0.0,0.0,0.0,0.0,0.0,0.0,0.0,0.0,0.0,0.0,0.0,0.0,0.0,0.0,0.0,0.0,0.0,0.0,0.0,0.0,0.0,0.0,0.0,0.0,0.0,0.0,0.0,0.0,0.0,0.0,0.0,0.0,0.0,0.0,0.0,0.0,0.0,0.0,0.0,0.0,0.0,0.0,0.0,0.0,0.0,0.0,0.0,0.0,0.0,0.0,0.0,0.0,0.0,0.0,0.0,0.0,0.0,0.0,0.0,0.0,0.0,0.0,0.0,0.0,0.0,0.0,0.0,0.0,0.0,0.0,0.0,0.0,0.0,0.0,0.0,0.0,0.0,0.0,0.0,0.0,0.0,0.0,0.0,0.0,0.0,0.0,0.0,0.0,0.0,0.0,0.0,0.0,0.0,0.0,0.0,0.0,0.0,0.0,0.0,0.0,0.0,0.0,1.1737,0.0,0.0,0.0,0.0,0.0,0.0,0.0,0.0,0.0,0.0,0.0,0.0,0.0,0.0,0.0,0.0,0.0,0.0,0.0,0.0,0.0,0.0,0.0,0.0,0.0,0.0,0.0,0.0,0.0,0.0,0.0,0.0,0.0,0.0,0.0,0.0,0.0,0.0,0.0,0.0,0.0,0.0,0.0,0.0,0.0,0.0,0.0,0.0,0.0,0.0,0.0,0.0,0.0,0.0,0.0,0.0,0.0,0.0,0.0,0.0,0.0,0.0,0.0,0.0,0.0,0.0,0.0,0.0,0.0,0.0,0.0,0.0,0.0,0.0,0.0,0.0,0.0,0.0,0.0,0.0,0.0,0.0,0.0,0.0,0.0,0.0,0.0,0.0,0.0,0.0,0.0,0.0,0.0,0.0,0.0,0.0,0.0,0.0,0.0,0.0,0.0,0.0,0.0,0.0,0.0,0.0,0.0,0.0,0.0,0.0,1.0322,1.0322,1.0322,1.0774,1.1774,0.0,0.0,0.0,0.0,0.0,0.0,0.0,0.0,0.0,0.0,0.0,0.0,0.0,0.0,0.0,0.0,0.0,0.0,0.0,0.0,0.0,0.0,0.0,0.0,0.0,0.0,0.0,0.0,0.0,0.0,0.0,0.0,0.0,0.0,0.0,0.0,0.0,0.0,0.0,0.0,0.0,0.0,0.0,0.0,0.0,0.0,0.0,0.0,0.0,0.0,0.0,0.0,0.0,0.0,0.0,0.0,0.0,0.0,0.0,0.0,0.0,0.0,0.0,0.0,0.0,0.0,0.0,0.0,0.0,0.0,0.0,0.0,0.0,0.0,0.0,0.0,0.0,0.0,0.0,0.0,0.0,0.0,0.0,0.0,0.0,0.0,0.0,0.0,0.0,0.0,0.0,0.0,0.0,0.0,0.0,0.0,0.0,0.0,0.0,0.0,0.0,0.0,0.0,0.0,0.0,0.0,0.0,0.0,0.0,0.0,0.0,0.0,1.0499,1.0956,1.2068,0.0,0.0,0.0,0.0,0.0,0.0,0.0,0.0,0.0,0.0,0.0,0.0,0.0,0.0,0.0,0.0,0.0,0.0,0.0,0.0,0.0,0.0,0.0,0.0,0.0,0.0,0.0,0.0,0.0,0.0,0.0,0.0,0.0,0.0,0.0,0.0,0.0,0.0,0.0,0.0,0.0,0.0,0.0,0.0,0.0,0.0,0.0,0.0,0.0,0.0,0.0,0.0,0.0,0.0,0.0,0.0,0.0,0.0,0.0,0.0,0.0,0.0,0.0,0.0,0.0,0.0,0.0,0.0,0.0,0.0,0.0,0.0,0.0,0.0,0.0,0.0,0.0,0.0,0.0,0.0,0.0,0.0,0.0,0.0,0.0,0.0,0.0,0.0,0.0,0.0,0.0,0.0,0.0,0.0,0.0,0.0,0.0,0.0,0.0,0.0,0.0,0.0,0.0,0.0,0.0,0.0,0.0,0.0,0.0,0.0,1.0695,1.1518,1.1125,0.0,1.2852,0.0,0.0,0.0,0.0,0.0,0.0,0.0,0.0,0.0,0.0,0.0,0.0,0.0,0.0,0.0,0.0,0.0,0.0,0.0,0.0,0.0,0.0,0.0,0.0,0.0,0.0,0.0,0.0,0.0,0.0,0.0,0.0,0.0,0.0,0.0,0.0,0.0,0.0,0.0,0.0,0.0,0.0,0.0,0.0,0.0,0.0,0.0,0.0,0.0,0.0,0.0,0.0,0.0,0.0,0.0,0.0,0.0,0.0,0.0,0.0,0.0,0.0,0.0,0.0,0.0,0.0,0.0,0.0,0.0,0.0,0.0,0.0,0.0,0.0,0.0,0.0,0.0,0.0,0.0,0.0,0.0,0.0,0.0,0.0,0.0,0.0,0.0,0.0,0.0,0.0,0.0,0.0,0.0,0.0,0.0,0.0,0.0,0.0,0.0,0.0,0.0,0.0,0.0,0.0,0.0,0.0,0.0,0.0,0.0,0.0,1.1015,1.1802,1.2149,1.2526,0.0,0.0,0.0,0.0,0.0,0.0,0.0,0.0,0.0,0.0,0.0,0.0,0.0,0.0,0.0,0.0,0.0,0.0,0.0,0.0,0.0,0.0,0.0,0.0,0.0,0.0,0.0,0.0,0.0,0.0,0.0,0.0,0.0,0.0,0.0,0.0,0.0,0.0,0.0,0.0,0.0,0.0,0.0,0.0,0.0,0.0,0.0,0.0,0.0,0.0,0.0,0.0,0.0,0.0,0.0,0.0,0.0,0.0,0.0,0.0,0.0,0.0,0.0,0.0,0.0,0.0,0.0,0.0,0.0,0.0,0.0,0.0,0.0,0.0,0.0,0.0,0.0,0.0,0.0,0.0,0.0,0.0,0.0,0.0,0.0,0.0,0.0,0.0,0.0,0.0,0.0,0.0,0.0,0.0,0.0,0.0,0.0,0.0,0.0,0.0,0.0,0.0,0.0,0.0,0.0,0.0,0.0,0.0,0.0,0.0,1.0811,0.0,1.2022,1.3135,1.3533,1.311,0.0,0.0,0.0,0.0,0.0,0.0,0.0,0.0,0.0,0.0,0.0,0.0,0.0,0.0,0.0,0.0,0.0,0.0,0.0,0.0,0.0,0.0,0.0,0.0,0.0,0.0,0.0,0.0,0.0,0.0,0.0,0.0,0.0,0.0,0.0,0.0,0.0,0.0,0.0,0.0,0.0,0.0,0.0,0.0,0.0,0.0,0.0,0.0,0.0,0.0,0.0,0.0,0.0,0.0,0.0,0.0,0.0,0.0,0.0,0.0,0.0,0.0,0.0,0.0,0.0,0.0,0.0,0.0,0.0,0.0,0.0,0.0,0.0,0.0,0.0,0.0,0.0,0.0,0.0,0.0,0.0,0.0,0.0,0.0,0.0,0.0,0.0,0.0,0.0,0.0,0.0,0.0,0.0,0.0,0.0,0.0,0.0,0.0,0.0,0.0,0.0,0.0,0.0,0.0,0.0,0.0,0.0,0.0,0.0,1.1136,1.1344,1.2299,1.3915,1.4348,0.0,0.0,0.0,0.0,0.0,0.0,0.0,0.0,0.0,0.0,0.0,0.0,0.0,0.0,0.0,0.0,0.0,0.0,0.0,0.0,0.0,0.0,0.0,0.0,0.0,0.0,0.0,0.0,0.0,0.0,0.0,0.0,0.0,0.0,0.0,0.0,0.0,0.0,0.0,0.0,0.0,0.0,0.0,0.0,0.0,0.0,0.0,0.0,0.0,0.0,0.0,0.0,0.0,0.0,0.0,0.0,0.0,0.0,0.0,0.0,0.0,0.0,0.0,0.0,0.0,0.0,0.0,0.0,0.0,0.0,0.0,0.0,0.0,0.0,0.0,0.0,0.0,0.0,0.0,0.0,0.0,0.0,0.0,0.0,0.0,0.0,0.0,0.0,0.0,0.0,0.0,0.0,0.0,0.0,0.0,0.0,0.0,0.0,0.0,0.0,0.0,0.0,0.0,0.0,0.0,0.0,0.0,0.0,0.0,1.0753,1.1238,1.2095,1.3398,1.3356,1.3382,0.0,0.0,0.0,0.0,0.0,0.0,0.0,0.0,0.0,0.0,0.0,0.0,0.0,0.0,0.0,0.0,0.0,0.0,0.0,0.0,0.0,0.0,0.0,0.0,0.0,0.0,0.0,0.0,0.0,0.0,0.0,0.0,0.0,0.0,0.0,0.0,0.0,0.0,0.0,0.0,0.0,0.0,0.0,0.0,0.0,0.0,0.0,0.0,0.0,0.0,0.0,0.0,0.0,0.0,0.0,0.0,0.0,0.0,0.0,0.0,0.0,0.0,0.0,0.0,0.0,0.0,0.0,0.0,0.0,0.0,0.0,0.0,0.0,0.0,0.0,0.0,0.0,0.0,0.0,0.0,0.0,0.0,0.0,0.0,0.0,0.0,0.0,0.0,0.0,0.0,0.0,0.0,0.0,0.0,0.0,0.0,0.0,0.0,0.0,0.0,0.0,0.0,0.0,0.0,0.0,0.0,0.0,0.0,0.0,1.0518,0.0,1.2816,0.0,1.3155,1.3011,0.0,0.0,0.0,0.0,0.0,0.0,0.0,0.0,0.0,0.0,0.0,0.0,0.0,0.0,0.0,0.0,0.0,0.0,0.0,0.0,0.0,0.0,0.0,0.0,0.0,0.0,0.0,0.0,0.0,0.0,0.0,0.0,0.0,0.0,0.0,0.0,0.0,0.0,0.0,0.0,0.0,0.0,0.0,0.0,0.0,0.0,0.0,0.0,0.0,0.0,0.0,0.0,0.0,0.0,0.0,0.0,0.0,0.0,0.0,0.0,0.0,0.0,0.0,0.0,0.0,0.0,0.0,0.0,0.0,0.0,0.0,0.0,0.0,0.0,0.0,0.0,0.0,0.0,0.0,0.0,0.0,0.0,0.0,0.0,0.0,0.0,0.0,0.0,0.0,0.0,0.0,0.0,0.0,0.0,0.0,0.0,0.0,0.0,0.0,0.0,0.0,0.0,0.0,0.0,0.0,0.0,0.0,0.0,1.0078,1.093,1.285,1.3337,1.2362,1.3409,1.3316,0.0,0.0,0.0,0.0,0.0,0.0,0.0,0.0,0.0,0.0,0.0,0.0,0.0,0.0,0.0,0.0,0.0,0.0,0.0,0.0,0.0,0.0,0.0,0.0,0.0,0.0,0.0,0.0,0.0,0.0,0.0,0.0,0.0,0.0,0.0,0.0,0.0,0.0,0.0,0.0,0.0,0.0,0.0,0.0,0.0,0.0,0.0,0.0,0.0,0.0,0.0,0.0,0.0,0.0,0.0,0.0,0.0,0.0,0.0,0.0,0.0,0.0,0.0,0.0,0.0,0.0,0.0,0.0,0.0,0.0,0.0,0.0,0.0,0.0,0.0,0.0,0.0,0.0,0.0,0.0,0.0,0.0,0.0,0.0,0.0,0.0,0.0,0.0,0.0,0.0,0.0,0.0,0.0,0.0,0.0,0.0,0.0,0.0,0.0,0.0,0.0,0.0,0.0,0.0,0.0,0.0,0.0,0.0,0.0,1.1551,1.2833,1.3696,1.4052,1.3325,1.3198,0.0,0.0,0.0,0.0,0.0,0.0,0.0,0.0,0.0,0.0,0.0,0.0,0.0,0.0,0.0,0.0,0.0,0.0,0.0,0.0,0.0,0.0,0.0,0.0,0.0,0.0,0.0,0.0,0.0,0.0,0.0,0.0,0.0,0.0,0.0,0.0,0.0,0.0,0.0,0.0,0.0,0.0,0.0,0.0,0.0,0.0,0.0,0.0,0.0,0.0,0.0,0.0,0.0,0.0,0.0,0.0,0.0,0.0,0.0,0.0,0.0,0.0,0.0,0.0,0.0,0.0,0.0,0.0,0.0,0.0,0.0,0.0,0.0,0.0,0.0,0.0,0.0,0.0,0.0,0.0,0.0,0.0,0.0,0.0,0.0,0.0,0.0,0.0,0.0,0.0,0.0,0.0,0.0,0.0,0.0,0.0,0.0,0.0,0.0,0.0,0.0,0.0,0.0,0.0,0.0,0.0,0.0,0.0,0.0,1.2986,1.3732,1.4308,1.4624,1.3582,1.339,1.4173,0.0,0.0,0.0,0.0,0.0,0.0,0.0,0.0,0.0,0.0,0.0,0.0,0.0,0.0,0.0,0.0,0.0,0.0,0.0,0.0,0.0,0.0,0.0,0.0,0.0,0.0,0.0,0.0,0.0,0.0,0.0,0.0,0.0,0.0,0.0,0.0,0.0,0.0,0.0,0.0,0.0,0.0,0.0,0.0,0.0,0.0,0.0,0.0,0.0,0.0,0.0,0.0,0.0,0.0,0.0,0.0,0.0,0.0,0.0,0.0,0.0,0.0,0.0,0.0,0.0,0.0,0.0,0.0,0.0,0.0,0.0,0.0,0.0,0.0,0.0,0.0,0.0,0.0,0.0,0.0,0.0,0.0,0.0,0.0,0.0,0.0,0.0,0.0,0.0,0.0,0.0,0.0,0.0,0.0,0.0,0.0,0.0,0.0,0.0,0.0,0.0,0.0,0.0,0.0,0.0,0.0,0.0,0.0,1.4949,1.5435,1.525,1.428,1.4299,1.4102,0.0,0.0,0.0,0.0,0.0,0.0,0.0,0.0,0.0,0.0,0.0,0.0,0.0,0.0,0.0,0.0,0.0,0.0,0.0,0.0,0.0,0.0,0.0,0.0,0.0,0.0,0.0,0.0,0.0,0.0,0.0,0.0,0.0,0.0,0.0,0.0,0.0,0.0,0.0,0.0,0.0,0.0,0.0,0.0,0.0,0.0,0.0,0.0,0.0,0.0,0.0,0.0,0.0,0.0,0.0,0.0,0.0,0.0,0.0,0.0,0.0,0.0,0.0,0.0,0.0,0.0,0.0,0.0,0.0,0.0,0.0,0.0,0.0,0.0,0.0,0.0,0.0,0.0,0.0,0.0,0.0,0.0,0.0,0.0,0.0,0.0,0.0,0.0,0.0,0.0,0.0,0.0,0.0,0.0,0.0,0.0,0.0,0.0,0.0,0.0,0.0,0.0,0.0,0.0,0.0,0.0,0.0,0.0,0.0,1.5355,1.6774,1.7186,1.6516,1.6478,1.6123,0.0,0.0,0.0,0.0,0.0,0.0,0.0,0.0,0.0,0.0,0.0,0.0,0.0,0.0,0.0,0.0,0.0,0.0,0.0,0.0,0.0,0.0,0.0,0.0,0.0,0.0,0.0,0.0,0.0,0.0,0.0,0.0,0.0,0.0,0.0,0.0,0.0,0.0,0.0,0.0,0.0,0.0,0.0,0.0,0.0,0.0,0.0,0.0,0.0,0.0,0.0,0.0,0.0,0.0,0.0,0.0,0.0,0.0,0.0,0.0,0.0,0.0,0.0,0.0,0.0,0.0,0.0,0.0,0.0,0.0,0.0,0.0,0.0,0.0,0.0,0.0,0.0,0.0,0.0,0.0,0.0,0.0,0.0,0.0,0.0,0.0,0.0,0.0,0.0,0.0,0.0,0.0,0.0,0.0,0.0,0.0,0.0,0.0,0.0,0.0,0.0,0.0,0.0,0.0,0.0,0.0,0.0,0.0,1.5928,1.6599,1.8351,1.897,1.8417,1.7987,1.745,0.0,0.0,0.0,0.0,0.0,0.0,0.0,0.0,0.0,0.0,0.0,0.0,0.0,0.0,0.0,0.0,0.0,0.0,0.0,0.0,0.0,0.0,0.0,0.0,0.0,0.0,0.0,0.0,0.0,0.0,0.0,0.0,0.0,0.0,0.0,0.0,0.0,0.0,0.0,0.0,0.0,0.0,0.0,0.0,0.0,0.0,0.0,0.0,0.0,0.0,0.0,0.0,0.0,0.0,0.0,0.0,0.0,0.0,0.0,0.0,0.0,0.0,0.0,0.0,0.0,0.0,0.0,0.0,0.0,0.0,0.0,0.0,0.0,0.0,0.0,0.0,0.0,0.0,0.0,0.0,0.0,0.0,0.0,0.0,0.0,0.0,0.0,0.0,0.0,0.0,0.0,0.0,0.0,0.0,0.0,0.0,0.0,0.0,0.0,0.0,0.0,0.0,0.0,0.0,0.0,0.0,0.0,0.0,1.7725,1.819,1.9837,2.0467,1.9964,1.8989,1.8311,0.0,0.0,0.0,0.0,0.0,0.0,0.0,0.0,0.0,0.0,0.0,0.0,0.0,0.0,0.0,0.0,0.0,0.0,0.0,0.0,0.0,0.0,0.0,0.0,0.0,0.0,0.0,0.0,0.0,0.0,0.0,0.0,0.0,0.0,0.0,0.0,0.0,0.0,0.0,0.0,0.0,0.0,0.0,0.0,0.0,0.0,0.0,0.0,0.0,0.0,0.0,0.0,0.0,0.0,0.0,0.0,0.0,0.0,0.0,0.0,0.0,0.0,0.0,0.0,0.0,0.0,0.0,0.0,0.0,0.0,0.0,0.0,0.0,0.0,0.0,0.0,0.0,0.0,0.0,0.0,0.0,0.0,0.0,0.0,0.0,0.0,0.0,0.0,0.0,0.0,0.0,0.0,0.0,0.0,0.0,0.0,0.0,0.0,0.0,0.0,0.0,0.0,0.0,0.0,0.0,0.0,0.0,0.0,1.7906,1.8718,2.0035,2.0856,2.1212,2.006,1.8998,0.0,0.0,0.0,0.0,0.0,0.0,0.0,0.0,0.0,0.0,0.0,0.0,0.0,0.0,0.0,0.0,0.0,0.0,0.0,0.0,0.0,0.0,0.0,0.0,0.0,0.0,0.0,0.0,0.0,0.0,0.0,0.0,0.0,0.0,0.0,0.0,0.0,0.0,0.0,0.0,0.0,0.0,0.0,0.0,0.0,0.0,0.0,0.0,0.9425,0.0,0.0,0.0,0.0,0.0,0.0,0.0,0.0,0.0,0.0,0.0,0.0,0.0,0.0,0.0,0.0,0.0,0.0,0.0,0.0,0.0,0.0,0.0,0.0,0.0,0.0,0.0,0.0,0.0,0.0,0.0,0.0,0.0,0.0,0.0,0.0,0.0,0.0,0.0,0.0,0.0,0.0,0.0,0.0,0.0,0.0,0.0,0.0,0.0,0.0,0.0,0.0,0.0,0.0,0.0,0.0,0.0,0.0,0.0,1.9386,2.0133,2.0976,2.1623,2.1931,2.1124,2.0219,0.0,0.0,0.0,0.0,0.0,0.0,0.0,0.0,0.0,0.0,0.0,0.0,0.0,0.0,0.0,0.0,0.0,0.0,0.0,0.0,0.0,0.0,0.0,0.0,0.0,0.0,0.0,0.0,0.0,0.0,0.0,0.0,0.0,0.0,0.0,0.0,0.0,0.0,0.0,0.0,0.0,0.0,0.0,0.0,0.0,0.0,0.0,0.0,0.0,0.0,0.0,0.0,0.0,0.0,0.0,0.0,0.0,0.0,0.0,0.0,0.0,0.0,0.0,0.0,0.0,0.0,0.0,0.0,0.0,0.0,0.0,0.0,0.0,0.0,0.0,0.0,0.0,0.0,0.0,0.0,0.0,0.0,0.0,0.0,0.0,0.0,0.0,0.0,0.0,0.0,0.0,0.0,0.0,0.0,0.0,0.0,0.0,0.0,0.0,0.0,0.0,0.0,0.0,0.0,0.0,0.0,0.0,1.9346,2.0891,2.1594,2.2173,2.2475,2.2524,2.2138,2.1591,2.0864,0.0,0.0,0.0,0.0,0.0,0.0,0.0,0.0,0.0,0.0,0.0,0.0,0.0,0.0,0.0,0.0,0.0,0.0,0.0,0.0,0.0,0.0,0.0,0.0,0.0,0.0,0.0,0.0,0.0,0.0,0.0,0.0,0.0,0.0,0.0,0.0,0.0,0.0,0.8734,1.0413,0.0,0.0,0.0,0.0,0.0,0.0,0.0,0.0,1.0313,0.0,0.0,0.0,0.0,0.0,0.0,0.0,0.0,0.0,0.0,0.0,0.0,0.0,0.0,0.0,0.0,0.0,0.0,0.0,0.0,0.0,0.0,0.0,0.0,0.0,0.0,0.0,0.0,0.0,0.0,0.0,0.0,0.0,0.0,0.0,0.0,0.0,0.0,0.0,0.0,0.0,0.0,0.0,0.0,0.0,0.0,0.0,0.0,0.0,0.0,0.0,0.0,0.0,0.0,0.0,0.0,1.9208,1.971,2.0665,2.2146,2.285,2.3214,2.3251,2.3315,2.2786,2.1565,0.0,0.0,0.0,0.0,0.0,0.0,0.0,0.0,0.0,0.0,0.0,0.0,0.0,0.0,0.0,0.0,0.0,0.0,0.0,0.0,0.0,0.0,0.0,0.0,0.0,0.0,0.0,0.0,0.0,0.0,0.0,0.0,0.0,0.0,0.0,0.0,0.0,0.0,0.0,1.0813,1.1256,0.0,0.0,0.0,0.0,0.0,0.0,0.0,0.0,1.0654,0.0,0.0,0.0,0.0,0.0,0.0,0.0,0.0,0.0,0.0,0.0,0.0,0.0,0.0,0.0,0.0,0.0,0.0,0.0,0.0,0.0,0.0,0.0,0.0,0.0,0.0,0.0,0.0,0.0,0.0,0.0,0.0,0.0,0.0,0.0,0.0,0.0,0.0,0.0,0.0,0.0,0.0,0.0,0.0,0.0,0.0,0.0,0.0,0.0,0.0,0.0,0.0,0.0,0.0,0.0,1.9296,2.0238,2.1355,2.2673,2.3456,2.3699,2.342,2.3526,2.2978,0.0,0.0,0.0,0.0,0.0,0.0,0.0,0.0,0.0,0.0,0.0,0.0,0.0,0.0,0.0,0.0,0.0,0.0,0.0,0.0,0.0,0.0,0.0,0.0,0.0,0.0,0.0,0.0,0.0,0.0,0.0,0.0,0.0,0.0,0.0,0.0,0.0,0.0,0.0,0.0,1.1103,1.1484,1.2093,0.0,0.0,0.0,0.0,0.0,0.0,1.1443,1.1222,0.0,0.0,0.0,0.0,0.0,0.0,0.0,0.0,0.0,0.0,0.0,0.0,0.0,0.0,0.0,0.0,0.0,0.0,0.0,0.0,0.0,0.0,0.0,0.0,0.0,0.0,0.0,0.0,0.0,0.0,0.0,0.0,0.0,0.0,0.0,0.0,0.0,0.0,0.0,0.0,0.0,0.0,0.0,0.0,0.0,0.0,0.0,0.0,0.0,0.0,0.0,0.0,0.0,0.0,0.0,1.9158,2.0589,2.2034,2.3289,2.4105,2.4215,2.364,2.3672,2.3082,0.0,0.0,0.0,0.0,0.0,0.0,0.0,0.0,0.0,0.0,0.0,0.0,0.0,0.0,0.0,0.0,0.0,0.0,0.0,0.0,0.0,0.0,0.0,0.0,0.0,0.0,0.0,0.0,0.0,0.0,0.0,0.0,0.0,0.0,0.0,0.0,0.0,0.0,0.0,0.0,0.0,1.2021,1.2197,1.2041,0.0,0.0,0.0,0.0,1.2679,1.2399,0.0,0.0,0.0,0.0,0.0,0.0,0.0,0.0,0.0,0.0,0.0,0.0,0.0,0.0,0.0,0.0,0.0,0.0,0.0,0.0,0.0,0.0,0.0,0.0,0.0,0.0,0.0,0.0,0.0,0.0,0.0,0.0,0.0,0.0,0.0,0.0,0.0,0.0,0.0,0.0,0.0,0.0,0.0,0.0,0.0,0.0,0.0,0.0,0.0,0.0,0.0,0.0,0.0,0.0,0.0,0.0,1.9623,2.0401,2.1907,2.4071,2.4908,2.4966,2.4412,2.4432,2.3612,0.0,0.0,0.0,0.0,0.0,0.0,0.0,0.0,0.0,0.0,0.0,0.0,0.0,0.0,0.0,0.0,0.0,0.0,0.0,0.0,0.0,0.0,0.0,0.0,0.0,0.0,0.0,0.0,0.0,0.0,0.0,0.0,0.0,0.0,0.0,0.0,0.0,0.0,0.0,0.0,0.0,1.3027,1.2324,1.2518,1.2782,0.0,0.0,1.3096,1.3793,1.3818,0.0,0.0,0.0,0.0,0.0,0.0,0.0,0.0,0.0,0.0,0.0,0.0,0.0,0.0,0.0,0.0,0.0,0.0,0.0,0.0,0.0,0.0,0.0,0.0,0.0,0.0,0.0,0.0,0.0,0.0,0.0,0.0,0.0,0.0,0.0,0.0,0.0,0.0,0.0,0.0,0.0,0.0,0.0,0.0,0.0,0.0,0.0,0.0,0.0,0.0,0.0,0.0,0.0,0.0,0.0,1.7951,1.9799,2.1386,2.2906,2.4297,2.5453,2.5512,2.4511,2.4204,2.3131,0.0,0.0,0.0,0.0,0.0,0.0,0.0,0.0,0.0,0.0,0.0,0.0,0.0,0.0,0.0,0.0,0.0,0.0,0.0,0.0,0.0,0.0,0.0,0.0,0.0,0.0,0.0,0.0,0.0,0.0,0.0,0.0,0.0,0.0,0.0,0.0,0.0,0.0,0.0,0.0,0.0,0.0,1.2607,1.3297,0.0,0.0,0.0,1.472,1.53,0.0,0.0,0.0,0.0,0.0,0.0,0.0,0.0,0.0,0.0,0.0,0.0,0.0,0.0,0.0,0.0,0.0,0.0,0.0,0.0,0.0,0.0,0.0,0.0,0.0,0.0,0.0,0.0,0.0,0.0,0.0,0.0,0.0,0.0,0.0,0.0,0.0,0.0,0.0,0.0,0.0,0.0,0.0,0.0,0.0,0.0,0.0,0.0,0.0,0.0,0.0,0.0,0.0,0.0,0.0,0.0,0.0,2.0093,2.2283,2.3897,2.4811,2.596,2.5957,2.4805,2.4014,0.0,0.0,0.0,0.0,0.0,0.0,0.0,0.0,0.0,0.0,0.0,0.0,0.0,0.0,0.0,0.0,0.0,0.0,0.0,0.0,0.0,0.0,0.0,0.0,0.0,0.0,0.0,0.7187,0.0,0.0,0.0,0.0,0.0,0.0,0.0,0.0,0.0,0.0,0.0,0.0,0.0,0.0,1.2792,1.3142,1.4121,1.4941,0.0,0.0,1.6166,1.658,1.6324,1.5659,0.0,0.0,0.0,0.0,0.0,0.0,0.0,0.0,0.0,0.0,0.0,0.0,0.0,0.0,0.0,0.0,0.0,0.0,0.0,0.0,0.0,0.0,0.0,0.0,0.0,0.0,0.0,0.0,0.0,0.0,0.0,0.0,0.0,0.0,0.0,0.0,0.0,0.0,0.0,0.0,0.0,0.0,0.0,0.0,0.0,0.0,0.0,0.0,0.0,0.0,0.0,0.0,0.0,0.0,0.0,2.0881,2.2551,2.4381,2.6254,2.6443,2.6148,2.5535,2.4253,2.2697,0.0,0.0,0.0,0.0,0.0,0.0,0.0,0.0,0.0,0.0,0.0,0.0,0.0,0.0,0.0,0.0,0.0,0.0,0.0,0.0,0.0,0.0,0.0,0.0,0.0,0.0,0.0,0.0,0.0,0.0,0.0,0.0,0.0,0.0,0.0,0.0,0.0,0.0,0.0,0.0,0.0,1.3969,1.3952,1.4982,1.6123,0.0,1.7146,1.7219,1.7302,1.7305,1.6729,1.5089,0.0,0.0,0.0,0.0,0.0,0.0,0.0,0.0,0.0,0.0,0.0,0.0,0.0,0.0,0.0,0.0,0.0,0.0,0.0,0.0,0.0,0.0,0.0,0.0,0.0,0.0,0.0,0.0,0.0,0.0,0.0,0.0,0.0,0.0,0.0,0.0,0.0,0.0,0.0,0.0,0.0,0.0,0.0,0.0,0.0,0.0,0.0,0.0,0.0,0.0,0.0,0.0,0.0,1.9581,2.0953,2.3379,2.5273,2.6428,2.693,2.6683,2.5644,2.4298,2.2682,0.0,0.0,0.0,0.0,0.0,0.0,0.0,0.0,0.0,0.0,0.0,0.0,0.0,0.0,0.0,0.0,0.0,0.0,0.0,0.0,0.0,0.0,0.0,0.0,0.0,0.0,0.0,0.0,1.0106,1.0131,0.9667,0.0,0.0,0.0,0.0,0.0,0.0,0.0,0.0,0.0,0.0,1.3969,1.4629,1.5728,0.0,0.0,1.8117,1.8264,1.7919,1.789,1.72,1.523,1.4551,0.0,0.0,0.0,0.0,0.0,0.0,0.0,0.0,0.0,0.0,0.0,0.0,0.0,0.0,0.0,0.0,0.0,0.0,0.0,0.0,0.0,0.0,0.0,0.0,0.0,0.0,0.0,0.0,0.0,0.0,0.0,0.0,0.0,0.0,0.0,0.0,0.0,0.0,0.0,0.0,0.0,0.0,0.0,0.0,0.0,0.0,0.0,0.0,0.0,0.0,0.0,0.0,2.0402,2.1472,2.4312,2.6054,2.6826,2.7372,2.6946,2.5644,2.4507,2.2906,0.0,0.0,0.0,0.0,0.0,0.0,0.0,0.0,0.0,0.0,0.0,0.0,0.0,0.0,0.0,0.0,0.0,0.0,0.0,0.0,0.0,0.0,0.0,0.0,0.0,0.0,0.0,0.0,1.1186,1.0897,0.978,0.0,0.0,0.0,0.0,0.0,0.0,0.0,0.0,0.0,0.0,1.4904,1.5924,1.6793,1.7647,1.85,1.8808,1.8844,1.8279,1.8078,1.73,1.5469,0.0,0.0,0.0,0.0,0.0,0.0,0.0,0.0,0.0,0.0,0.0,0.0,0.0,0.0,0.0,0.0,0.0,0.0,0.0,0.0,0.0,0.0,0.0,0.0,0.0,0.0,0.0,1.972,0.0,0.0,1.8747,0.0,0.0,0.0,0.0,0.0,0.0,0.0,0.0,0.0,0.0,0.0,0.0,0.0,0.0,0.0,0.0,0.0,0.0,0.0,0.0,0.0,0.0,2.1312,2.2859,2.5214,2.6826,2.7509,2.756,2.6961,2.5674,2.491,2.3327,2.0729,0.0,0.0,0.0,0.0,0.0,0.0,0.0,0.0,0.0,0.0,0.0,0.0,0.0,0.0,0.0,0.0,0.0,0.0,0.0,0.0,0.0,0.0,0.0,0.0,0.0,0.0,1.1575,1.1073,1.0332,0.0,0.0,0.0,0.0,0.0,0.0,0.0,0.0,0.0,0.0,1.5773,1.7197,1.7891,1.8382,1.8891,1.9606,1.9296,1.8844,1.8292,1.7777,1.7011,0.0,0.0,0.0,0.0,0.0,0.0,0.0,0.0,0.0,0.0,0.0,0.0,0.0,0.0,0.0,0.0,0.0,0.0,0.0,0.0,0.0,0.0,0.0,0.0,0.0,0.0,0.0,2.168,2.1674,0.0,0.0,0.0,0.0,0.0,0.0,0.0,0.0,0.0,0.0,0.0,2.1126,2.2817,0.0,0.0,0.0,0.0,0.0,0.0,0.0,0.0,0.0,0.0,0.0,0.0,2.1611,2.2431,2.5099,2.6878,2.756,2.756,2.7156,2.6288,2.5196,2.2939,1.9495,0.0,0.0,0.0,0.0,0.0,0.0,0.0,0.0,0.0,0.0,0.0,0.0,0.0,0.0,0.0,0.0,0.0,0.0,0.0,0.0,0.0,0.0,0.0,0.0,0.0,1.2128,0.0,0.0,0.0,0.0,0.0,0.0,0.0,0.0,0.0,0.0,0.0,1.4782,1.5496,1.6386,1.7345,1.8353,1.8596,1.8927,0.0,0.0,0.0,0.0,0.0,0.0,0.0,0.0,0.0,0.0,0.0,0.0,0.0,0.0,1.4048,1.2155,1.1518,1.1352,1.1595,0.0,0.0,0.0,0.0,0.0,0.0,0.0,0.0,0.0,0.0,0.0,0.0,0.0,0.0,2.349,0.0,2.3011,0.0,0.0,0.0,0.0,0.0,0.0,0.0,0.0,2.4178,2.4307,2.3159,2.4808,2.6119,0.0,2.4791,2.2712,0.0,0.0,0.0,0.0,0.0,0.0,0.0,0.0,2.225,2.3037,2.5517,2.7086,2.7575,2.756,2.7295,2.6602,2.5091,2.2951,2.0168,1.942,1.8358,0.0,0.0,0.0,0.0,0.0,0.0,0.0,0.0,0.0,0.0,0.0,0.0,0.0,0.0,0.0,0.0,0.0,0.0,0.0,0.0,0.0,0.0,0.0,1.263,0.0,0.0,0.0,0.0,0.0,0.0,0.0,0.0,0.0,1.3999,1.5032,1.6058,1.7122,1.7692,1.8242,1.8984,0.0,0.0,0.0,0.0,0.0,0.0,0.0,1.7953,1.7225,1.7099,1.7036,1.6848,1.7287,1.7385,1.6398,0.0,0.0,1.3764,1.3182,1.3091,1.3331,1.3593,1.3697,1.344,1.3915,1.4311,0.0,0.0,0.0,0.0,0.0,0.0,0.0,0.0,2.4821,2.5135,0.0,2.4986,0.0,0.0,0.0,0.0,2.1949,2.3759,0.0,0.0,2.6976,2.698,2.5857,2.7054,2.8388,2.9524,2.8217,2.6542,2.4552,2.0887,0.0,0.0,0.0,0.0,0.0,0.0,2.337,2.4566,2.6523,2.756,2.756,2.756,2.7245,2.6542,2.4702,2.3355,2.2664,2.0812,1.9465,1.8732,1.6923,0.0,0.0,0.0,0.0,0.0,0.0,0.0,0.0,0.0,0.0,0.0,0.0,0.0,0.0,0.0,0.0,0.0,0.0,0.0,0.0,1.2872,0.0,0.0,0.0,0.0,0.0,0.0,0.0,0.0,0.0,0.0,1.5806,1.676,1.7827,1.882,0.0,0.0,0.0,0.0,1.9836,1.9874,1.9422,1.9046,1.9008,1.8593,1.8229,1.8229,0.0,0.0,1.7564,1.7903,1.8091,1.7539,1.7831,1.7678,1.5993,1.5262,1.5103,1.5604,1.5752,1.5781,1.5806,1.6036,1.6403,2.8936,0.0,0.0,0.0,0.0,2.6856,2.8083,3.0163,2.8757,2.8263,2.8353,2.6737,0.0,0.0,0.0,0.0,0.0,0.0,2.6393,2.7066,2.8382,2.8821,2.8483,2.9268,3.0111,3.0853,2.9147,2.8008,2.738,2.5345,2.2906,2.0198,0.0,0.0,0.0,0.0,2.4282,2.4813,2.6634,2.756,2.756,2.756,2.7036,2.5929,2.5345,2.4283,2.2768,2.2154,2.1066,1.9465,1.8418,0.0,0.0,0.0,0.0,0.0,0.0,0.0,0.0,0.0,0.0,0.0,0.0,0.0,0.0,0.0,0.0,0.0,0.0,0.0,1.2341,1.2872,1.2985,0.0,0.0,0.0,0.0,0.0,0.0,0.0,0.0,0.0,1.7865,1.8355,1.8681,0.0,0.0,1.9949,2.0363,2.0426,2.0564,2.0941,2.0552,0.0,1.9648,1.9133,1.8794,1.8745,1.9095,1.9296,1.9133,1.9233,1.9171,1.8643,1.8694,1.8459,1.7691,1.7359,1.7293,1.7443,1.7488,1.7476,1.7488,1.7338,1.7137,3.2123,3.0218,2.8622,2.8652,2.9729,2.9594,3.0657,3.2437,3.1255,3.0896,3.1046,2.9594,2.8218,2.6901,2.5989,0.0,0.0,0.0,2.8652,2.9564,3.0372,3.0899,3.1144,3.1526,3.1584,3.1432,3.0283,2.9624,2.934,2.8278,2.6303,2.352,0.0,0.0,2.2261,2.4297,2.5711,2.6291,2.7408,2.7979,2.7964,2.776,2.6946,2.5659,2.56,2.4807,2.3116,2.2802,2.2154,2.094,1.972,1.8418,0.0,0.0,0.0,0.0,0.0,0.0,0.0,0.0,0.0,0.0,0.0,1.0648,0.8286,0.0,0.0,0.0,1.1807,1.2814,1.3345,1.3684,0.0,0.0,0.0,0.0,0.0,0.0,0.0,1.666,1.6948,1.7601,1.9133,1.9535,1.9673,1.9685,1.9949,2.0351,2.0916,0.0,2.1104,2.1443,2.1029,2.0592,2.02,1.9685,1.9334,1.9334,1.9585,1.9786,1.9798,1.9798,1.9685,1.9422,1.9334,1.9233,1.8894,1.8844,1.8681,1.8292,1.8204,1.8204,1.8204,1.7928,1.7652,3.4607,3.4397,3.2587,3.175,3.1824,3.2422,3.2691,3.2736,3.2691,3.3006,3.3514,3.2826,3.1794,3.0522,2.9415,0.0,2.9834,3.0462,3.139,3.2587,3.2632,3.2961,3.3484,3.3529,3.2944,3.1857,3.1722,3.1345,3.0657,3.0088,2.9131,2.7769,2.5989,2.5284,2.5779,2.6422,2.7395,2.8637,2.8667,2.8652,2.8577,2.7919,2.6931,2.5659,2.56,2.4971,2.364,2.3056,2.2739,2.2574,2.088,1.951,1.8687,0.0,0.0,0.0,0.0,0.0,0.0,0.0,0.0,0.0,0.0,0.0,0.0,0.0,0.0,0.0,1.3216,0.0,1.4853,1.4992,0.0,0.0,0.0,1.4118,1.5158,1.5689,1.6405,1.7529,0.0,0.0,1.9861,2.0351,2.0756,2.0832,2.0752,2.0928,2.1468,2.1556,2.1568,2.1669,2.1129,2.0806,2.0715,2.0175,1.9748,1.9748,1.9798,1.9798,1.9798,1.9798,1.9798,1.9773,1.9798,1.9773,1.9786,1.9736,1.9484,1.8543,1.838,1.8355,1.8405,1.8342,1.8129,3.5714,3.5235,3.4756,3.4262,3.3799,3.3948,3.4307,3.4726,3.4247,3.4098,3.4173,3.3021,3.2063,3.1228,3.1495,3.1674,3.1839,3.2482,3.2961,3.329,3.3784,3.3829,3.3529,3.4008,3.436,3.4471,3.3532,3.2691,3.2048,3.1884,3.1135,2.9849,2.9325,2.8442,2.7186,2.7784,2.8532,2.934,2.9355,2.9101,2.8607,2.7934,2.6946,2.5644,2.56,2.4986,2.3655,2.3445,2.2936,2.1979,2.1485,2.0468,1.8777,1.713,0.0,0.0,0.0,0.0,0.0,0.0,0.0,0.0,0.0,1.3015,0.9943,0.0,1.3885,0.0,1.3973,1.4765,1.4903,1.5724,0.0,0.0,1.7382,1.8138,1.8795,1.8515,1.8734,1.9865,1.9404,1.9547,2.0916,2.084,2.0991,2.1782,2.1556,2.1493,2.2033,2.2108,2.2272,2.2548,2.1882,2.1305,2.1179,2.0439,1.9798,1.9798,1.9798,1.9798,1.9798,1.9798,1.9798,1.9798,1.9798,1.9798,1.9798,1.9798,1.9736,1.9472,1.9422,1.9422,1.9422,1.912,1.8733,3.6938,3.6873,3.6225,3.6122,3.6384,3.5407,3.5307,3.5961,3.5596,3.5599,3.5921,3.5164,3.4639,3.4372,3.467,3.4662,3.4349,3.4699,3.4711,3.4412,3.4771,3.4741,3.4397,3.4771,3.516,3.546,3.4405,3.3589,3.2976,3.2961,3.2422,3.142,3.1405,3.0702,2.94,2.9415,2.9774,3.0432,2.9864,2.9265,2.8607,2.7919,2.6946,2.5674,2.56,2.4852,2.3251,2.3176,2.2727,2.1769,2.1425,2.0752,1.9645,1.8026,1.6697,0.0,0.0,0.0,0.0,0.0,0.0,0.0,0.0,0.0,0.0,0.0,1.4726,1.4362,1.5363,1.6241,1.6731,1.7637,1.8344,1.8629,1.9543,2.0299,2.0809,2.0841,2.1111,2.1997,2.1522,2.1393,2.2214,2.2069,2.2074,2.2619,2.2422,2.2322,2.2598,2.2686,2.2786,2.2977,2.2196,2.128,2.0853,2.0225,1.9798,1.9798,1.9798,1.9798,1.9798,1.9798,1.9798,1.9798,1.9798,1.9798,1.9798,1.9798,1.9798,1.9798,1.9798,1.9798,1.9798,1.9585,1.9321,3.8213,3.8712,3.7506,3.7729,3.885,3.6846,3.6257,3.6737,3.6737,3.716,3.7822,3.7822,3.7822,3.7822,3.7822,3.7397,3.6783,3.6737,3.6399,3.5797,3.5668,3.5589,3.5514,3.5589,3.5612,3.5483,3.5009,3.4388,3.3634,3.3619,3.329,3.2662,3.2557,3.2228,3.1601,3.0986,3.0941,3.1452,3.0313,2.9385,2.8742,2.8053,2.7036,2.5689,2.5525,2.4597,2.2828,2.2682,2.2368,2.1724,2.1141,2.0759,2.0677,1.8897,1.7518,0.0,1.5507,0.0,0.0,0.0,0.0,0.0,0.0,0.0,0.0,1.5398,1.5785,1.636,1.7337,1.8361,1.9373,2.0144,2.0552,2.0623,2.1245,2.1882,2.2325,2.2831,2.3343,2.3858,2.3807,2.3639,2.3659,2.3601,2.348,2.3436,2.3289,2.3225,2.3119,2.3097,2.3027,2.299,2.2096,2.1046,2.0294,1.999,1.9952,1.9952,1.9952,1.9952,1.994,1.9862,1.9798,1.9798,1.9798,1.9798,1.9798,1.9798,1.9798,1.9798,1.9798,1.9798,1.9798,1.9786,1.9623,4.0087,3.9731,3.9481,3.9495,3.9734,3.8702,3.7979,3.7573,3.7573,3.7632,3.7822,3.7822,3.7822,3.7822,3.7822,3.7706,3.7573,3.7589,3.7515,3.7354,3.6692,3.6075,3.5553,3.6075,3.6087,3.5529,3.595,3.5553,3.4292,3.4292,3.3963,3.3305,3.2781,3.2452,3.2302,0.0,0.0,0.0,3.0746,3.0028,2.94,2.8742,2.7515,2.5689,2.5091,0.0,2.2772,2.2682,2.2383,2.1739,2.1575,0.0,0.0,0.0,0.0,0.0,0.0,0.0,0.0,0.0,0.0,0.0,1.972,1.8956,1.7209,1.83,1.9386,2.0007,2.0274,2.0723,2.1463,2.2473,2.3112,2.3126,2.4048,2.4798,2.4885,2.4592,2.4589,2.5091,2.4329,2.4041,2.4819,2.4627,2.4491,2.4745,2.4452,2.3909,2.3393,2.3224,2.2949,2.2498,2.163,2.0881,2.0651,2.0597,2.0597,2.061,2.0597,2.0597,2.0597,2.0144,1.9798,1.985,1.9798,1.9798,1.9798,1.9798,1.9798,1.9798,1.9798,1.9798,1.9798,1.9798,1.966,4.1558,4.1585,4.0788,4.0945,0.0,4.0508,4.0042,3.9962,3.8835,3.8541,3.8941,3.8941,3.8941,3.8941,3.8941,3.8723,3.8358,3.8358,3.8149,3.7764,3.7397,3.6588,3.5546,3.6695,3.7427,3.7715,3.6986,3.6245,3.5552,3.5157,3.4637,3.3963,3.3335,3.2841,3.2512,3.1854,3.1467,3.1467,3.0851,3.0208,2.9579,2.8936,2.7799,2.6153,2.5465,0.0,0.0,0.0,0.0,0.0,0.0,0.0,0.0,0.0,0.0,1.9705,1.9218,1.9322,2.0109,2.0057,2.0599,2.1998,2.2532,2.1902,1.9908,2.058,2.1363,2.1904,2.2267,2.2694,2.3369,2.417,2.469,2.4734,2.5533,2.6093,2.6075,2.612,2.6217,2.6432,2.6025,2.5739,2.5929,2.5692,2.5278,2.4969,2.46,2.4134,2.3527,2.3306,2.3,2.2546,2.2049,2.157,2.1296,2.1245,2.1259,2.1259,2.1259,2.1259,2.1245,2.0953,2.067,2.0396,2.0308,2.0194,1.985,1.9798,1.9798,1.9798,1.9798,1.9798,1.9798,1.9798,1.9648,4.2909,4.3436,4.2134,4.2384,4.35,4.2155,4.1827,4.2132,4.0151,0.0,0.0,4.0087,4.0087,4.0087,4.0087,3.9714,3.9139,3.9139,3.8745,3.8206,3.8035,3.7406,3.6394,3.7454,3.8755,3.9943,3.7856,3.6737,3.6554,3.5846,3.522,3.4651,3.3993,3.3275,3.2527,3.1854,3.1467,3.1452,3.0971,3.0328,2.9594,2.9056,2.8068,2.6632,2.5959,2.5031,2.3834,2.3295,2.2772,2.2233,2.2099,2.2099,2.2203,2.1994,2.1919,2.2024,2.2039,2.2323,2.2966,2.3026,2.334,2.4073,2.4642,2.4307,2.2837,2.2701,2.2956,2.3518,2.4024,2.4524,2.515,2.5642,2.5959,2.5959,2.6437,2.6767,2.6797,2.728,2.7515,2.756,2.7515,2.7357,2.6774,2.6707,2.6323,2.5297,2.5003,2.444,2.3782,2.3366,2.3071,2.2853,2.2468,2.2214,2.2005,2.1899,2.1899,2.1899,2.1913,2.1913,2.1852,2.1791,2.152,2.1028,2.093,2.0733,2.0283,2.0093,2.0003,2.0003,1.9862,1.9798,1.9798,1.9723,1.9472,4.4327,4.4384,4.4209,4.4232,4.435,4.3478,4.277,4.2236,4.1285,4.0577,4.0087,4.0087,4.0087,4.0087,4.0087,4.002,3.9952,3.9952,3.9901,3.9731,3.9049,3.898,3.944,3.8964,3.9191,3.9952,3.8418,3.7279,3.6554,3.5894,3.5459,3.528,3.4681,3.3724,3.2557,3.1795,3.1467,3.1467,3.1435,3.0791,2.9624,2.949,2.8532,2.6677,2.5974,2.527,2.4477,2.4403,2.4268,2.4208,2.364,2.361,2.4089,2.3161,2.2772,2.3266,2.3325,2.364,2.4298,2.4313,2.4881,2.6033,2.6258,2.5986,2.5188,2.5129,2.5349,2.602,2.6113,2.6475,2.7086,2.7195,2.72,2.7245,2.7415,2.7425,2.7395,2.7535,2.756,2.756,2.756,2.756,2.7408,2.7408,2.7312,2.7041,2.6176,2.5612,2.4398,2.3376,2.297,2.311,2.2468,2.2133,2.242,2.2543,2.2543,2.2543,2.2543,2.2543,2.2543,2.2193,2.1791,2.1615,2.1568,2.1472,2.1315,2.1015,2.0646,2.051,2.0156,1.9798,1.9786,1.9472,1.8933,4.457,4.457,4.457,4.457,4.4536,4.4198,4.3623,4.2878,4.2557,4.1745,4.073,4.0696,4.046,4.0087,4.0087,4.0087,4.0087,4.0087,4.0087,4.007,3.9731,3.9744,4.0066,3.9728,3.9757,4.0014,3.8952,3.8246,3.7815,3.71,3.6538,3.6072,3.504,3.3814,3.2587,3.2213,3.1898,3.1482,3.1467,3.1061,3.0103,2.9759,2.8966,2.7694,2.6692,2.6004,2.5704,2.536,2.5151,2.5166,2.4866,2.4837,2.5106,2.4597,2.4403,2.4672,2.4687,2.4986,2.5659,2.6019,2.6482,2.7066,2.7126,2.7006,2.6707,2.6677,2.6797,2.7081,2.7126,2.7245,2.7595,2.756,2.756,2.756,2.756,2.756,2.756,2.756,2.756,2.756,2.756,2.756,2.756,2.756,2.7445,2.7096,2.6169,2.514,2.4183,2.3574,2.3204,2.3463,2.3065,2.2934,2.3143,2.3201,2.3187,2.3201,2.3201,2.3201,2.3201,2.2891,2.2606,2.23,2.2253,2.1913,2.1438,2.1028,2.0696,2.0245,2.0055,1.9798,1.9723,1.9171,1.843,4.457,4.457,4.457,4.457,4.457,4.457,4.4215,4.369,4.3673,4.3014,4.2001,4.1441,4.0882,4.0341,4.0155,4.0087,4.0087,4.0087,4.0087,4.0087,4.0087,4.0087,4.0087,4.0087,4.0087,4.002,3.9246,3.8924,3.8799,3.8149,3.7397,3.6538,3.5369,3.4059,3.2751,3.2587,3.2198,3.1511,3.1467,3.1195,3.0522,3.0028,2.9475,2.8801,2.7664,2.7051,2.7006,2.6408,2.6048,2.6048,2.5914,2.5899,2.6033,2.5914,2.5884,2.6033,2.6063,2.6348,2.7006,2.7649,2.8075,2.8023,2.8075,2.8075,2.8023,2.8075,2.7874,2.7634,2.7545,2.756,2.756,2.756,2.756,2.756,2.756,2.756,2.756,2.756,2.756,2.756,2.756,2.756,2.756,2.756,2.7395,2.6841,2.5794,2.4837,2.4208,2.3954,2.3804,2.3625,2.3595,2.3551,2.3595,2.3551,2.3551,2.3595,2.3551,2.3551,2.3551,2.3551,2.3421,2.2965,2.292,2.2589,2.1677,2.1161,2.0917,2.0471,2.0131,1.9761,1.956,1.9032,1.8204,4.457,4.457,4.457,4.457,4.457,4.457,4.4519,4.4451,4.4468,4.4427,4.3994,4.2102,4.1204,4.1018,4.0392,4.0104,4.0087,4.0087,4.0087,4.0087,4.0087,4.0087,4.0087,4.0087,4.0087,4.002,3.9315,3.8978,3.8908,3.8189,3.7381,3.6583,3.5873,3.4805,3.3547,3.2826,3.2213,3.1482,3.1467,3.121,3.0552,3.0447,3.0118,2.9505,2.8786,2.8412,2.8404,2.7754,2.7445,2.7385,2.689,2.6797,2.731,2.6841,2.6782,2.7385,2.7445,2.7694,2.8368,2.9011,2.934,2.94,2.9325,2.9325,2.9325,2.9355,2.8846,2.8,2.7604,2.7619,2.7575,2.7625,2.756,2.756,2.756,2.756,2.756,2.756,2.756,2.756,2.756,2.756,2.756,2.756,2.758,2.7305,2.6557,2.5809,2.5181,2.4627,2.4104,2.3744,2.3595,2.3595,2.3595,2.3595,2.3595,2.3595,2.3595,2.3595,2.3595,2.3595,2.3551,2.3421,2.3421,2.3275,2.295,2.2455,2.1615,2.1099,2.0432,1.9673,1.9208,1.8945,1.853,4.457,4.457,4.457,4.457,4.457,4.457,4.457,4.457,4.457,4.4575,4.4427,4.3081,4.2033,4.1187,4.0882,4.051,4.0155,4.0087,4.0087,4.0087,4.0087,4.0087,4.0087,4.0087,4.0087,4.007,3.9782,3.9594,3.9489,3.8799,3.806,3.7365,3.7038,3.5991,3.4254,3.3863,3.3211,3.2108,3.2148,3.2023,3.1677,3.0925,3.0387,3.0143,2.9902,2.9781,2.9817,2.9878,2.9772,2.9388,2.9092,2.8875,2.8794,2.8502,2.8472,2.8727,2.8757,2.8876,2.916,2.9445,2.9594,2.9594,2.9594,2.9594,2.9594,2.9594,2.9325,2.8846,2.8412,2.8173,2.8143,2.7829,2.756,2.756,2.756,2.756,2.756,2.756,2.756,2.756,2.756,2.756,2.756,2.756,2.7445,2.7036,2.6437,2.5869,2.5151,2.4448,2.3954,2.3684,2.3595,2.3595,2.3595,2.3595,2.3595,2.3595,2.3595,2.3595,2.3595,2.3595,2.3595,2.3595,2.3595,2.3421,2.3009,2.2725,2.2161,2.1438,2.0544,1.9648,1.9133,1.9032,1.8668,4.457,4.457,4.457,4.457,4.457,4.457,4.457,4.457,4.457,4.457,4.4519,4.3978,4.2895,4.161,4.1305,4.0798,4.0138,4.0087,4.0087,4.0087,4.0087,4.0087,4.0087,4.0087,4.0087,4.0087,4.007,4.007,4.002,3.9542,3.887,3.8206,3.8092,3.699,3.5049,3.4898,3.4218,3.2938,3.2872,3.2895,3.271,3.1859,3.1326,3.1335,3.1197,3.1146,3.1146,3.1453,3.1406,3.0914,3.0729,3.0387,2.991,2.9726,2.9594,2.9609,2.9744,2.9834,2.9819,2.9998,3.0118,3.0103,3.0118,3.0118,3.0118,3.0118,3.0118,3.0073,2.9505,2.9041,2.8562,2.8143,2.7799,2.7619,2.756,2.756,2.756,2.756,2.756,2.756,2.756,2.756,2.756,2.756,2.741,2.6976,2.6512,2.5794,2.5091,2.4522,2.4118,2.3684,2.3595,2.3595,2.3595,2.3595,2.3595,2.3595,2.3595,2.3595,2.3595,2.3595,2.3595,2.3595,2.3595,2.3421,2.2965,2.2663,2.2282,2.1126,2.0283,1.9749,1.9397,1.9271,1.9108,4.457,4.457,4.457,4.457,4.457,4.457,4.457,4.457,4.457,4.457,4.457,4.4519,4.3656,4.2185,4.1542,4.0798,4.0138,4.0087,4.0087,4.0087,4.0087,4.0087,4.0087,4.0087,4.0087,4.0087,4.0087,4.0087,4.0087,4.002,3.9662,3.8854,3.8854,3.7762,3.5935,3.5679,3.4936,3.3814,3.364,3.3578,3.3547,3.3515,3.3451,3.3371,3.2862,3.2494,3.2479,3.1967,3.163,3.163,3.1108,3.069,3.0556,3.0023,2.9723,2.9699,3.0163,3.0462,3.0552,3.1001,3.133,3.1317,3.1285,3.1332,3.1255,3.1255,3.1255,3.1317,3.0717,2.9924,2.8921,2.8577,2.8203,2.7649,2.756,2.756,2.756,2.756,2.756,2.756,2.756,2.756,2.756,2.756,2.7545,2.7505,2.7475,2.6901,2.5764,2.5435,2.4822,2.3954,2.3595,2.3595,2.3595,2.3595,2.3595,2.3595,2.3595,2.3595,2.3595,2.3595,2.3595,2.3595,2.3595,2.3377,2.2934,2.2466,2.2035,2.121,2.0346,1.98,1.9597,1.971,1.9585,4.457,4.457,4.457,4.457,4.457,4.457,4.457,4.457,4.457,4.457,4.457,4.457,4.3724,4.2269,4.2016,4.1221,4.0138,4.0087,4.0087,4.0087,4.0087,4.0087,4.0087,4.0087,4.0087,4.0087,4.0087,4.0087,4.0087,4.0087,3.9662,3.9139,3.942,3.8776,3.7326,3.7122,3.6621,3.5665,3.5178,3.4937,3.4905,3.4904,3.4864,3.4847,3.4249,3.3892,3.3892,3.406,3.3975,3.3533,3.3259,3.2964,3.2526,3.1896,3.1308,3.0893,3.1046,3.1165,3.1138,3.139,3.1467,3.1467,3.1467,3.1467,3.1467,3.1467,3.1467,3.1407,3.1287,3.0731,2.9924,2.9116,2.8338,2.7724,2.7575,2.759,2.756,2.756,2.756,2.756,2.756,2.756,2.756,2.756,2.756,2.7565,2.7215,2.6587,2.5839,2.5285,2.4657,2.3894,2.3595,2.3595,2.3595,2.3595,2.3595,2.3595,2.3595,2.3595,2.3595,2.3595,2.3595,2.3595,2.3595,2.3551,2.3113,2.2253,2.1819,2.1534,2.062,1.9901,1.9798,1.9798,1.9798,4.457,4.457,4.457,4.457,4.457,4.457,4.457,4.457,4.457,4.457,4.457,4.457,4.3724,4.2472,4.2303,4.1474,4.0172,4.0087,4.0087,4.0087,4.0087,4.0087,4.0087,4.0087,4.0087,4.0087,4.0087,4.0087,4.0087,4.0087,3.9782,3.9368,3.985,3.9454,3.8372,3.8302,3.7939,3.7183,3.6651,3.6322,3.6087,3.6017,3.5859,3.5566,3.5144,3.4941,3.4941,3.5362,3.5407,3.5005,3.4736,3.4186,3.3339,3.2841,3.2272,3.1582,3.1467,3.1467,3.1467,3.1467,3.1467,3.1467,3.1467,3.1467,3.1467,3.1467,3.1467,3.1467,3.1467,3.1183,3.0537,2.9714,2.8861,2.8128,2.7904,2.7835,2.767,2.756,2.756,2.756,2.756,2.756,2.756,2.756,2.756,2.756,2.6991,2.6348,2.5704,2.5046,2.4343,2.3759,2.361,2.3595,2.3595,2.3595,2.3595,2.3595,2.3595,2.3595,2.3595,2.3595,2.3595,2.3595,2.3595,2.3595,2.3128,2.2225,2.1791,2.1649,2.0756,1.985,1.9798,1.9798,1.9798,4.457,4.457,4.457,4.457,4.457,4.457,4.457,4.457,4.457,4.457,4.457,4.457,4.3775,4.2574,4.2337,4.1508,4.0375,4.0121,4.0087,4.0087,4.0087,4.0087,4.0087,4.0087,4.0087,4.0087,4.0087,4.0087,4.0087,4.0087,4.007,4.007,4.002,3.9731,3.8908,3.8974,3.8656,3.8065,3.7853,3.7489,3.6907,3.6823,3.6451,3.5791,3.5645,3.5583,3.5577,3.5577,3.5577,3.547,3.4988,3.3987,3.2986,3.268,3.2312,3.1625,3.1467,3.1467,3.1467,3.1467,3.1467,3.1467,3.1467,3.1467,3.1467,3.1467,3.1467,3.1467,3.1452,3.1213,3.0731,3.0477,2.9879,2.8816,2.8472,2.8233,2.7739,2.756,2.756,2.756,2.756,2.756,2.756,2.756,2.756,2.7455,2.7006,2.6348,2.5704,2.5046,2.4343,2.3819,2.3595,2.3595,2.3595,2.3595,2.3595,2.3595,2.3595,2.3595,2.3595,2.3595,2.3595,2.3595,2.3595,2.3551,2.3201,2.2346,2.1724,2.1342,2.0434,1.9901,1.9798,1.9798,1.9798,4.457,4.457,4.457,4.457,4.457,4.457,4.457,4.457,4.457,4.457,4.457,4.457,4.4012,4.3115,4.2523,4.1762,4.0849,4.0358,4.0087,4.0087,4.0087,4.0087,4.0087,4.0087,4.0087,4.0087,4.0087,4.0087,4.0087,4.0087,4.0087,4.0087,4.0087,3.9969,3.9714,3.9733,3.9615,3.9362,3.8906,3.8531,3.8261,3.7804,3.7178,3.6518,3.6417,3.6197,3.5656,3.5639,3.5639,3.5605,3.5407,3.4704,3.3598,3.3287,3.2718,3.1682,3.1467,3.1467,3.1467,3.1467,3.1467,3.1467,3.1467,3.1467,3.1467,3.1467,3.1467,3.1467,3.1467,3.1405,3.1255,3.1153,3.0447,2.8786,2.8592,2.8353,2.7724,2.756,2.756,2.756,2.756,2.756,2.756,2.756,2.756,2.7515,2.7006,2.6348,2.5689,2.5046,2.4373,2.3759,2.3684,2.3595,2.3595,2.3595,2.3595,2.3595,2.3595,2.3595,2.3595,2.3595,2.3595,2.3595,2.3595,2.3465,2.3054,2.2498,2.1833,2.1307,2.0733,2.0295,1.9952,1.985,2.0003,4.457,4.457,4.457,4.457,4.457,4.457,4.457,4.457,4.457,4.457,4.457,4.457,4.4147,4.3386,4.2625,4.1897,4.117,4.0426,4.0087,4.0087,4.0087,4.0087,4.0087,4.0087,4.0087,4.0087,4.0087,4.0087,4.0087,4.0087,4.0087,4.0087,4.0087,4.0087,4.0087,4.0087,4.0087,4.0003,3.9631,3.9259,3.8903,3.8294,3.7533,3.6857,3.6502,3.6113,3.5656,3.5639,3.5639,3.5639,3.5639,3.5068,3.4071,3.3735,3.3077,3.216,3.164,3.1467,3.1467,3.1467,3.1467,3.1467,3.1467,3.1467,3.1467,3.1467,3.1467,3.1467,3.1467,3.1467,3.1467,3.1467,3.0821,2.9505,2.9116,2.8577,2.7829,2.756,2.756,2.756,2.756,2.756,2.756,2.756,2.756,2.747,2.6991,2.6348,2.5689,2.5046,2.4373,2.3849,2.364,2.3595,2.3595,2.3595,2.3595,2.3595,2.3595,2.3595,2.3595,2.3595,2.3595,2.3595,2.3595,2.3595,2.3231,2.2529,2.1866,2.1403,2.1126,2.0832,2.0534,2.0346,2.0346,4.457,4.457,4.457,4.457,4.457,4.457,4.457,4.457,4.457,4.457,4.457,4.457,4.4215,4.3453,4.2709,4.1948,4.1238,4.0426,4.0087,4.0087,4.0087,4.0087,4.0087,4.0087,4.0087,4.0087,4.0087,4.0087,4.0087,4.0087,4.0087,4.0087,4.0087,4.0087,4.0087,4.0087,4.0087,4.007,4.0037,3.9681,3.9106,3.8396,3.7719,3.7026,3.6299,3.5842,3.5825,3.5707,3.5639,3.5639,3.5639,3.527,3.4592,3.3987,3.3391,3.2586,3.1894,3.1625,3.1524,3.1467,3.1467,3.1467,3.1467,3.1467,3.1467,3.1467,3.1467,3.1467,3.1467,3.1467,3.1467,3.1467,3.112,3.0492,2.9639,2.8816,2.7784,2.756,2.756,2.756,2.756,2.756,2.756,2.756,2.756,2.7455,2.7006,2.6348,2.5704,2.5046,2.4388,2.3954,2.3625,2.3595,2.3595,2.3595,2.3595,2.3595,2.3595,2.3595,2.3595,2.3595,2.3595,2.3595,2.3595,2.3551,2.3319,2.2665,2.2207,2.1927,2.1643,2.1403,2.1015,2.0633,2.0396,4.457,4.457,4.457,4.457,4.457,4.457,4.457,4.457,4.457,4.457,4.457,4.457,4.4434,4.413,4.2861,4.2168,4.1677,4.0629,4.0087,4.0087,4.0087,4.0087,4.0087,4.0087,4.0087,4.0087,4.0087,4.0087,4.0087,4.0087,4.0087,4.0087,4.0087,4.0087,4.0087,4.0087,4.0087,4.0087,4.0087,4.002,3.9715,3.9039,3.8633,3.8345,3.7127,3.6485,3.64,3.5926,3.5639,3.5639,3.5639,3.5316,3.4688,3.4382,3.3836,3.2895,3.2422,3.2048,3.1625,3.1467,3.1467,3.1467,3.1467,3.1467,3.1467,3.1467,3.1467,3.1467,3.1467,3.1467,3.1467,3.1467,3.1016,2.9983,2.934,2.8622,2.7829,2.756,2.756,2.756,2.756,2.756,2.756,2.756,2.756,2.747,2.7006,2.6348,2.5704,2.5046,2.4343,2.3909,2.3595,2.3595,2.3595,2.3595,2.3595,2.3595,2.3595,2.3595,2.3595,2.3595,2.3595,2.3595,2.3595,2.3595,2.3377,2.292,2.2634,2.2207,2.1819,2.1342,2.0868,2.0497,2.0194,4.457,4.457,4.457,4.457,4.457,4.457,4.457,4.457,4.457,4.457,4.457,4.457,4.4384,4.3978,4.2844,4.2117,4.1694,4.0612,4.0104,4.0087,4.0087,4.0087,4.0087,4.0087,4.0087,4.0087,4.0087,4.0087,4.0087,4.0087,4.0087,4.0087,4.0087,4.0087,4.0087,4.0087,4.0087,4.0087,4.0087,4.0087,4.0037,3.936,3.8802,3.843,3.7364,3.6671,3.6299,3.5859,3.5639,3.5639,3.5577,3.5407,3.5052,3.4736,3.4235,3.3443,3.2933,3.2382,3.2007,3.1682,3.1467,3.1467,3.1467,3.1467,3.1467,3.1467,3.1467,3.1467,3.1467,3.1467,3.1467,3.1467,3.0896,2.9849,2.9235,2.8622,2.7694,2.756,2.756,2.756,2.756,2.756,2.756,2.756,2.756,2.744,2.6991,2.6348,2.5704,2.5,2.4358,2.3879,2.3595,2.3595,2.3595,2.3595,2.3595,2.3595,2.3595,2.3595,2.3595,2.3595,2.3595,2.3595,2.3595,2.3551,2.3377,2.3054,2.2529,2.21,2.1677,2.1342,2.0966,2.0396,2.0093,4.457,4.457,4.457,4.457,4.457,4.457,4.457,4.457,4.457,4.4502,4.4418,4.4418,4.3944,4.3267,4.2422,4.1813,4.1204,4.0443,4.0155,4.0087,4.0087,4.0087,4.0087,4.0087,4.0087,4.0087,4.0087,4.0087,4.0087,4.0087,4.0087,4.0087,4.0087,4.0087,4.0087,4.0087,4.0087,4.0087,4.0087,4.0087,3.9952,3.9377,3.8785,3.8244,3.7297,3.6434,3.5926,3.5639,3.5639,3.5639,3.5639,3.5577,3.547,3.4988,3.4624,3.4333,3.3443,3.2734,3.2492,3.191,3.1467,3.1467,3.1467,3.1467,3.1467,3.1467,3.1467,3.1467,3.1467,3.1467,3.1452,3.148,3.0791,2.9804,2.9505,2.8831,2.7949,2.756,2.756,2.756,2.756,2.756,2.756,2.756,2.756,2.7565,2.7006,2.6348,2.5704,2.5,2.4373,2.3729,2.3595,2.3595,2.3595,2.3595,2.3595,2.3595,2.3595,2.3595,2.3595,2.3595,2.3595,2.3595,2.3595,2.3595,2.3508,2.3084,2.2483,2.2067,2.1738,2.1534,2.1245,2.0584,2.0093,4.457,4.457,4.457,4.457,4.457,4.457,4.457,4.4553,4.4553,4.4198,4.3775,4.3673,4.3234,4.2506,4.183,4.1339,4.1085,4.0426,4.0087,4.0087,4.0087,4.0087,4.0087,4.0087,4.0087,4.0087,4.0087,4.0087,4.0087,4.0087,4.0087,4.0087,4.0087,4.0087,4.0087,4.0087,4.0087,4.0087,4.0087,4.0087,3.9969,3.9445,3.8937,3.8531,3.7432,3.6417,3.5808,3.5639,3.5639,3.5639,3.5639,3.5639,3.5577,3.5424,3.5161,3.4592,3.3887,3.3198,3.2641,3.2064,3.1524,3.1625,3.1682,3.1467,3.1467,3.1524,3.1524,3.1467,3.1467,3.1452,3.1362,3.1001,3.0387,2.9684,2.9116,2.8547,2.7784,2.756,2.756,2.756,2.756,2.756,2.756,2.756,2.7545,2.7535,2.6976,2.6333,2.5659,2.4956,2.4328,2.3625,2.3595,2.3595,2.3595,2.3595,2.3595,2.3595,2.3595,2.3595,2.3595,2.3595,2.3595,2.3595,2.3595,2.3551,2.3465,2.2995,2.236,2.2081,2.1657,2.121,2.0769,2.0346,2.0144,4.457,4.457,4.457,4.457,4.457,4.457,4.4384,4.4079,4.4028,4.3606,4.3014,4.2878,4.2472,4.1779,4.1373,4.1052,4.0646,4.0307,4.0087,4.0087,4.0087,4.0087,4.0087,4.0087,4.0087,4.0087,4.0087,4.0087,4.0087,4.0087,4.0087,4.0087,4.0087,4.0087,4.0087,4.0087,4.0087,4.0087,4.0087,4.0087,3.9986,3.9732,3.9022,3.8464,3.7381,3.6417,3.569,3.5639,3.5639,3.5639,3.5639,3.5639,3.5639,3.5639,3.5407,3.5052,3.4431,3.3987,3.3427,3.2917,3.2516,3.2446,3.2461,3.2256,3.2104,3.2007,3.1796,3.1582,3.1437,3.1362,3.1076,3.0806,3.0133,2.928,2.8816,2.8308,2.7739,2.756,2.756,2.756,2.756,2.756,2.756,2.756,2.7275,2.7175,2.6482,2.5839,2.5136,2.4492,2.4103,2.3655,2.361,2.3595,2.3595,2.3595,2.3595,2.3595,2.3595,2.3595,2.3595,2.3595,2.3595,2.3595,2.3551,2.3334,2.3143,2.2694,2.2128,2.1513,2.0993,2.0597,2.0295,2.0055,1.9952,4.457,4.457,4.457,4.457,4.457,4.4553,4.4164,4.3487,4.3403,4.2997,4.2236,4.2117,4.1728,4.1136,4.1018,4.0629,4.0257,4.0104,4.0087,4.0087,4.0087,4.0087,4.0087,4.0087,4.0087,4.0087,4.0087,4.0087,4.0087,4.0087,4.0087,4.0087,4.0087,4.0087,4.0087,4.0087,4.0087,4.0087,4.0087,4.0087,4.0087,3.9986,3.9326,3.8091,3.7212,3.6417,3.5791,3.5639,3.5639,3.5639,3.5639,3.5639,3.5639,3.5639,3.5639,3.5577,3.4894,3.4479,3.4235,3.3836,3.3479,3.3582,3.3531,3.3287,3.2879,3.268,3.2367,3.1894,3.161,3.1273,3.0746,3.0387,2.9849,2.9056,2.8652,2.8158,2.7739,2.756,2.756,2.756,2.756,2.756,2.756,2.7545,2.7126,2.6677,2.6033,2.5375,2.4717,2.4178,2.3849,2.3655,2.361,2.3595,2.3595,2.3595,2.3595,2.3595,2.3595,2.3595,2.3595,2.3595,2.3595,2.3551,2.3465,2.3143,2.268,2.2114,2.1513,2.0845,2.0446,2.0156,1.9952,1.985,1.9798,4.457,4.457,4.457,4.457,4.4553,4.4553,4.4045,4.3487,4.3301,4.2608,4.1474,4.1356,4.0967,4.0476,4.0273,4.0172,4.0104,4.0087,4.0087,4.0087,4.0087,4.0087,4.0087,4.0087,4.0087,4.0087,4.0087,4.0087,4.0087,4.0087,4.0087,4.0087,4.0087,4.0087,4.0087,4.0087,4.0087,4.0087,4.0087,4.0087,4.0087,3.9918,3.9343,3.799,3.7161,3.64,3.5808,3.5639,3.5639,3.5639,3.5639,3.5639,3.5639,3.5639,3.5639,3.547,3.5052,3.4736,3.4624,3.4087,3.3684,3.3582,3.3735,3.3684,3.3479,3.3339,3.2933,3.2312,3.1796,3.1392,3.1287,3.0402,2.9759,2.9175,2.8479,2.782,2.767,2.756,2.756,2.756,2.756,2.756,2.756,2.75,2.7171,2.6677,2.6033,2.5375,2.4717,2.4208,2.3804,2.367,2.3595,2.3595,2.3595,2.3595,2.3595,2.3595,2.3595,2.3595,2.3595,2.3595,2.3551,2.3377,2.3143,2.283,2.2267,2.1609,2.1126,2.0597,2.0194,1.9798,1.9798,1.9798,1.9798,4.457,4.4536,4.4164,4.3978,4.391,4.3555,4.2963,4.2337,4.2252,4.166,4.0882,4.0595,4.0443,4.0155,4.0087,4.0087,4.0087,4.0087,4.0087,4.0087,4.0087,4.0087,4.0087,4.0087,4.0087,4.0087,4.0087,4.0087,4.0087,4.0087,4.0087,4.0087,4.0087,4.0087,4.0087,4.0087,4.0087,4.0087,4.0087,4.0087,4.002,3.9783,3.8903,3.8041,3.7161,3.64,3.5791,3.5639,3.5639,3.5639,3.5639,3.5639,3.5639,3.5639,3.5639,3.5515,3.5253,3.5098,3.5098,3.4752,3.4704,3.4657,3.4592,3.4447,3.4137,3.3735,3.3235,3.2296,3.1792,3.1225,3.0522,2.9939,2.9325,2.8592,2.7985,2.77,2.756,2.756,2.756,2.756,2.756,2.756,2.756,2.7425,2.72,2.6677,2.6033,2.542,2.4731,2.4448,2.4103,2.3969,2.3909,2.3699,2.367,2.3595,2.3595,2.3595,2.3551,2.3551,2.3421,2.3363,2.3201,2.3068,2.274,2.236,2.1738,2.1077,2.0696,2.0396,2.0055,1.9798,1.9798,1.9798,1.9798,4.45,4.4282,4.3504,4.3183,4.3081,4.2574,4.1914,4.1305,4.1255,4.0865,4.0138,4.0104,4.0121,4.0087,4.0087,4.0087,4.0087,4.0087,4.0087,4.0087,4.0087,4.0087,4.0087,4.0087,4.0087,4.0087,4.0087,4.0087,4.0087,4.0087,4.0087,4.0087,4.0087,4.0087,4.0087,4.0087,4.0087,4.0087,4.0087,4.0087,3.9901,3.9377,3.865,3.7922,3.7178,3.64,3.5723,3.5639,3.5639,3.5639,3.5639,3.5639,3.5639,3.5639,3.5639,3.5639,3.5639,3.5639,3.5577,3.5532,3.5379,3.5379,3.5532,3.527,3.4847,3.4186,3.3427,3.2336,3.1626,3.1237,3.0492,2.9657,2.8974,2.8233,2.7799,2.756,2.756,2.756,2.756,2.756,2.756,2.756,2.756,2.75,2.729,2.6841,2.6213,2.5794,2.5226,2.5,2.4747,2.4448,2.4224,2.3939,2.3759,2.3595,2.3595,2.3595,2.3551,2.3508,2.3275,2.3009,2.2785,2.2452,2.2128,2.1704,2.114,2.0646,2.0359,2.0055,1.9901,1.9798,1.9798,1.9798,1.9798,4.4077,4.3504,4.2726,4.2422,4.2388,4.2252,4.1847,4.1204,4.1136,4.0781,4.0087,4.0087,4.0087,4.0087,4.0087,4.0087,4.0087,4.0087,4.0087,4.0087,4.0087,4.0087,4.0087,4.0087,4.0087,4.0087,4.0087,4.0087,4.0087,4.0087,4.0087,4.0087,4.0087,4.0087,4.0087,4.0087,4.0087,4.0087,4.0087,4.0087,3.9952,3.9343,3.8582,3.7922,3.711,3.6366,3.5723,3.5639,3.5639,3.5639,3.5639,3.5639,3.5639,3.5639,3.5639,3.5639,3.5639,3.5639,3.5639,3.5639,3.5639,3.5639,3.5639,3.556,3.5144,3.4688,3.4137,3.4317,3.2641,3.1497,3.0746,2.9645,2.8862,2.8278,2.7814,2.7634,2.756,2.756,2.756,2.756,2.756,2.756,2.756,2.7485,2.735,2.6886,2.6437,2.6033,2.5674,2.545,2.5194,2.4896,2.4418,2.4088,2.3774,2.3625,2.3465,2.3508,2.3406,2.3275,2.286,2.2438,2.1974,2.1657,2.1369,2.1175,2.0733,2.0346,2.0003,1.9862,1.9798,1.9798,1.9798,1.9798,1.9798,4.3262,4.2726,4.1982,4.1677,4.161,4.1238,4.0865,4.0612,4.0561,4.0392,4.0121,4.0087,4.0087,4.0087,4.0087,4.0087,4.0087,4.0087,4.0087,4.0087,4.0087,4.0087,4.0087,4.0087,4.0087,4.0087,4.0087,4.0087,4.0087,4.0087,4.0087,4.0087,4.0087,4.0087,4.0087,4.0087,4.0087,4.0087,4.0087,4.0087,3.98,3.9039,3.8244,3.7872,3.6772,3.6062,3.574,3.5639,3.5639,3.5639,3.5639,3.5639,3.5639,3.5639,3.5639,3.5639,3.5639,3.5639,3.5639,3.5639,3.5639,3.5577,3.5577,3.5424,3.5035,3.4479,3.4087,3.3987,3.2133,3.1175,3.084,2.9522,2.8673,2.8068,2.7835,2.7694,2.756,2.756,2.756,2.756,2.756,2.756,2.756,2.753,2.747,2.7245,2.6841,2.6467,2.6093,2.5764,2.554,2.5269,2.4701,2.4163,2.3849,2.3595,2.3231,2.3187,2.2965,2.277,2.2193,2.1785,2.1355,2.0979,2.0683,2.0446,2.0245,2.0093,1.9901,1.985,1.9798,1.9798,1.9798,1.9798,1.9798,4.2211,4.173,4.1136,4.0916,4.0899,4.0307,4.0104,4.0087,4.0104,4.0087,4.0087,4.0087,4.0087,4.0087,4.0087,4.0087,4.0087,4.0087,4.0087,4.0087,4.0087,4.0087,4.0087,4.0087,4.0087,4.0087,4.0087,4.0087,4.0087,4.0087,4.0087,4.0087,4.0087,4.0087,4.0087,4.0087,4.0087,4.0087,4.0087,4.0087,3.9834,3.8667,3.8125,3.7466,3.6586,3.5639,3.5639,3.5639,3.5639,3.5639,3.5639,3.5639,3.5639,3.5639,3.5639,3.5639,3.5639,3.5639,3.5639,3.5639,3.5639,3.5577,3.5362,3.5115,3.4704,3.3987,3.3574,3.363,3.2033,3.1083,3.051,2.9493,2.8617,2.8102,2.7755,2.7675,2.756,2.756,2.756,2.756,2.756,2.756,2.756,2.756,2.753,2.7485,2.723,2.6886,2.6482,2.6078,2.5674,2.539,2.4522,2.3985,2.3761,2.3465,2.3143,2.277,2.2543,2.2161,2.1595,2.1259,2.093,2.0497,2.0105,2.0055,1.9991,1.9901,1.9798,1.9798,1.9798,1.9798,1.9798,1.9798,1.9798,4.0728,4.0223,4.0189,4.0206,4.0189,4.0104,4.0087,4.0087,4.0087,4.0087,4.0087,4.0087,4.0087,4.0087,4.0087,4.0087,4.0087,4.0087,4.0087,4.0087,4.0087,4.0087,4.0087,4.0087,4.0087,4.0087,4.0087,4.0087,4.0087,4.0087,4.0087,4.0087,4.0087,4.0087,4.0087,4.0087,4.0087,4.0087,4.0087,4.0087,3.9681,3.8785,3.7956,3.7584,3.6535,3.5639,3.5639,3.5639,3.5639,3.5639,3.5639,3.5639,3.5639,3.5639,3.5639,3.5639,3.5639,3.5639,3.5639,3.5639,3.5639,3.5424,3.5207,3.4894,3.48,3.4037,3.3662,3.3468,3.2158,3.1342,3.0701,2.9796,2.8568,2.8084,2.776,2.761,2.756,2.756,2.756,2.756,2.756,2.756,2.756,2.756,2.756,2.753,2.7485,2.7156,2.6722,2.6288,2.5764,2.5226,2.4209,2.3717,2.3554,2.3187,2.2575,2.2207,2.1974,2.15,2.0966,2.0646,2.0446,2.0207,1.9901,1.985,1.9798,1.9798,1.9798,1.9798,1.9798,1.9798,1.9798,1.9798,1.9798,4.0938,4.0121,4.0087,4.0087,4.0087,4.0087,4.0087,4.0087,4.0087,4.0087,4.0087,4.0087,4.0087,4.0087,4.0087,4.0087,4.0087,4.0087,4.0087,4.0087,4.0087,4.0087,4.0087,4.0087,4.0087,4.0087,4.0087,4.0087,4.0087,4.0087,4.0087,4.0087,4.0087,4.0087,4.0087,4.0087,4.0087,4.0087,4.0087,4.0087,3.9766,3.8734,3.7922,3.7787,3.6417,3.5707,3.5639,3.5639,3.5639,3.5639,3.5639,3.5639,3.5639,3.5639,3.5639,3.5639,3.5639,3.5639,3.5639,3.5639,3.5639,3.5577,3.5362,3.5161,3.5052,3.4528,3.4213,3.3634,3.246,3.1465,3.0617,2.9438,2.835,2.7993,2.781,2.766,2.756,2.756,2.756,2.756,2.756,2.756,2.756,2.756,2.756,2.756,2.758,2.7445,2.6886,2.6318,2.5719,2.4938,2.3955,2.3334,2.3172,2.2634,2.2021,2.169,2.1417,2.093,2.0446,2.0194,2.0003,1.985,1.9798,1.9798,1.9798,1.9798,1.9798,1.9798,1.9798,1.9798,1.9798,1.9798,1.9798,4.0984,4.0121,4.0087,4.0087,4.0087,4.0087,4.0087,4.0087,4.0087,4.0087,4.0087,4.0087,4.0087,4.0087,4.0087,4.0087,4.0087,4.0087,4.0087,4.0087,4.0087,4.0087,4.0087,4.0087,4.0087,4.0087,4.0087,4.0087,4.0087,4.0087,4.0087,4.0087,4.0087,4.0087,4.0087,4.0087,4.0087,4.0087,4.0087,3.9901,3.9614,3.8599,3.7686,3.7466,3.6248,3.5707,3.5639,3.5639,3.5639,3.5639,3.5639,3.5639,3.5639,3.5639,3.5639,3.5639,3.5639,3.5639,3.5639,3.5639,3.5639,3.5577,3.5316,3.527,3.5161,3.4703,3.4005,3.3255,3.2107,3.1166,3.0396,2.9093,2.8463,2.814,2.776,2.756,2.756,2.756,2.756,2.756,2.756,2.756,2.756,2.756,2.756,2.756,2.7545,2.729,2.6737,2.6138,2.548,2.4624,2.3627,2.3123,2.2709,2.1988,2.1355,2.1175,2.0832,2.0446,2.0055,1.985,1.9798,1.9798,1.9798,1.9798,1.9798,1.9798,1.9798,1.9798,1.9798,1.9798,1.9798,1.9798,1.9798,4.0625,4.0121,4.0087,4.0087,4.0087,4.0087,4.0087,4.0087,4.0087,4.0087,4.0087,4.0087,4.0087,4.0087,4.0087,4.0087,4.0087,4.0087,4.0087,4.0087,4.0087,4.0087,4.0087,4.0087,4.0087,4.0087,4.0087,4.0087,4.0087,4.0087,4.0087,4.0087,4.0087,4.0087,4.0087,4.0087,4.0087,4.007,4.007,3.9631,3.9106,3.8261,3.7499,3.6924,3.6129,3.5639,3.5639,3.5639,3.5639,3.5639,3.5639,3.5639,3.5639,3.5639,3.5639,3.5639,3.5639,3.5639,3.5639,3.5639,3.5639,3.5577,3.527,3.5005,3.4657,3.4137,3.347,3.2928,3.1851,3.0892,2.9908,2.8951,2.8574,2.814,2.776,2.756,2.756,2.756,2.756,2.756,2.756,2.756,2.756,2.756,2.756,2.756,2.756,2.7186,2.6557,2.6004,2.533,2.4251,2.3287,2.2747,2.2207,2.1369,2.0795,2.061,2.0409,2.0055,1.9901,1.985,1.9798,1.9798,1.9798,1.9798,1.9798,1.9798,1.9798,1.9798,1.9798,1.9798,1.9798,1.9798,1.9798,4.092,4.0121,4.0087,4.0087,4.0087,4.0087,4.0087,4.0087,4.0087,4.0087,4.0087,4.0087,4.0087,4.0087,4.0087,4.0087,4.0087,4.0087,4.0087,4.0087,4.0087,4.0087,4.0087,4.0087,4.0087,4.0087,4.0087,4.0087,4.0087,4.0087,4.0087,4.0087,4.0087,4.0087,4.0087,4.0087,4.0087,3.9969,3.9665,3.9191,3.8853,3.7855,3.7043,3.6721,3.5994,3.5656,3.5639,3.5639,3.5639,3.5639,3.5639,3.5639,3.5639,3.5639,3.5639,3.5639,3.5639,3.5639,3.5639,3.5639,3.5639,3.5532,3.5424,3.5207,3.5161,3.5098,3.4126,3.2892,3.2052,3.1089,2.982,2.8936,2.8415,2.7944,2.7625,2.761,2.756,2.756,2.756,2.756,2.756,2.756,2.756,2.756,2.756,2.7485,2.747,2.6811,2.6138,2.5779,2.5194,2.3938,2.2902,2.2374,2.1724,2.0966,2.0396,2.0207,2.0105,1.9952,1.9798,1.9798,1.9798,1.9798,1.9798,1.9798,1.9798,1.9798,1.9798,1.9798,1.9695,1.9747,1.9798,1.9798,1.9798,4.1122,4.0121,4.0087,4.0087,4.0087,4.0087,4.0087,4.0087,4.0087,4.0087,4.0087,4.0087,4.0087,4.0087,4.0087,4.0087,4.0087,4.0087,4.0087,4.0087,4.0087,4.0087,4.0087,4.0087,4.0087,4.0087,4.0087,4.0087,4.0087,4.0087,4.0087,4.0087,4.0087,4.0087,4.0087,4.0087,4.007,3.9901,3.9495,3.8886,3.8345,3.7533,3.6688,3.6315,3.591,3.5639,3.5639,3.5639,3.5639,3.5639,3.5639,3.5639,3.5639,3.5639,3.5639,3.5639,3.5639,3.5639,3.5639,3.5639,3.5639,3.5577,3.5622,3.5487,3.5313,3.5023,3.3844,3.2788,3.2187,3.0762,2.9218,2.846,2.8125,2.761,2.761,2.756,2.756,2.756,2.756,2.756,2.756,2.756,2.756,2.756,2.756,2.7455,2.7335,2.6557,2.5824,2.551,2.5045,2.3836,2.2711,2.2086,2.1424,2.067,2.0181,1.985,1.9798,1.9798,1.9798,1.9798,1.9798,1.9798,1.9798,1.9798,1.9798,1.9798,1.9643,1.9475,1.9307,1.9423,1.9747,1.9631,1.9423,4.1122,4.0171,4.0087,4.0087,4.0087,4.0087,4.0087,4.0087,4.0087,4.0087,4.0087,4.0087,4.0087,4.0087,4.0087,4.0087,4.0087,4.0087,4.0087,4.0087,4.0087,4.0087,4.0087,4.0087,4.0087,4.0087,4.0087,4.0087,4.0087,4.0087,4.0087,4.0087,4.0087,4.0087,4.0087,3.9935,3.9901,3.9631,3.9123,3.8447,3.777,3.706,3.6349,3.5943,3.569,3.5639,3.5639,3.5639,3.5639,3.5639,3.5639,3.5639,3.5639,3.5639,3.5639,3.5639,3.5639,3.5639,3.5639,3.5639,3.5487,3.5419,3.5408,3.5115,3.4701,3.4305,3.3139,3.1846,3.0831,2.9526,2.8232,2.7996,2.771,2.761,2.761,2.756,2.756,2.756,2.756,2.756,2.756,2.756,2.756,2.756,2.7545,2.746,2.7156,2.6482,2.5809,2.542,2.4851,2.3807,2.2741,2.1932,2.1183,2.0508,2.0093,1.9798,1.9798,1.9798,1.9798,1.9798,1.9798,1.9798,1.9798,1.9747,1.9527,1.9371,1.9319,1.9097,1.8608,1.8715,1.8821,1.8821,1.8768,4.0767,4.0121,4.0087,4.0087,4.0087,4.0087,4.0087,4.0087,4.0087,4.0087,4.0087,4.0087,4.0087,4.0087,4.0087,4.0087,4.0087,4.0087,4.0087,4.0087,4.0087,4.0087,4.0087,4.0087,4.0087,4.0087,4.0087,4.0087,4.0087,4.0087,4.0087,4.0087,4.0087,4.0087,3.9868,3.958,3.9411,3.9073,3.8497,3.7905,3.7178,3.6451,3.5943,3.5707,3.5639,3.5639,3.5639,3.5639,3.5639,3.5639,3.5639,3.5639,3.5639,3.5639,3.5639,3.5639,3.5639,3.5639,3.5639,3.5605,3.5351,3.4895,3.4732,3.4477,3.3951,3.3218,3.2292,3.0958,3.0002,2.8974,2.8197,2.7836,2.766,2.756,2.756,2.756,2.756,2.756,2.756,2.756,2.756,2.756,2.756,2.756,2.753,2.7415,2.6976,2.6303,2.5749,2.5345,2.4686,2.3718,2.2696,2.1791,2.1266,2.0607,2.0181,1.9798,1.9798,1.9798,1.9798,1.9798,1.9798,1.9798,1.9798,1.9475,1.8992,1.8939,1.8992,1.8124,1.7633,1.7797,1.7907,1.7895,1.8004,4.0577,4.0121,4.0087,4.0087,4.0087,4.0087,4.0087,4.0087,4.0087,4.0087,4.0087,4.0087,4.0087,4.0087,4.0087,4.0087,4.0087,4.0087,4.0087,4.0087,4.0087,4.0087,4.0087,4.0087,4.0087,4.0087,4.0087,4.0087,4.0087,4.0087,4.0087,4.0087,4.0087,3.9884,3.9597,3.9191,3.8633,3.8176,3.7652,3.7229,3.6671,3.6028,3.574,3.5639,3.5639,3.5639,3.5639,3.5639,3.5639,3.5639,3.5639,3.5639,3.5639,3.5639,3.5639,3.5571,3.525,3.5165,3.5064,3.4776,3.4489,3.409,3.3624,3.2901,3.2619,3.2039,3.1035,2.9927,2.9428,2.8869,2.8343,2.7845,2.771,2.756,2.756,2.756,2.756,2.756,2.756,2.756,2.756,2.756,2.756,2.756,2.7485,2.7305,2.6826,2.6078,2.5555,2.5136,2.4537,2.3701,2.2665,2.1697,2.1183,2.0756,2.0181,1.985,1.9798,1.9798,1.9798,1.9798,1.9798,1.9798,1.9798,1.9307,1.8715,1.8661,1.8555,1.7567,1.681,1.6866,1.6968,1.7024,1.7191,4.0528,4.0087,4.0087,4.0087,4.0087,4.0087,4.0087,4.0087,4.0087,4.0087,4.0087,4.0087,4.0087,4.0087,4.0087,4.0087,4.0087,4.0087,4.0087,4.0087,4.0087,4.0087,4.0087,4.0087,4.0087,4.0087,4.0087,4.0087,4.0087,4.0087,4.0087,4.007,3.9918,3.9648,3.9191,3.8667,3.8024,3.7313,3.6907,3.6569,3.6451,3.6011,3.5639,3.5639,3.5639,3.5639,3.5639,3.5639,3.5639,3.5639,3.5639,3.5639,3.5639,3.5639,3.5639,3.552,3.5165,3.4861,3.4641,3.4303,3.3744,3.3068,3.22,3.1506,3.118,3.0829,2.9864,2.9088,2.8514,2.8379,2.7896,2.7725,2.761,2.756,2.756,2.756,2.756,2.756,2.756,2.756,2.756,2.756,2.756,2.756,2.756,2.7305,2.6797,2.6033,2.545,2.5031,2.4373,2.3714,2.283,2.1946,2.1424,2.0904,2.0194,1.9901,1.985,1.9798,1.9798,1.9798,1.9798,1.9579,1.9371,1.8927,1.8501,1.8221,1.7677,1.6856,1.6208,1.6036,1.6093,1.6255,1.6358,4.0204,4.0087,4.0087,4.0087,4.0087,4.0087,4.0087,4.0087,4.0087,4.0087,4.0087,4.0087,4.0087,4.0087,4.0087,4.0087,4.0087,4.0087,4.0087,4.0087,4.0087,4.0087,4.0087,4.0087,4.0087,4.0087,4.0087,4.007,4.007,4.007,4.0037,3.9969,3.9614,3.9039,3.8734,3.8091,3.7195,3.6637,3.6265,3.6045,3.5943,3.5859,3.5639,3.5639,3.5639,3.5639,3.5639,3.5639,3.5639,3.5639,3.5639,3.5639,3.5639,3.5639,3.5622,3.5571,3.525,3.4776,3.4286,3.3846,3.3372,3.2622,3.1724,3.0784,3.0071,2.9548,2.8947,2.824,2.7801,2.775,2.7685,2.764,2.756,2.756,2.756,2.756,2.756,2.756,2.756,2.756,2.756,2.756,2.756,2.756,2.756,2.7305,2.6856,2.6243,2.5585,2.5046,2.4373,2.3717,2.3098,2.2346,2.1771,2.1099,2.0396,1.9952,1.9798,1.9798,1.9798,1.9643,1.9475,1.9097,1.8821,1.8328,1.7786,1.7146,1.6539,1.6036,1.5816,1.57,1.5642,1.5748,1.5748,4.0087,4.0087,4.0087,4.0087,4.0087,4.0087,4.0087,4.0087,4.0087,4.0087,4.0087,4.0087,4.0087,4.0087,4.0087,4.0087,4.0087,4.0087,4.0087,4.0087,4.0087,4.0087,4.0087,4.0087,4.0087,4.0087,4.0087,4.007,4.0104,3.9665,3.9529,3.9495,3.892,3.8345,3.8041,3.7144,3.6569,3.6248,3.5808,3.5656,3.5639,3.5639,3.5639,3.5639,3.5639,3.5639,3.5639,3.5639,3.5639,3.5639,3.5639,3.5639,3.5639,3.5639,3.5419,3.5081,3.4692,3.4303,3.3744,3.3254,3.2848,3.2015,3.1258,3.031,3.0016,2.9523,2.8568,2.794,2.7755,2.7655,2.7655,2.7575,2.756,2.756,2.756,2.756,2.756,2.756,2.756,2.756,2.756,2.756,2.756,2.756,2.7545,2.744,2.6976,2.6333,2.5689,2.5,2.4373,2.3718,2.3097,2.2438,2.1805,2.1148,2.0547,2.0156,1.9798,1.9798,1.9747,1.9423,1.915,1.8768,1.8286,1.7677,1.709,1.6539,1.6093,1.57,1.5584,1.5468,1.542,1.542,1.5468,3.9986,4.007,4.0087,4.0087,4.0087,4.0087,4.0087,4.0087,4.0087,4.0087,4.0087,4.0087,4.0087,4.0087,4.0087,4.0087,4.0087,4.0087,4.0087,4.0087,4.0087,4.0087,4.0087,4.0087,4.0087,4.0087,4.0087,4.0087,4.007,3.9546,3.9073,3.8836,3.8193,3.7466,3.6941,3.6569,3.6299,3.5926,3.5639,3.5639,3.5639,3.5639,3.5639,3.5639,3.5639,3.5639,3.5639,3.5639,3.5639,3.5639,3.5639,3.5639,3.5639,3.5605,3.5148,3.4776,3.4303,3.3541,3.2679,3.2154,3.1715,3.1156,3.0576,3.0251,2.9978,2.939,2.8496,2.8076,2.7894,2.761,2.761,2.756,2.756,2.756,2.756,2.756,2.756,2.756,2.756,2.756,2.756,2.756,2.756,2.756,2.7515,2.741,2.7006,2.6348,2.5689,2.5046,2.4388,2.3703,2.3098,2.2438,2.1791,2.1197,2.061,2.0156,1.9798,1.9798,1.9695,1.9319,1.8886,1.8394,1.7907,1.7135,1.6641,1.6197,1.5806,1.5468,1.5468,1.542,1.542,1.542,1.542,3.9546,4.0087,4.007,4.0054,4.0054,4.0054,4.0087,4.007,4.0037,4.0087,4.0037,4.007,4.0087,4.0087,4.0087,4.0087,4.0087,4.0087,4.0087,4.0087,4.0087,4.0087,4.0087,4.0087,4.0087,4.0087,4.0087,4.0087,3.9901,3.9326,3.8954,3.8853,3.7499,3.6907,3.6738,3.6332,3.5876,3.5639,3.5639,3.5639,3.5639,3.5639,3.5639,3.5639,3.5639,3.5639,3.5639,3.5639,3.5639,3.5639,3.5639,3.5639,3.5588,3.5487,3.503,3.4438,3.3964,3.3144,3.2293,3.1837,3.1443,3.0912,3.0477,3.0293,3.0021,2.9761,2.9118,2.8904,2.8543,2.786,2.7725,2.761,2.756,2.756,2.756,2.756,2.756,2.756,2.756,2.756,2.756,2.756,2.756,2.756,2.756,2.7395,2.7111,2.6452,2.5719,2.5061,2.4388,2.3629,2.2994,2.2423,2.1791,2.121,2.061,2.0156,1.9747,1.9695,1.9475,1.9097,1.8661,1.7961,1.7246,1.6472,1.6026,1.5806,1.57,1.541,1.542,1.542,1.542,1.542,1.542]}]]